<?xml version="1.0" encoding="UTF-8" standalone="no" ?>
<gpx xmlns="http://www.topografix.com/GPX/1/1" xmlns:xsi="http://www.w3.org/2001/XMLSchema-instance" xsi:schemaLocation="http://www.topografix.com/GPX/1/1 http://www.topografix.com/GPX/1/1/gpx.xsd" version="1.1" creator="VisuGPX - https://www.visugpx.com">
  <metadata>
    <name>-Raid baronnies provençales du 12 au 17 mai 2022 étape1 Veynes Savournon</name>
    <desc><![CDATA[Lac de Peyssier trés agreable. Raid fait sous la canicule de mai 2022. Le passage au chateau de l'aigle inutile ; rien à voir, inroulable en montée et en descente. Au km 32 il vaut mieux prendre le sentier à gauche. les renseignements sur openrunner dans le secteur des baronnies ou ailleurs sont inexistants ou pauvres. Cette 1ère étape est roulable et agréable dans l'ensemble. ]]></desc>
  </metadata>
  <trk>
    <name><![CDATA[14797592-Raid baronnies provençales étape1 Veynes Savournon]]></name>
    <extensions>
      <line xmlns="http://www.topografix.com/GPX/gpx_style/0/2">
        <color>0000FF</color>
        <width>4</width>
      </line>
    </extensions>
    <trkseg>
      <trkpt lat="44.53412" lon="5.82279">
        <ele>833</ele>
        <time>2022-06-09T20:45:53Z</time>
      </trkpt>
      <trkpt lat="44.53415" lon="5.82277">
        <ele>834</ele>
        <time>2022-06-09T20:45:54Z</time>
      </trkpt>
      <trkpt lat="44.53418" lon="5.82281">
        <ele>834</ele>
        <time>2022-06-09T20:45:55Z</time>
      </trkpt>
      <trkpt lat="44.53412" lon="5.82279">
        <ele>833</ele>
        <time>2022-06-09T20:45:56Z</time>
      </trkpt>
      <trkpt lat="44.5342" lon="5.82236">
        <ele>834</ele>
        <time>2022-06-09T20:46:04Z</time>
      </trkpt>
      <trkpt lat="44.53371" lon="5.82132">
        <ele>828</ele>
        <time>2022-06-09T20:46:24Z</time>
      </trkpt>
      <trkpt lat="44.53368" lon="5.82117">
        <ele>828</ele>
        <time>2022-06-09T20:46:27Z</time>
      </trkpt>
      <trkpt lat="44.53352" lon="5.82088">
        <ele>827</ele>
        <time>2022-06-09T20:46:33Z</time>
      </trkpt>
      <trkpt lat="44.53348" lon="5.82074">
        <ele>827</ele>
        <time>2022-06-09T20:46:36Z</time>
      </trkpt>
      <trkpt lat="44.53349" lon="5.82062">
        <ele>827</ele>
        <time>2022-06-09T20:46:38Z</time>
      </trkpt>
      <trkpt lat="44.53344" lon="5.82043">
        <ele>826</ele>
        <time>2022-06-09T20:46:41Z</time>
      </trkpt>
      <trkpt lat="44.53347" lon="5.8204">
        <ele>826</ele>
        <time>2022-06-09T20:46:42Z</time>
      </trkpt>
      <trkpt lat="44.53347" lon="5.82029">
        <ele>826</ele>
        <time>2022-06-09T20:46:44Z</time>
      </trkpt>
      <trkpt lat="44.5334" lon="5.81988">
        <ele>824</ele>
        <time>2022-06-09T20:46:51Z</time>
      </trkpt>
      <trkpt lat="44.53338" lon="5.81984">
        <ele>824</ele>
        <time>2022-06-09T20:46:51Z</time>
      </trkpt>
      <trkpt lat="44.53338" lon="5.81991">
        <ele>824</ele>
        <time>2022-06-09T20:46:53Z</time>
      </trkpt>
      <trkpt lat="44.53335" lon="5.81982">
        <ele>824</ele>
        <time>2022-06-09T20:46:54Z</time>
      </trkpt>
      <trkpt lat="44.53326" lon="5.8192">
        <ele>822</ele>
        <time>2022-06-09T20:47:05Z</time>
      </trkpt>
      <trkpt lat="44.53322" lon="5.8191">
        <ele>822</ele>
        <time>2022-06-09T20:47:07Z</time>
      </trkpt>
      <trkpt lat="44.53324" lon="5.81915">
        <ele>822</ele>
        <time>2022-06-09T20:47:08Z</time>
      </trkpt>
      <trkpt lat="44.53325" lon="5.81907">
        <ele>822</ele>
        <time>2022-06-09T20:47:09Z</time>
      </trkpt>
      <trkpt lat="44.53316" lon="5.81851">
        <ele>822</ele>
        <time>2022-06-09T20:47:19Z</time>
      </trkpt>
      <trkpt lat="44.53314" lon="5.81813">
        <ele>823</ele>
        <time>2022-06-09T20:47:25Z</time>
      </trkpt>
      <trkpt lat="44.53293" lon="5.81628">
        <ele>824</ele>
        <time>2022-06-09T20:47:56Z</time>
      </trkpt>
      <trkpt lat="44.53284" lon="5.81573">
        <ele>823</ele>
        <time>2022-06-09T20:48:05Z</time>
      </trkpt>
      <trkpt lat="44.53281" lon="5.81528">
        <ele>822</ele>
        <time>2022-06-09T20:48:13Z</time>
      </trkpt>
      <trkpt lat="44.53279" lon="5.81516">
        <ele>822</ele>
        <time>2022-06-09T20:48:15Z</time>
      </trkpt>
      <trkpt lat="44.53277" lon="5.81515">
        <ele>821</ele>
        <time>2022-06-09T20:48:16Z</time>
      </trkpt>
      <trkpt lat="44.53278" lon="5.8153">
        <ele>822</ele>
        <time>2022-06-09T20:48:18Z</time>
      </trkpt>
      <trkpt lat="44.53276" lon="5.81537">
        <ele>821</ele>
        <time>2022-06-09T20:48:19Z</time>
      </trkpt>
      <trkpt lat="44.53271" lon="5.81541">
        <ele>821</ele>
        <time>2022-06-09T20:48:21Z</time>
      </trkpt>
      <trkpt lat="44.53251" lon="5.81546">
        <ele>819</ele>
        <time>2022-06-09T20:48:25Z</time>
      </trkpt>
      <trkpt lat="44.53222" lon="5.8156">
        <ele>818</ele>
        <time>2022-06-09T20:48:33Z</time>
      </trkpt>
      <trkpt lat="44.53215" lon="5.81569">
        <ele>818</ele>
        <time>2022-06-09T20:48:35Z</time>
      </trkpt>
      <trkpt lat="44.53215" lon="5.81583">
        <ele>818</ele>
        <time>2022-06-09T20:48:37Z</time>
      </trkpt>
      <trkpt lat="44.53245" lon="5.81695">
        <ele>818</ele>
        <time>2022-06-09T20:48:57Z</time>
      </trkpt>
      <trkpt lat="44.53255" lon="5.8175">
        <ele>818</ele>
        <time>2022-06-09T20:49:06Z</time>
      </trkpt>
      <trkpt lat="44.53283" lon="5.81922">
        <ele>820</ele>
        <time>2022-06-09T20:49:36Z</time>
      </trkpt>
      <trkpt lat="44.53285" lon="5.81956">
        <ele>820</ele>
        <time>2022-06-09T20:49:42Z</time>
      </trkpt>
      <trkpt lat="44.53283" lon="5.81965">
        <ele>820</ele>
        <time>2022-06-09T20:49:43Z</time>
      </trkpt>
      <trkpt lat="44.53274" lon="5.81964">
        <ele>819</ele>
        <time>2022-06-09T20:49:45Z</time>
      </trkpt>
      <trkpt lat="44.53244" lon="5.81925">
        <ele>818</ele>
        <time>2022-06-09T20:49:55Z</time>
      </trkpt>
      <trkpt lat="44.5324" lon="5.81925">
        <ele>818</ele>
        <time>2022-06-09T20:49:56Z</time>
      </trkpt>
      <trkpt lat="44.53219" lon="5.81943">
        <ele>817</ele>
        <time>2022-06-09T20:50:01Z</time>
      </trkpt>
      <trkpt lat="44.53189" lon="5.81961">
        <ele>815</ele>
        <time>2022-06-09T20:50:09Z</time>
      </trkpt>
      <trkpt lat="44.53172" lon="5.81965">
        <ele>815</ele>
        <time>2022-06-09T20:50:13Z</time>
      </trkpt>
      <trkpt lat="44.53143" lon="5.8193">
        <ele>813</ele>
        <time>2022-06-09T20:50:22Z</time>
      </trkpt>
      <trkpt lat="44.53126" lon="5.81904">
        <ele>812</ele>
        <time>2022-06-09T20:50:28Z</time>
      </trkpt>
      <trkpt lat="44.53115" lon="5.81894">
        <ele>812</ele>
        <time>2022-06-09T20:50:31Z</time>
      </trkpt>
      <trkpt lat="44.53111" lon="5.81893">
        <ele>812</ele>
        <time>2022-06-09T20:50:32Z</time>
      </trkpt>
      <trkpt lat="44.5311" lon="5.81897">
        <ele>812</ele>
        <time>2022-06-09T20:50:33Z</time>
      </trkpt>
      <trkpt lat="44.53154" lon="5.81949">
        <ele>814</ele>
        <time>2022-06-09T20:50:46Z</time>
      </trkpt>
      <trkpt lat="44.53172" lon="5.81966">
        <ele>815</ele>
        <time>2022-06-09T20:50:51Z</time>
      </trkpt>
      <trkpt lat="44.53205" lon="5.82008">
        <ele>816</ele>
        <time>2022-06-09T20:51:02Z</time>
      </trkpt>
      <trkpt lat="44.53203" lon="5.82015">
        <ele>816</ele>
        <time>2022-06-09T20:51:03Z</time>
      </trkpt>
      <trkpt lat="44.53177" lon="5.82022">
        <ele>815</ele>
        <time>2022-06-09T20:51:09Z</time>
      </trkpt>
      <trkpt lat="44.53174" lon="5.8202">
        <ele>815</ele>
        <time>2022-06-09T20:51:10Z</time>
      </trkpt>
      <trkpt lat="44.53167" lon="5.8203">
        <ele>815</ele>
        <time>2022-06-09T20:51:12Z</time>
      </trkpt>
      <trkpt lat="44.53138" lon="5.82051">
        <ele>813</ele>
        <time>2022-06-09T20:51:20Z</time>
      </trkpt>
      <trkpt lat="44.5313" lon="5.82061">
        <ele>812</ele>
        <time>2022-06-09T20:51:22Z</time>
      </trkpt>
      <trkpt lat="44.53122" lon="5.82092">
        <ele>812</ele>
        <time>2022-06-09T20:51:28Z</time>
      </trkpt>
      <trkpt lat="44.53123" lon="5.82094">
        <ele>812</ele>
        <time>2022-06-09T20:51:28Z</time>
      </trkpt>
      <trkpt lat="44.5313" lon="5.8207">
        <ele>812</ele>
        <time>2022-06-09T20:51:32Z</time>
      </trkpt>
      <trkpt lat="44.53141" lon="5.82051">
        <ele>813</ele>
        <time>2022-06-09T20:51:36Z</time>
      </trkpt>
      <trkpt lat="44.53194" lon="5.82017">
        <ele>816</ele>
        <time>2022-06-09T20:51:50Z</time>
      </trkpt>
      <trkpt lat="44.5321" lon="5.82013">
        <ele>817</ele>
        <time>2022-06-09T20:51:54Z</time>
      </trkpt>
      <trkpt lat="44.53236" lon="5.82046">
        <ele>818</ele>
        <time>2022-06-09T20:52:02Z</time>
      </trkpt>
      <trkpt lat="44.53257" lon="5.82077">
        <ele>820</ele>
        <time>2022-06-09T20:52:09Z</time>
      </trkpt>
      <trkpt lat="44.53267" lon="5.82106">
        <ele>820</ele>
        <time>2022-06-09T20:52:15Z</time>
      </trkpt>
      <trkpt lat="44.53281" lon="5.82211">
        <ele>820</ele>
        <time>2022-06-09T20:52:32Z</time>
      </trkpt>
      <trkpt lat="44.53301" lon="5.82307">
        <ele>821</ele>
        <time>2022-06-09T20:52:49Z</time>
      </trkpt>
      <trkpt lat="44.53302" lon="5.82348">
        <ele>821</ele>
        <time>2022-06-09T20:52:56Z</time>
      </trkpt>
      <trkpt lat="44.53296" lon="5.82356">
        <ele>820</ele>
        <time>2022-06-09T20:52:58Z</time>
      </trkpt>
      <trkpt lat="44.53211" lon="5.82378">
        <ele>814</ele>
        <time>2022-06-09T20:53:18Z</time>
      </trkpt>
      <trkpt lat="44.5318" lon="5.82389">
        <ele>813</ele>
        <time>2022-06-09T20:53:25Z</time>
      </trkpt>
      <trkpt lat="44.53118" lon="5.82406">
        <ele>811</ele>
        <time>2022-06-09T20:53:40Z</time>
      </trkpt>
      <trkpt lat="44.53042" lon="5.8241">
        <ele>809</ele>
        <time>2022-06-09T20:53:58Z</time>
      </trkpt>
      <trkpt lat="44.53032" lon="5.82414">
        <ele>809</ele>
        <time>2022-06-09T20:54:00Z</time>
      </trkpt>
      <trkpt lat="44.53018" lon="5.82415">
        <ele>809</ele>
        <time>2022-06-09T20:54:04Z</time>
      </trkpt>
      <trkpt lat="44.52854" lon="5.82477">
        <ele>808</ele>
        <time>2022-06-09T20:54:43Z</time>
      </trkpt>
      <trkpt lat="44.5283" lon="5.82483">
        <ele>808</ele>
        <time>2022-06-09T20:54:49Z</time>
      </trkpt>
      <trkpt lat="44.52815" lon="5.82484">
        <ele>810</ele>
        <time>2022-06-09T20:54:52Z</time>
      </trkpt>
      <trkpt lat="44.52808" lon="5.82476">
        <ele>810</ele>
        <time>2022-06-09T20:54:55Z</time>
      </trkpt>
      <trkpt lat="44.52796" lon="5.82451">
        <ele>810</ele>
        <time>2022-06-09T20:55:00Z</time>
      </trkpt>
      <trkpt lat="44.52784" lon="5.82433">
        <ele>810</ele>
        <time>2022-06-09T20:55:04Z</time>
      </trkpt>
      <trkpt lat="44.52774" lon="5.82408">
        <ele>809</ele>
        <time>2022-06-09T20:55:08Z</time>
      </trkpt>
      <trkpt lat="44.52738" lon="5.82343">
        <ele>809</ele>
        <time>2022-06-09T20:55:22Z</time>
      </trkpt>
      <trkpt lat="44.52734" lon="5.82332">
        <ele>809</ele>
        <time>2022-06-09T20:55:24Z</time>
      </trkpt>
      <trkpt lat="44.52676" lon="5.82242">
        <ele>805</ele>
        <time>2022-06-09T20:55:44Z</time>
      </trkpt>
      <trkpt lat="44.52541" lon="5.82021">
        <ele>808</ele>
        <time>2022-06-09T20:56:33Z</time>
      </trkpt>
      <trkpt lat="44.52523" lon="5.81988">
        <ele>807</ele>
        <time>2022-06-09T20:56:40Z</time>
      </trkpt>
      <trkpt lat="44.525" lon="5.81929">
        <ele>806</ele>
        <time>2022-06-09T20:56:51Z</time>
      </trkpt>
      <trkpt lat="44.52491" lon="5.81896">
        <ele>806</ele>
        <time>2022-06-09T20:56:57Z</time>
      </trkpt>
      <trkpt lat="44.52466" lon="5.81831">
        <ele>807</ele>
        <time>2022-06-09T20:57:09Z</time>
      </trkpt>
      <trkpt lat="44.52284" lon="5.81304">
        <ele>799</ele>
        <time>2022-06-09T20:58:47Z</time>
      </trkpt>
      <trkpt lat="44.52201" lon="5.81072">
        <ele>797</ele>
        <time>2022-06-09T20:59:30Z</time>
      </trkpt>
      <trkpt lat="44.52178" lon="5.80997">
        <ele>794</ele>
        <time>2022-06-09T20:59:44Z</time>
      </trkpt>
      <trkpt lat="44.52174" lon="5.80993">
        <ele>794</ele>
        <time>2022-06-09T20:59:45Z</time>
      </trkpt>
      <trkpt lat="44.52165" lon="5.8099">
        <ele>794</ele>
        <time>2022-06-09T20:59:47Z</time>
      </trkpt>
      <trkpt lat="44.52132" lon="5.81021">
        <ele>799</ele>
        <time>2022-06-09T20:59:56Z</time>
      </trkpt>
      <trkpt lat="44.52113" lon="5.81005">
        <ele>801</ele>
        <time>2022-06-09T21:00:01Z</time>
      </trkpt>
      <trkpt lat="44.52079" lon="5.80964">
        <ele>801</ele>
        <time>2022-06-09T21:00:12Z</time>
      </trkpt>
      <trkpt lat="44.52056" lon="5.80946">
        <ele>802</ele>
        <time>2022-06-09T21:00:18Z</time>
      </trkpt>
      <trkpt lat="44.52042" lon="5.80938">
        <ele>803</ele>
        <time>2022-06-09T21:00:21Z</time>
      </trkpt>
      <trkpt lat="44.52026" lon="5.80934">
        <ele>805</ele>
        <time>2022-06-09T21:00:25Z</time>
      </trkpt>
      <trkpt lat="44.52015" lon="5.80947">
        <ele>807</ele>
        <time>2022-06-09T21:00:29Z</time>
      </trkpt>
      <trkpt lat="44.52013" lon="5.80971">
        <ele>810</ele>
        <time>2022-06-09T21:00:33Z</time>
      </trkpt>
      <trkpt lat="44.52021" lon="5.80985">
        <ele>810</ele>
        <time>2022-06-09T21:00:36Z</time>
      </trkpt>
      <trkpt lat="44.52022" lon="5.80988">
        <ele>810</ele>
        <time>2022-06-09T21:00:36Z</time>
      </trkpt>
      <trkpt lat="44.5202" lon="5.80987">
        <ele>810</ele>
        <time>2022-06-09T21:00:37Z</time>
      </trkpt>
      <trkpt lat="44.5202" lon="5.80985">
        <ele>810</ele>
        <time>2022-06-09T21:00:37Z</time>
      </trkpt>
      <trkpt lat="44.5203" lon="5.8101">
        <ele>811</ele>
        <time>2022-06-09T21:00:42Z</time>
      </trkpt>
      <trkpt lat="44.52032" lon="5.81027">
        <ele>812</ele>
        <time>2022-06-09T21:00:45Z</time>
      </trkpt>
      <trkpt lat="44.52028" lon="5.81041">
        <ele>814</ele>
        <time>2022-06-09T21:00:47Z</time>
      </trkpt>
      <trkpt lat="44.52021" lon="5.81046">
        <ele>815</ele>
        <time>2022-06-09T21:00:49Z</time>
      </trkpt>
      <trkpt lat="44.52008" lon="5.81046">
        <ele>817</ele>
        <time>2022-06-09T21:00:52Z</time>
      </trkpt>
      <trkpt lat="44.51992" lon="5.81039">
        <ele>819</ele>
        <time>2022-06-09T21:00:56Z</time>
      </trkpt>
      <trkpt lat="44.51954" lon="5.81019">
        <ele>824</ele>
        <time>2022-06-09T21:01:05Z</time>
      </trkpt>
      <trkpt lat="44.51916" lon="5.80983">
        <ele>827</ele>
        <time>2022-06-09T21:01:16Z</time>
      </trkpt>
      <trkpt lat="44.51899" lon="5.80958">
        <ele>829</ele>
        <time>2022-06-09T21:01:22Z</time>
      </trkpt>
      <trkpt lat="44.51881" lon="5.80887">
        <ele>828</ele>
        <time>2022-06-09T21:01:34Z</time>
      </trkpt>
      <trkpt lat="44.51867" lon="5.80854">
        <ele>829</ele>
        <time>2022-06-09T21:01:41Z</time>
      </trkpt>
      <trkpt lat="44.51855" lon="5.80834">
        <ele>830</ele>
        <time>2022-06-09T21:01:45Z</time>
      </trkpt>
      <trkpt lat="44.51838" lon="5.80819">
        <ele>832</ele>
        <time>2022-06-09T21:01:50Z</time>
      </trkpt>
      <trkpt lat="44.51823" lon="5.80812">
        <ele>831</ele>
        <time>2022-06-09T21:01:54Z</time>
      </trkpt>
      <trkpt lat="44.51798" lon="5.80812">
        <ele>829</ele>
        <time>2022-06-09T21:01:59Z</time>
      </trkpt>
      <trkpt lat="44.51781" lon="5.80815">
        <ele>828</ele>
        <time>2022-06-09T21:02:03Z</time>
      </trkpt>
      <trkpt lat="44.51765" lon="5.80826">
        <ele>828</ele>
        <time>2022-06-09T21:02:08Z</time>
      </trkpt>
      <trkpt lat="44.51727" lon="5.80864">
        <ele>830</ele>
        <time>2022-06-09T21:02:18Z</time>
      </trkpt>
      <trkpt lat="44.51704" lon="5.8088">
        <ele>829</ele>
        <time>2022-06-09T21:02:24Z</time>
      </trkpt>
      <trkpt lat="44.51695" lon="5.80889">
        <ele>829</ele>
        <time>2022-06-09T21:02:27Z</time>
      </trkpt>
      <trkpt lat="44.51686" lon="5.80909">
        <ele>830</ele>
        <time>2022-06-09T21:02:31Z</time>
      </trkpt>
      <trkpt lat="44.51679" lon="5.80948">
        <ele>831</ele>
        <time>2022-06-09T21:02:38Z</time>
      </trkpt>
      <trkpt lat="44.51674" lon="5.80962">
        <ele>831</ele>
        <time>2022-06-09T21:02:40Z</time>
      </trkpt>
      <trkpt lat="44.51664" lon="5.8097">
        <ele>830</ele>
        <time>2022-06-09T21:02:43Z</time>
      </trkpt>
      <trkpt lat="44.51648" lon="5.80977">
        <ele>831</ele>
        <time>2022-06-09T21:02:47Z</time>
      </trkpt>
      <trkpt lat="44.51643" lon="5.80976">
        <ele>831</ele>
        <time>2022-06-09T21:02:48Z</time>
      </trkpt>
      <trkpt lat="44.51639" lon="5.80973">
        <ele>831</ele>
        <time>2022-06-09T21:02:49Z</time>
      </trkpt>
      <trkpt lat="44.51634" lon="5.80958">
        <ele>831</ele>
        <time>2022-06-09T21:02:52Z</time>
      </trkpt>
      <trkpt lat="44.5162" lon="5.80881">
        <ele>825</ele>
        <time>2022-06-09T21:03:05Z</time>
      </trkpt>
      <trkpt lat="44.51614" lon="5.80868">
        <ele>824</ele>
        <time>2022-06-09T21:03:08Z</time>
      </trkpt>
      <trkpt lat="44.51601" lon="5.80852">
        <ele>822</ele>
        <time>2022-06-09T21:03:12Z</time>
      </trkpt>
      <trkpt lat="44.51545" lon="5.80808">
        <ele>821</ele>
        <time>2022-06-09T21:03:27Z</time>
      </trkpt>
      <trkpt lat="44.51512" lon="5.80767">
        <ele>820</ele>
        <time>2022-06-09T21:03:37Z</time>
      </trkpt>
      <trkpt lat="44.51496" lon="5.80754">
        <ele>819</ele>
        <time>2022-06-09T21:03:41Z</time>
      </trkpt>
      <trkpt lat="44.51485" lon="5.8075">
        <ele>819</ele>
        <time>2022-06-09T21:03:44Z</time>
      </trkpt>
      <trkpt lat="44.51473" lon="5.8075">
        <ele>819</ele>
        <time>2022-06-09T21:03:47Z</time>
      </trkpt>
      <trkpt lat="44.51444" lon="5.80758">
        <ele>820</ele>
        <time>2022-06-09T21:03:54Z</time>
      </trkpt>
      <trkpt lat="44.51427" lon="5.80755">
        <ele>819</ele>
        <time>2022-06-09T21:03:58Z</time>
      </trkpt>
      <trkpt lat="44.51414" lon="5.8074">
        <ele>820</ele>
        <time>2022-06-09T21:04:02Z</time>
      </trkpt>
      <trkpt lat="44.51403" lon="5.8071">
        <ele>822</ele>
        <time>2022-06-09T21:04:07Z</time>
      </trkpt>
      <trkpt lat="44.51395" lon="5.807">
        <ele>824</ele>
        <time>2022-06-09T21:04:10Z</time>
      </trkpt>
      <trkpt lat="44.51382" lon="5.80701">
        <ele>825</ele>
        <time>2022-06-09T21:04:13Z</time>
      </trkpt>
      <trkpt lat="44.51365" lon="5.80709">
        <ele>826</ele>
        <time>2022-06-09T21:04:17Z</time>
      </trkpt>
      <trkpt lat="44.51346" lon="5.80726">
        <ele>826</ele>
        <time>2022-06-09T21:04:22Z</time>
      </trkpt>
      <trkpt lat="44.51328" lon="5.80737">
        <ele>827</ele>
        <time>2022-06-09T21:04:27Z</time>
      </trkpt>
      <trkpt lat="44.51298" lon="5.80761">
        <ele>829</ele>
        <time>2022-06-09T21:04:35Z</time>
      </trkpt>
      <trkpt lat="44.51269" lon="5.80776">
        <ele>832</ele>
        <time>2022-06-09T21:04:42Z</time>
      </trkpt>
      <trkpt lat="44.5124" lon="5.80798">
        <ele>833</ele>
        <time>2022-06-09T21:04:50Z</time>
      </trkpt>
      <trkpt lat="44.51227" lon="5.80815">
        <ele>833</ele>
        <time>2022-06-09T21:04:54Z</time>
      </trkpt>
      <trkpt lat="44.51199" lon="5.80869">
        <ele>837</ele>
        <time>2022-06-09T21:05:05Z</time>
      </trkpt>
      <trkpt lat="44.51193" lon="5.80901">
        <ele>840</ele>
        <time>2022-06-09T21:05:11Z</time>
      </trkpt>
      <trkpt lat="44.51195" lon="5.80919">
        <ele>840</ele>
        <time>2022-06-09T21:05:14Z</time>
      </trkpt>
      <trkpt lat="44.512" lon="5.80936">
        <ele>841</ele>
        <time>2022-06-09T21:05:17Z</time>
      </trkpt>
      <trkpt lat="44.51217" lon="5.80982">
        <ele>840</ele>
        <time>2022-06-09T21:05:25Z</time>
      </trkpt>
      <trkpt lat="44.51218" lon="5.80998">
        <ele>841</ele>
        <time>2022-06-09T21:05:28Z</time>
      </trkpt>
      <trkpt lat="44.51213" lon="5.81024">
        <ele>841</ele>
        <time>2022-06-09T21:05:32Z</time>
      </trkpt>
      <trkpt lat="44.51166" lon="5.81101">
        <ele>848</ele>
        <time>2022-06-09T21:05:49Z</time>
      </trkpt>
      <trkpt lat="44.51143" lon="5.8115">
        <ele>851</ele>
        <time>2022-06-09T21:05:59Z</time>
      </trkpt>
      <trkpt lat="44.51108" lon="5.81204">
        <ele>855</ele>
        <time>2022-06-09T21:06:11Z</time>
      </trkpt>
      <trkpt lat="44.51092" lon="5.81219">
        <ele>855</ele>
        <time>2022-06-09T21:06:16Z</time>
      </trkpt>
      <trkpt lat="44.51012" lon="5.81273">
        <ele>869</ele>
        <time>2022-06-09T21:06:36Z</time>
      </trkpt>
      <trkpt lat="44.50988" lon="5.81308">
        <ele>869</ele>
        <time>2022-06-09T21:06:45Z</time>
      </trkpt>
      <trkpt lat="44.50974" lon="5.81339">
        <ele>867</ele>
        <time>2022-06-09T21:06:51Z</time>
      </trkpt>
      <trkpt lat="44.50965" lon="5.81368">
        <ele>868</ele>
        <time>2022-06-09T21:06:56Z</time>
      </trkpt>
      <trkpt lat="44.50941" lon="5.81404">
        <ele>867</ele>
        <time>2022-06-09T21:07:04Z</time>
      </trkpt>
      <trkpt lat="44.50931" lon="5.81411">
        <ele>867</ele>
        <time>2022-06-09T21:07:07Z</time>
      </trkpt>
      <trkpt lat="44.50918" lon="5.81408">
        <ele>868</ele>
        <time>2022-06-09T21:07:10Z</time>
      </trkpt>
      <trkpt lat="44.5088" lon="5.81383">
        <ele>875</ele>
        <time>2022-06-09T21:07:20Z</time>
      </trkpt>
      <trkpt lat="44.50846" lon="5.81366">
        <ele>879</ele>
        <time>2022-06-09T21:07:28Z</time>
      </trkpt>
      <trkpt lat="44.50812" lon="5.81331">
        <ele>880</ele>
        <time>2022-06-09T21:07:38Z</time>
      </trkpt>
      <trkpt lat="44.50769" lon="5.81313">
        <ele>880</ele>
        <time>2022-06-09T21:07:48Z</time>
      </trkpt>
      <trkpt lat="44.50763" lon="5.81317">
        <ele>879</ele>
        <time>2022-06-09T21:07:50Z</time>
      </trkpt>
      <trkpt lat="44.50751" lon="5.81344">
        <ele>878</ele>
        <time>2022-06-09T21:07:55Z</time>
      </trkpt>
      <trkpt lat="44.50747" lon="5.81346">
        <ele>879</ele>
        <time>2022-06-09T21:07:56Z</time>
      </trkpt>
      <trkpt lat="44.50727" lon="5.81346">
        <ele>881</ele>
        <time>2022-06-09T21:08:01Z</time>
      </trkpt>
      <trkpt lat="44.50718" lon="5.8135">
        <ele>882</ele>
        <time>2022-06-09T21:08:03Z</time>
      </trkpt>
      <trkpt lat="44.50699" lon="5.81365">
        <ele>885</ele>
        <time>2022-06-09T21:08:08Z</time>
      </trkpt>
      <trkpt lat="44.50673" lon="5.81379">
        <ele>888</ele>
        <time>2022-06-09T21:08:15Z</time>
      </trkpt>
      <trkpt lat="44.50661" lon="5.81392">
        <ele>889</ele>
        <time>2022-06-09T21:08:18Z</time>
      </trkpt>
      <trkpt lat="44.50653" lon="5.81418">
        <ele>890</ele>
        <time>2022-06-09T21:08:23Z</time>
      </trkpt>
      <trkpt lat="44.50634" lon="5.81441">
        <ele>896</ele>
        <time>2022-06-09T21:08:29Z</time>
      </trkpt>
      <trkpt lat="44.50624" lon="5.81472">
        <ele>900</ele>
        <time>2022-06-09T21:08:34Z</time>
      </trkpt>
      <trkpt lat="44.50606" lon="5.81492">
        <ele>900</ele>
        <time>2022-06-09T21:08:40Z</time>
      </trkpt>
      <trkpt lat="44.50578" lon="5.81536">
        <ele>906</ele>
        <time>2022-06-09T21:08:50Z</time>
      </trkpt>
      <trkpt lat="44.50562" lon="5.81551">
        <ele>909</ele>
        <time>2022-06-09T21:08:54Z</time>
      </trkpt>
      <trkpt lat="44.50549" lon="5.81555">
        <ele>910</ele>
        <time>2022-06-09T21:08:57Z</time>
      </trkpt>
      <trkpt lat="44.50539" lon="5.81562">
        <ele>910</ele>
        <time>2022-06-09T21:09:00Z</time>
      </trkpt>
      <trkpt lat="44.5053" lon="5.8157">
        <ele>910</ele>
        <time>2022-06-09T21:09:02Z</time>
      </trkpt>
      <trkpt lat="44.50527" lon="5.81576">
        <ele>910</ele>
        <time>2022-06-09T21:09:04Z</time>
      </trkpt>
      <trkpt lat="44.50513" lon="5.81582">
        <ele>909</ele>
        <time>2022-06-09T21:09:07Z</time>
      </trkpt>
      <trkpt lat="44.50503" lon="5.81592">
        <ele>910</ele>
        <time>2022-06-09T21:09:10Z</time>
      </trkpt>
      <trkpt lat="44.50479" lon="5.81644">
        <ele>922</ele>
        <time>2022-06-09T21:09:20Z</time>
      </trkpt>
      <trkpt lat="44.50468" lon="5.81655">
        <ele>924</ele>
        <time>2022-06-09T21:09:23Z</time>
      </trkpt>
      <trkpt lat="44.50457" lon="5.81662">
        <ele>924</ele>
        <time>2022-06-09T21:09:26Z</time>
      </trkpt>
      <trkpt lat="44.50442" lon="5.8168">
        <ele>925</ele>
        <time>2022-06-09T21:09:31Z</time>
      </trkpt>
      <trkpt lat="44.50434" lon="5.81695">
        <ele>926</ele>
        <time>2022-06-09T21:09:34Z</time>
      </trkpt>
      <trkpt lat="44.5043" lon="5.81698">
        <ele>926</ele>
        <time>2022-06-09T21:09:35Z</time>
      </trkpt>
      <trkpt lat="44.5042" lon="5.81699">
        <ele>925</ele>
        <time>2022-06-09T21:09:37Z</time>
      </trkpt>
      <trkpt lat="44.5041" lon="5.81706">
        <ele>927</ele>
        <time>2022-06-09T21:09:40Z</time>
      </trkpt>
      <trkpt lat="44.50395" lon="5.81725">
        <ele>931</ele>
        <time>2022-06-09T21:09:45Z</time>
      </trkpt>
      <trkpt lat="44.50362" lon="5.81779">
        <ele>939</ele>
        <time>2022-06-09T21:09:56Z</time>
      </trkpt>
      <trkpt lat="44.5035" lon="5.81805">
        <ele>941</ele>
        <time>2022-06-09T21:10:02Z</time>
      </trkpt>
      <trkpt lat="44.50334" lon="5.81827">
        <ele>941</ele>
        <time>2022-06-09T21:10:07Z</time>
      </trkpt>
      <trkpt lat="44.50331" lon="5.81865">
        <ele>944</ele>
        <time>2022-06-09T21:10:13Z</time>
      </trkpt>
      <trkpt lat="44.50335" lon="5.81893">
        <ele>947</ele>
        <time>2022-06-09T21:10:18Z</time>
      </trkpt>
      <trkpt lat="44.50328" lon="5.81907">
        <ele>948</ele>
        <time>2022-06-09T21:10:21Z</time>
      </trkpt>
      <trkpt lat="44.50306" lon="5.81935">
        <ele>950</ele>
        <time>2022-06-09T21:10:28Z</time>
      </trkpt>
      <trkpt lat="44.503" lon="5.81946">
        <ele>950</ele>
        <time>2022-06-09T21:10:30Z</time>
      </trkpt>
      <trkpt lat="44.50295" lon="5.8195">
        <ele>950</ele>
        <time>2022-06-09T21:10:31Z</time>
      </trkpt>
      <trkpt lat="44.50279" lon="5.81994">
        <ele>948</ele>
        <time>2022-06-09T21:10:40Z</time>
      </trkpt>
      <trkpt lat="44.50273" lon="5.82002">
        <ele>947</ele>
        <time>2022-06-09T21:10:42Z</time>
      </trkpt>
      <trkpt lat="44.50275" lon="5.82007">
        <ele>948</ele>
        <time>2022-06-09T21:10:43Z</time>
      </trkpt>
      <trkpt lat="44.50275" lon="5.82004">
        <ele>948</ele>
        <time>2022-06-09T21:10:43Z</time>
      </trkpt>
      <trkpt lat="44.50263" lon="5.82012">
        <ele>947</ele>
        <time>2022-06-09T21:10:46Z</time>
      </trkpt>
      <trkpt lat="44.5022" lon="5.82025">
        <ele>943</ele>
        <time>2022-06-09T21:10:56Z</time>
      </trkpt>
      <trkpt lat="44.50142" lon="5.82056">
        <ele>938</ele>
        <time>2022-06-09T21:11:15Z</time>
      </trkpt>
      <trkpt lat="44.5007" lon="5.82051">
        <ele>932</ele>
        <time>2022-06-09T21:11:32Z</time>
      </trkpt>
      <trkpt lat="44.50054" lon="5.82046">
        <ele>931</ele>
        <time>2022-06-09T21:11:36Z</time>
      </trkpt>
      <trkpt lat="44.50013" lon="5.82026">
        <ele>927</ele>
        <time>2022-06-09T21:11:46Z</time>
      </trkpt>
      <trkpt lat="44.49989" lon="5.8202">
        <ele>924</ele>
        <time>2022-06-09T21:11:52Z</time>
      </trkpt>
      <trkpt lat="44.4998" lon="5.82021">
        <ele>923</ele>
        <time>2022-06-09T21:11:54Z</time>
      </trkpt>
      <trkpt lat="44.4997" lon="5.82025">
        <ele>923</ele>
        <time>2022-06-09T21:11:56Z</time>
      </trkpt>
      <trkpt lat="44.49953" lon="5.82038">
        <ele>923</ele>
        <time>2022-06-09T21:12:01Z</time>
      </trkpt>
      <trkpt lat="44.49925" lon="5.8207">
        <ele>924</ele>
        <time>2022-06-09T21:12:09Z</time>
      </trkpt>
      <trkpt lat="44.49824" lon="5.8214">
        <ele>917</ele>
        <time>2022-06-09T21:12:36Z</time>
      </trkpt>
      <trkpt lat="44.4977" lon="5.82145">
        <ele>909</ele>
        <time>2022-06-09T21:12:48Z</time>
      </trkpt>
      <trkpt lat="44.49751" lon="5.82152">
        <ele>907</ele>
        <time>2022-06-09T21:12:53Z</time>
      </trkpt>
      <trkpt lat="44.49702" lon="5.82177">
        <ele>901</ele>
        <time>2022-06-09T21:13:05Z</time>
      </trkpt>
      <trkpt lat="44.49693" lon="5.82184">
        <ele>900</ele>
        <time>2022-06-09T21:13:07Z</time>
      </trkpt>
      <trkpt lat="44.49676" lon="5.82222">
        <ele>900</ele>
        <time>2022-06-09T21:13:15Z</time>
      </trkpt>
      <trkpt lat="44.49624" lon="5.82263">
        <ele>896</ele>
        <time>2022-06-09T21:13:29Z</time>
      </trkpt>
      <trkpt lat="44.49618" lon="5.8227">
        <ele>896</ele>
        <time>2022-06-09T21:13:31Z</time>
      </trkpt>
      <trkpt lat="44.49622" lon="5.82291">
        <ele>894</ele>
        <time>2022-06-09T21:13:34Z</time>
      </trkpt>
      <trkpt lat="44.49648" lon="5.82319">
        <ele>895</ele>
        <time>2022-06-09T21:13:42Z</time>
      </trkpt>
      <trkpt lat="44.49651" lon="5.8233">
        <ele>895</ele>
        <time>2022-06-09T21:13:44Z</time>
      </trkpt>
      <trkpt lat="44.49649" lon="5.82342">
        <ele>895</ele>
        <time>2022-06-09T21:13:46Z</time>
      </trkpt>
      <trkpt lat="44.49384" lon="5.82604">
        <ele>877</ele>
        <time>2022-06-09T21:15:02Z</time>
      </trkpt>
      <trkpt lat="44.49366" lon="5.82628">
        <ele>876</ele>
        <time>2022-06-09T21:15:08Z</time>
      </trkpt>
      <trkpt lat="44.49352" lon="5.82674">
        <ele>874</ele>
        <time>2022-06-09T21:15:16Z</time>
      </trkpt>
      <trkpt lat="44.49346" lon="5.82684">
        <ele>875</ele>
        <time>2022-06-09T21:15:18Z</time>
      </trkpt>
      <trkpt lat="44.49324" lon="5.82704">
        <ele>875</ele>
        <time>2022-06-09T21:15:24Z</time>
      </trkpt>
      <trkpt lat="44.49304" lon="5.82713">
        <ele>873</ele>
        <time>2022-06-09T21:15:29Z</time>
      </trkpt>
      <trkpt lat="44.49295" lon="5.82722">
        <ele>873</ele>
        <time>2022-06-09T21:15:32Z</time>
      </trkpt>
      <trkpt lat="44.49264" lon="5.82768">
        <ele>871</ele>
        <time>2022-06-09T21:15:42Z</time>
      </trkpt>
      <trkpt lat="44.49255" lon="5.82786">
        <ele>870</ele>
        <time>2022-06-09T21:15:46Z</time>
      </trkpt>
      <trkpt lat="44.49247" lon="5.82814">
        <ele>869</ele>
        <time>2022-06-09T21:15:51Z</time>
      </trkpt>
      <trkpt lat="44.49244" lon="5.82835">
        <ele>869</ele>
        <time>2022-06-09T21:15:54Z</time>
      </trkpt>
      <trkpt lat="44.49246" lon="5.82878">
        <ele>871</ele>
        <time>2022-06-09T21:16:02Z</time>
      </trkpt>
      <trkpt lat="44.49243" lon="5.82903">
        <ele>871</ele>
        <time>2022-06-09T21:16:06Z</time>
      </trkpt>
      <trkpt lat="44.49236" lon="5.82913">
        <ele>871</ele>
        <time>2022-06-09T21:16:08Z</time>
      </trkpt>
      <trkpt lat="44.49226" lon="5.82921">
        <ele>872</ele>
        <time>2022-06-09T21:16:11Z</time>
      </trkpt>
      <trkpt lat="44.49202" lon="5.82932">
        <ele>872</ele>
        <time>2022-06-09T21:16:17Z</time>
      </trkpt>
      <trkpt lat="44.49179" lon="5.82968">
        <ele>875</ele>
        <time>2022-06-09T21:16:25Z</time>
      </trkpt>
      <trkpt lat="44.49172" lon="5.83001">
        <ele>878</ele>
        <time>2022-06-09T21:16:31Z</time>
      </trkpt>
      <trkpt lat="44.49145" lon="5.8309">
        <ele>882</ele>
        <time>2022-06-09T21:16:47Z</time>
      </trkpt>
      <trkpt lat="44.49143" lon="5.83106">
        <ele>882</ele>
        <time>2022-06-09T21:16:49Z</time>
      </trkpt>
      <trkpt lat="44.49145" lon="5.83136">
        <ele>882</ele>
        <time>2022-06-09T21:16:54Z</time>
      </trkpt>
      <trkpt lat="44.49149" lon="5.83149">
        <ele>883</ele>
        <time>2022-06-09T21:16:57Z</time>
      </trkpt>
      <trkpt lat="44.4921" lon="5.83239">
        <ele>889</ele>
        <time>2022-06-09T21:17:17Z</time>
      </trkpt>
      <trkpt lat="44.49239" lon="5.83288">
        <ele>891</ele>
        <time>2022-06-09T21:17:28Z</time>
      </trkpt>
      <trkpt lat="44.49251" lon="5.83313">
        <ele>891</ele>
        <time>2022-06-09T21:17:33Z</time>
      </trkpt>
      <trkpt lat="44.49255" lon="5.83368">
        <ele>891</ele>
        <time>2022-06-09T21:17:42Z</time>
      </trkpt>
      <trkpt lat="44.49255" lon="5.83451">
        <ele>891</ele>
        <time>2022-06-09T21:17:56Z</time>
      </trkpt>
      <trkpt lat="44.49259" lon="5.83495">
        <ele>892</ele>
        <time>2022-06-09T21:18:03Z</time>
      </trkpt>
      <trkpt lat="44.49281" lon="5.8361">
        <ele>894</ele>
        <time>2022-06-09T21:18:23Z</time>
      </trkpt>
      <trkpt lat="44.49319" lon="5.83774">
        <ele>904</ele>
        <time>2022-06-09T21:18:52Z</time>
      </trkpt>
      <trkpt lat="44.4934" lon="5.83857">
        <ele>908</ele>
        <time>2022-06-09T21:19:07Z</time>
      </trkpt>
      <trkpt lat="44.49345" lon="5.83869">
        <ele>909</ele>
        <time>2022-06-09T21:19:09Z</time>
      </trkpt>
      <trkpt lat="44.49351" lon="5.83904">
        <ele>910</ele>
        <time>2022-06-09T21:19:15Z</time>
      </trkpt>
      <trkpt lat="44.49412" lon="5.84051">
        <ele>915</ele>
        <time>2022-06-09T21:19:43Z</time>
      </trkpt>
      <trkpt lat="44.49448" lon="5.84116">
        <ele>917</ele>
        <time>2022-06-09T21:19:57Z</time>
      </trkpt>
      <trkpt lat="44.49485" lon="5.842">
        <ele>920</ele>
        <time>2022-06-09T21:20:13Z</time>
      </trkpt>
      <trkpt lat="44.49499" lon="5.84224">
        <ele>921</ele>
        <time>2022-06-09T21:20:19Z</time>
      </trkpt>
      <trkpt lat="44.49519" lon="5.84249">
        <ele>922</ele>
        <time>2022-06-09T21:20:25Z</time>
      </trkpt>
      <trkpt lat="44.49529" lon="5.8427">
        <ele>923</ele>
        <time>2022-06-09T21:20:29Z</time>
      </trkpt>
      <trkpt lat="44.49534" lon="5.84292">
        <ele>923</ele>
        <time>2022-06-09T21:20:33Z</time>
      </trkpt>
      <trkpt lat="44.4953" lon="5.84321">
        <ele>923</ele>
        <time>2022-06-09T21:20:38Z</time>
      </trkpt>
      <trkpt lat="44.49512" lon="5.84371">
        <ele>923</ele>
        <time>2022-06-09T21:20:47Z</time>
      </trkpt>
      <trkpt lat="44.49505" lon="5.84408">
        <ele>923</ele>
        <time>2022-06-09T21:20:54Z</time>
      </trkpt>
      <trkpt lat="44.49504" lon="5.84434">
        <ele>924</ele>
        <time>2022-06-09T21:20:58Z</time>
      </trkpt>
      <trkpt lat="44.49507" lon="5.84472">
        <ele>927</ele>
        <time>2022-06-09T21:21:04Z</time>
      </trkpt>
      <trkpt lat="44.49512" lon="5.84496">
        <ele>929</ele>
        <time>2022-06-09T21:21:08Z</time>
      </trkpt>
      <trkpt lat="44.49522" lon="5.84514">
        <ele>930</ele>
        <time>2022-06-09T21:21:12Z</time>
      </trkpt>
      <trkpt lat="44.49534" lon="5.84526">
        <ele>931</ele>
        <time>2022-06-09T21:21:16Z</time>
      </trkpt>
      <trkpt lat="44.4955" lon="5.84533">
        <ele>932</ele>
        <time>2022-06-09T21:21:20Z</time>
      </trkpt>
      <trkpt lat="44.49555" lon="5.84539">
        <ele>932</ele>
        <time>2022-06-09T21:21:21Z</time>
      </trkpt>
      <trkpt lat="44.49565" lon="5.84595">
        <ele>935</ele>
        <time>2022-06-09T21:21:31Z</time>
      </trkpt>
      <trkpt lat="44.49579" lon="5.84644">
        <ele>938</ele>
        <time>2022-06-09T21:21:40Z</time>
      </trkpt>
      <trkpt lat="44.49584" lon="5.84654">
        <ele>939</ele>
        <time>2022-06-09T21:21:42Z</time>
      </trkpt>
      <trkpt lat="44.4959" lon="5.84685">
        <ele>941</ele>
        <time>2022-06-09T21:21:47Z</time>
      </trkpt>
      <trkpt lat="44.49584" lon="5.84692">
        <ele>941</ele>
        <time>2022-06-09T21:21:49Z</time>
      </trkpt>
      <trkpt lat="44.49554" lon="5.847">
        <ele>942</ele>
        <time>2022-06-09T21:21:56Z</time>
      </trkpt>
      <trkpt lat="44.49549" lon="5.84705">
        <ele>942</ele>
        <time>2022-06-09T21:21:57Z</time>
      </trkpt>
      <trkpt lat="44.49548" lon="5.8471">
        <ele>942</ele>
        <time>2022-06-09T21:21:58Z</time>
      </trkpt>
      <trkpt lat="44.49539" lon="5.84693">
        <ele>941</ele>
        <time>2022-06-09T21:22:02Z</time>
      </trkpt>
      <trkpt lat="44.49528" lon="5.84698">
        <ele>942</ele>
        <time>2022-06-09T21:22:04Z</time>
      </trkpt>
      <trkpt lat="44.49519" lon="5.84706">
        <ele>942</ele>
        <time>2022-06-09T21:22:07Z</time>
      </trkpt>
      <trkpt lat="44.49513" lon="5.84716">
        <ele>942</ele>
        <time>2022-06-09T21:22:09Z</time>
      </trkpt>
      <trkpt lat="44.49513" lon="5.84729">
        <ele>943</ele>
        <time>2022-06-09T21:22:11Z</time>
      </trkpt>
      <trkpt lat="44.49524" lon="5.84712">
        <ele>942</ele>
        <time>2022-06-09T21:22:15Z</time>
      </trkpt>
      <trkpt lat="44.49546" lon="5.84695">
        <ele>941</ele>
        <time>2022-06-09T21:22:21Z</time>
      </trkpt>
      <trkpt lat="44.49542" lon="5.84699">
        <ele>942</ele>
        <time>2022-06-09T21:22:22Z</time>
      </trkpt>
      <trkpt lat="44.49523" lon="5.84705">
        <ele>942</ele>
        <time>2022-06-09T21:22:27Z</time>
      </trkpt>
      <trkpt lat="44.49511" lon="5.84725">
        <ele>943</ele>
        <time>2022-06-09T21:22:31Z</time>
      </trkpt>
      <trkpt lat="44.49512" lon="5.84763">
        <ele>945</ele>
        <time>2022-06-09T21:22:37Z</time>
      </trkpt>
      <trkpt lat="44.49509" lon="5.84784">
        <ele>947</ele>
        <time>2022-06-09T21:22:41Z</time>
      </trkpt>
      <trkpt lat="44.49518" lon="5.84841">
        <ele>952</ele>
        <time>2022-06-09T21:22:51Z</time>
      </trkpt>
      <trkpt lat="44.49512" lon="5.84851">
        <ele>953</ele>
        <time>2022-06-09T21:22:53Z</time>
      </trkpt>
      <trkpt lat="44.49506" lon="5.84875">
        <ele>955</ele>
        <time>2022-06-09T21:22:57Z</time>
      </trkpt>
      <trkpt lat="44.49493" lon="5.84895">
        <ele>958</ele>
        <time>2022-06-09T21:23:02Z</time>
      </trkpt>
      <trkpt lat="44.49462" lon="5.84929">
        <ele>966</ele>
        <time>2022-06-09T21:23:11Z</time>
      </trkpt>
      <trkpt lat="44.49442" lon="5.84947">
        <ele>969</ele>
        <time>2022-06-09T21:23:16Z</time>
      </trkpt>
      <trkpt lat="44.49422" lon="5.84959">
        <ele>971</ele>
        <time>2022-06-09T21:23:21Z</time>
      </trkpt>
      <trkpt lat="44.49418" lon="5.84964">
        <ele>971</ele>
        <time>2022-06-09T21:23:23Z</time>
      </trkpt>
      <trkpt lat="44.49406" lon="5.84993">
        <ele>972</ele>
        <time>2022-06-09T21:23:28Z</time>
      </trkpt>
      <trkpt lat="44.49401" lon="5.85027">
        <ele>975</ele>
        <time>2022-06-09T21:23:34Z</time>
      </trkpt>
      <trkpt lat="44.49389" lon="5.85055">
        <ele>979</ele>
        <time>2022-06-09T21:23:39Z</time>
      </trkpt>
      <trkpt lat="44.49364" lon="5.85084">
        <ele>984</ele>
        <time>2022-06-09T21:23:47Z</time>
      </trkpt>
      <trkpt lat="44.49357" lon="5.85088">
        <ele>985</ele>
        <time>2022-06-09T21:23:49Z</time>
      </trkpt>
      <trkpt lat="44.49339" lon="5.85107">
        <ele>989</ele>
        <time>2022-06-09T21:23:54Z</time>
      </trkpt>
      <trkpt lat="44.49316" lon="5.85114">
        <ele>998</ele>
        <time>2022-06-09T21:24:00Z</time>
      </trkpt>
      <trkpt lat="44.49308" lon="5.85132">
        <ele>1002</ele>
        <time>2022-06-09T21:24:03Z</time>
      </trkpt>
      <trkpt lat="44.493" lon="5.85159">
        <ele>1006</ele>
        <time>2022-06-09T21:24:08Z</time>
      </trkpt>
      <trkpt lat="44.49288" lon="5.85179">
        <ele>1011</ele>
        <time>2022-06-09T21:24:12Z</time>
      </trkpt>
      <trkpt lat="44.49285" lon="5.85193">
        <ele>1014</ele>
        <time>2022-06-09T21:24:15Z</time>
      </trkpt>
      <trkpt lat="44.49288" lon="5.85201">
        <ele>1015</ele>
        <time>2022-06-09T21:24:16Z</time>
      </trkpt>
      <trkpt lat="44.4931" lon="5.85209">
        <ele>1013</ele>
        <time>2022-06-09T21:24:22Z</time>
      </trkpt>
      <trkpt lat="44.49314" lon="5.85209">
        <ele>1013</ele>
        <time>2022-06-09T21:24:22Z</time>
      </trkpt>
      <trkpt lat="44.49322" lon="5.85203">
        <ele>1010</ele>
        <time>2022-06-09T21:24:25Z</time>
      </trkpt>
      <trkpt lat="44.49326" lon="5.85207">
        <ele>1011</ele>
        <time>2022-06-09T21:24:26Z</time>
      </trkpt>
      <trkpt lat="44.49326" lon="5.85212">
        <ele>1012</ele>
        <time>2022-06-09T21:24:27Z</time>
      </trkpt>
      <trkpt lat="44.49317" lon="5.85219">
        <ele>1015</ele>
        <time>2022-06-09T21:24:29Z</time>
      </trkpt>
      <trkpt lat="44.49297" lon="5.85245">
        <ele>1021</ele>
        <time>2022-06-09T21:24:35Z</time>
      </trkpt>
      <trkpt lat="44.49288" lon="5.85247">
        <ele>1021</ele>
        <time>2022-06-09T21:24:37Z</time>
      </trkpt>
      <trkpt lat="44.49278" lon="5.85254">
        <ele>1023</ele>
        <time>2022-06-09T21:24:40Z</time>
      </trkpt>
      <trkpt lat="44.49274" lon="5.8527">
        <ele>1027</ele>
        <time>2022-06-09T21:24:43Z</time>
      </trkpt>
      <trkpt lat="44.49279" lon="5.85279">
        <ele>1029</ele>
        <time>2022-06-09T21:24:45Z</time>
      </trkpt>
      <trkpt lat="44.49285" lon="5.85282">
        <ele>1031</ele>
        <time>2022-06-09T21:24:46Z</time>
      </trkpt>
      <trkpt lat="44.49305" lon="5.85283">
        <ele>1033</ele>
        <time>2022-06-09T21:24:51Z</time>
      </trkpt>
      <trkpt lat="44.49322" lon="5.85271">
        <ele>1030</ele>
        <time>2022-06-09T21:24:55Z</time>
      </trkpt>
      <trkpt lat="44.49336" lon="5.85268">
        <ele>1030</ele>
        <time>2022-06-09T21:24:59Z</time>
      </trkpt>
      <trkpt lat="44.49355" lon="5.85251">
        <ele>1024</ele>
        <time>2022-06-09T21:25:04Z</time>
      </trkpt>
      <trkpt lat="44.49359" lon="5.85254">
        <ele>1026</ele>
        <time>2022-06-09T21:25:05Z</time>
      </trkpt>
      <trkpt lat="44.49357" lon="5.85262">
        <ele>1029</ele>
        <time>2022-06-09T21:25:06Z</time>
      </trkpt>
      <trkpt lat="44.49336" lon="5.85282">
        <ele>1035</ele>
        <time>2022-06-09T21:25:12Z</time>
      </trkpt>
      <trkpt lat="44.4933" lon="5.85294">
        <ele>1039</ele>
        <time>2022-06-09T21:25:15Z</time>
      </trkpt>
      <trkpt lat="44.49325" lon="5.85297">
        <ele>1039</ele>
        <time>2022-06-09T21:25:16Z</time>
      </trkpt>
      <trkpt lat="44.49308" lon="5.85323">
        <ele>1046</ele>
        <time>2022-06-09T21:25:22Z</time>
      </trkpt>
      <trkpt lat="44.49307" lon="5.85331">
        <ele>1048</ele>
        <time>2022-06-09T21:25:23Z</time>
      </trkpt>
      <trkpt lat="44.49294" lon="5.85351">
        <ele>1054</ele>
        <time>2022-06-09T21:25:28Z</time>
      </trkpt>
      <trkpt lat="44.49275" lon="5.8537">
        <ele>1058</ele>
        <time>2022-06-09T21:25:33Z</time>
      </trkpt>
      <trkpt lat="44.49269" lon="5.85385">
        <ele>1063</ele>
        <time>2022-06-09T21:25:36Z</time>
      </trkpt>
      <trkpt lat="44.49251" lon="5.85406">
        <ele>1067</ele>
        <time>2022-06-09T21:25:42Z</time>
      </trkpt>
      <trkpt lat="44.49242" lon="5.85408">
        <ele>1067</ele>
        <time>2022-06-09T21:25:44Z</time>
      </trkpt>
      <trkpt lat="44.49231" lon="5.85398">
        <ele>1064</ele>
        <time>2022-06-09T21:25:47Z</time>
      </trkpt>
      <trkpt lat="44.49224" lon="5.85398">
        <ele>1063</ele>
        <time>2022-06-09T21:25:48Z</time>
      </trkpt>
      <trkpt lat="44.49216" lon="5.85403">
        <ele>1065</ele>
        <time>2022-06-09T21:25:50Z</time>
      </trkpt>
      <trkpt lat="44.49185" lon="5.85413">
        <ele>1067</ele>
        <time>2022-06-09T21:25:58Z</time>
      </trkpt>
      <trkpt lat="44.49163" lon="5.85427">
        <ele>1071</ele>
        <time>2022-06-09T21:26:04Z</time>
      </trkpt>
      <trkpt lat="44.49144" lon="5.8542">
        <ele>1071</ele>
        <time>2022-06-09T21:26:08Z</time>
      </trkpt>
      <trkpt lat="44.49135" lon="5.85422">
        <ele>1073</ele>
        <time>2022-06-09T21:26:10Z</time>
      </trkpt>
      <trkpt lat="44.49115" lon="5.85422">
        <ele>1076</ele>
        <time>2022-06-09T21:26:15Z</time>
      </trkpt>
      <trkpt lat="44.49103" lon="5.85419">
        <ele>1077</ele>
        <time>2022-06-09T21:26:18Z</time>
      </trkpt>
      <trkpt lat="44.49092" lon="5.85421">
        <ele>1079</ele>
        <time>2022-06-09T21:26:20Z</time>
      </trkpt>
      <trkpt lat="44.49087" lon="5.85428">
        <ele>1081</ele>
        <time>2022-06-09T21:26:22Z</time>
      </trkpt>
      <trkpt lat="44.49075" lon="5.8543">
        <ele>1083</ele>
        <time>2022-06-09T21:26:25Z</time>
      </trkpt>
      <trkpt lat="44.49068" lon="5.85439">
        <ele>1085</ele>
        <time>2022-06-09T21:26:27Z</time>
      </trkpt>
      <trkpt lat="44.49056" lon="5.85447">
        <ele>1088</ele>
        <time>2022-06-09T21:26:30Z</time>
      </trkpt>
      <trkpt lat="44.49046" lon="5.85449">
        <ele>1089</ele>
        <time>2022-06-09T21:26:33Z</time>
      </trkpt>
      <trkpt lat="44.49034" lon="5.85461">
        <ele>1091</ele>
        <time>2022-06-09T21:26:36Z</time>
      </trkpt>
      <trkpt lat="44.49032" lon="5.85467">
        <ele>1092</ele>
        <time>2022-06-09T21:26:37Z</time>
      </trkpt>
      <trkpt lat="44.49022" lon="5.85475">
        <ele>1093</ele>
        <time>2022-06-09T21:26:40Z</time>
      </trkpt>
      <trkpt lat="44.49009" lon="5.85498">
        <ele>1095</ele>
        <time>2022-06-09T21:26:45Z</time>
      </trkpt>
      <trkpt lat="44.48989" lon="5.85512">
        <ele>1099</ele>
        <time>2022-06-09T21:26:50Z</time>
      </trkpt>
      <trkpt lat="44.48971" lon="5.85539">
        <ele>1107</ele>
        <time>2022-06-09T21:26:56Z</time>
      </trkpt>
      <trkpt lat="44.48964" lon="5.85554">
        <ele>1109</ele>
        <time>2022-06-09T21:26:59Z</time>
      </trkpt>
      <trkpt lat="44.4894" lon="5.85573">
        <ele>1111</ele>
        <time>2022-06-09T21:27:05Z</time>
      </trkpt>
      <trkpt lat="44.4892" lon="5.8561">
        <ele>1115</ele>
        <time>2022-06-09T21:27:13Z</time>
      </trkpt>
      <trkpt lat="44.48899" lon="5.85639">
        <ele>1122</ele>
        <time>2022-06-09T21:27:20Z</time>
      </trkpt>
      <trkpt lat="44.4889" lon="5.85677">
        <ele>1129</ele>
        <time>2022-06-09T21:27:27Z</time>
      </trkpt>
      <trkpt lat="44.48858" lon="5.85682">
        <ele>1131</ele>
        <time>2022-06-09T21:27:34Z</time>
      </trkpt>
      <trkpt lat="44.48847" lon="5.85692">
        <ele>1133</ele>
        <time>2022-06-09T21:27:37Z</time>
      </trkpt>
      <trkpt lat="44.48826" lon="5.85693">
        <ele>1135</ele>
        <time>2022-06-09T21:27:42Z</time>
      </trkpt>
      <trkpt lat="44.48818" lon="5.85697">
        <ele>1138</ele>
        <time>2022-06-09T21:27:44Z</time>
      </trkpt>
      <trkpt lat="44.48819" lon="5.85716">
        <ele>1141</ele>
        <time>2022-06-09T21:27:47Z</time>
      </trkpt>
      <trkpt lat="44.48839" lon="5.85753">
        <ele>1143</ele>
        <time>2022-06-09T21:27:55Z</time>
      </trkpt>
      <trkpt lat="44.48842" lon="5.85754">
        <ele>1143</ele>
        <time>2022-06-09T21:27:56Z</time>
      </trkpt>
      <trkpt lat="44.48846" lon="5.85761">
        <ele>1145</ele>
        <time>2022-06-09T21:27:57Z</time>
      </trkpt>
      <trkpt lat="44.48848" lon="5.85765">
        <ele>1147</ele>
        <time>2022-06-09T21:27:58Z</time>
      </trkpt>
      <trkpt lat="44.48846" lon="5.8577">
        <ele>1148</ele>
        <time>2022-06-09T21:27:59Z</time>
      </trkpt>
      <trkpt lat="44.48842" lon="5.85762">
        <ele>1146</ele>
        <time>2022-06-09T21:28:01Z</time>
      </trkpt>
      <trkpt lat="44.48833" lon="5.85753">
        <ele>1143</ele>
        <time>2022-06-09T21:28:03Z</time>
      </trkpt>
      <trkpt lat="44.48801" lon="5.85749">
        <ele>1150</ele>
        <time>2022-06-09T21:28:11Z</time>
      </trkpt>
      <trkpt lat="44.48788" lon="5.85737">
        <ele>1152</ele>
        <time>2022-06-09T21:28:14Z</time>
      </trkpt>
      <trkpt lat="44.48775" lon="5.85735">
        <ele>1156</ele>
        <time>2022-06-09T21:28:18Z</time>
      </trkpt>
      <trkpt lat="44.4877" lon="5.85738">
        <ele>1157</ele>
        <time>2022-06-09T21:28:19Z</time>
      </trkpt>
      <trkpt lat="44.48766" lon="5.85736">
        <ele>1158</ele>
        <time>2022-06-09T21:28:20Z</time>
      </trkpt>
      <trkpt lat="44.48746" lon="5.85739">
        <ele>1164</ele>
        <time>2022-06-09T21:28:24Z</time>
      </trkpt>
      <trkpt lat="44.48718" lon="5.85732">
        <ele>1169</ele>
        <time>2022-06-09T21:28:31Z</time>
      </trkpt>
      <trkpt lat="44.48705" lon="5.85723">
        <ele>1171</ele>
        <time>2022-06-09T21:28:34Z</time>
      </trkpt>
      <trkpt lat="44.48696" lon="5.8572">
        <ele>1173</ele>
        <time>2022-06-09T21:28:37Z</time>
      </trkpt>
      <trkpt lat="44.4869" lon="5.85721">
        <ele>1174</ele>
        <time>2022-06-09T21:28:38Z</time>
      </trkpt>
      <trkpt lat="44.48686" lon="5.85705">
        <ele>1175</ele>
        <time>2022-06-09T21:28:41Z</time>
      </trkpt>
      <trkpt lat="44.48691" lon="5.85664">
        <ele>1173</ele>
        <time>2022-06-09T21:28:48Z</time>
      </trkpt>
      <trkpt lat="44.4869" lon="5.8566">
        <ele>1174</ele>
        <time>2022-06-09T21:28:49Z</time>
      </trkpt>
      <trkpt lat="44.48678" lon="5.85648">
        <ele>1181</ele>
        <time>2022-06-09T21:28:52Z</time>
      </trkpt>
      <trkpt lat="44.48672" lon="5.85635">
        <ele>1185</ele>
        <time>2022-06-09T21:28:55Z</time>
      </trkpt>
      <trkpt lat="44.48671" lon="5.85624">
        <ele>1189</ele>
        <time>2022-06-09T21:28:56Z</time>
      </trkpt>
      <trkpt lat="44.48674" lon="5.85614">
        <ele>1190</ele>
        <time>2022-06-09T21:28:58Z</time>
      </trkpt>
      <trkpt lat="44.48669" lon="5.85607">
        <ele>1193</ele>
        <time>2022-06-09T21:29:00Z</time>
      </trkpt>
      <trkpt lat="44.48665" lon="5.85607">
        <ele>1195</ele>
        <time>2022-06-09T21:29:01Z</time>
      </trkpt>
      <trkpt lat="44.48661" lon="5.85614">
        <ele>1195</ele>
        <time>2022-06-09T21:29:02Z</time>
      </trkpt>
      <trkpt lat="44.48659" lon="5.85626">
        <ele>1193</ele>
        <time>2022-06-09T21:29:04Z</time>
      </trkpt>
      <trkpt lat="44.48662" lon="5.8565">
        <ele>1185</ele>
        <time>2022-06-09T21:29:08Z</time>
      </trkpt>
      <trkpt lat="44.48656" lon="5.85667">
        <ele>1184</ele>
        <time>2022-06-09T21:29:12Z</time>
      </trkpt>
      <trkpt lat="44.4865" lon="5.85672">
        <ele>1186</ele>
        <time>2022-06-09T21:29:13Z</time>
      </trkpt>
      <trkpt lat="44.4864" lon="5.85675">
        <ele>1190</ele>
        <time>2022-06-09T21:29:16Z</time>
      </trkpt>
      <trkpt lat="44.48634" lon="5.85681">
        <ele>1192</ele>
        <time>2022-06-09T21:29:17Z</time>
      </trkpt>
      <trkpt lat="44.48623" lon="5.85684">
        <ele>1197</ele>
        <time>2022-06-09T21:29:20Z</time>
      </trkpt>
      <trkpt lat="44.4862" lon="5.8569">
        <ele>1197</ele>
        <time>2022-06-09T21:29:21Z</time>
      </trkpt>
      <trkpt lat="44.48597" lon="5.85711">
        <ele>1203</ele>
        <time>2022-06-09T21:29:28Z</time>
      </trkpt>
      <trkpt lat="44.4859" lon="5.85715">
        <ele>1205</ele>
        <time>2022-06-09T21:29:29Z</time>
      </trkpt>
      <trkpt lat="44.48578" lon="5.85717">
        <ele>1209</ele>
        <time>2022-06-09T21:29:32Z</time>
      </trkpt>
      <trkpt lat="44.48572" lon="5.85722">
        <ele>1210</ele>
        <time>2022-06-09T21:29:34Z</time>
      </trkpt>
      <trkpt lat="44.48568" lon="5.8574">
        <ele>1208</ele>
        <time>2022-06-09T21:29:37Z</time>
      </trkpt>
      <trkpt lat="44.48555" lon="5.85773">
        <ele>1211</ele>
        <time>2022-06-09T21:29:43Z</time>
      </trkpt>
      <trkpt lat="44.48554" lon="5.85799">
        <ele>1213</ele>
        <time>2022-06-09T21:29:48Z</time>
      </trkpt>
      <trkpt lat="44.48548" lon="5.85816">
        <ele>1216</ele>
        <time>2022-06-09T21:29:51Z</time>
      </trkpt>
      <trkpt lat="44.48535" lon="5.85828">
        <ele>1220</ele>
        <time>2022-06-09T21:29:54Z</time>
      </trkpt>
      <trkpt lat="44.48525" lon="5.8583">
        <ele>1223</ele>
        <time>2022-06-09T21:29:57Z</time>
      </trkpt>
      <trkpt lat="44.48523" lon="5.85827">
        <ele>1223</ele>
        <time>2022-06-09T21:29:57Z</time>
      </trkpt>
      <trkpt lat="44.48516" lon="5.85828">
        <ele>1225</ele>
        <time>2022-06-09T21:29:59Z</time>
      </trkpt>
      <trkpt lat="44.48509" lon="5.85823">
        <ele>1226</ele>
        <time>2022-06-09T21:30:01Z</time>
      </trkpt>
      <trkpt lat="44.48507" lon="5.85816">
        <ele>1227</ele>
        <time>2022-06-09T21:30:02Z</time>
      </trkpt>
      <trkpt lat="44.48515" lon="5.85794">
        <ele>1224</ele>
        <time>2022-06-09T21:30:06Z</time>
      </trkpt>
      <trkpt lat="44.48513" lon="5.85781">
        <ele>1224</ele>
        <time>2022-06-09T21:30:08Z</time>
      </trkpt>
      <trkpt lat="44.48507" lon="5.85771">
        <ele>1225</ele>
        <time>2022-06-09T21:30:11Z</time>
      </trkpt>
      <trkpt lat="44.4849" lon="5.85754">
        <ele>1230</ele>
        <time>2022-06-09T21:30:15Z</time>
      </trkpt>
      <trkpt lat="44.48487" lon="5.85745">
        <ele>1231</ele>
        <time>2022-06-09T21:30:17Z</time>
      </trkpt>
      <trkpt lat="44.48487" lon="5.85738">
        <ele>1233</ele>
        <time>2022-06-09T21:30:18Z</time>
      </trkpt>
      <trkpt lat="44.48501" lon="5.85717">
        <ele>1233</ele>
        <time>2022-06-09T21:30:23Z</time>
      </trkpt>
      <trkpt lat="44.48511" lon="5.85688">
        <ele>1236</ele>
        <time>2022-06-09T21:30:28Z</time>
      </trkpt>
      <trkpt lat="44.48516" lon="5.85684">
        <ele>1235</ele>
        <time>2022-06-09T21:30:30Z</time>
      </trkpt>
      <trkpt lat="44.48535" lon="5.85681">
        <ele>1229</ele>
        <time>2022-06-09T21:30:34Z</time>
      </trkpt>
      <trkpt lat="44.48552" lon="5.8567">
        <ele>1226</ele>
        <time>2022-06-09T21:30:39Z</time>
      </trkpt>
      <trkpt lat="44.48567" lon="5.85647">
        <ele>1227</ele>
        <time>2022-06-09T21:30:44Z</time>
      </trkpt>
      <trkpt lat="44.48573" lon="5.85635">
        <ele>1228</ele>
        <time>2022-06-09T21:30:46Z</time>
      </trkpt>
      <trkpt lat="44.48571" lon="5.85597">
        <ele>1239</ele>
        <time>2022-06-09T21:30:53Z</time>
      </trkpt>
      <trkpt lat="44.48572" lon="5.85577">
        <ele>1244</ele>
        <time>2022-06-09T21:30:56Z</time>
      </trkpt>
      <trkpt lat="44.48576" lon="5.85567">
        <ele>1245</ele>
        <time>2022-06-09T21:30:58Z</time>
      </trkpt>
      <trkpt lat="44.48608" lon="5.85519">
        <ele>1243</ele>
        <time>2022-06-09T21:31:09Z</time>
      </trkpt>
      <trkpt lat="44.48623" lon="5.85482">
        <ele>1245</ele>
        <time>2022-06-09T21:31:16Z</time>
      </trkpt>
      <trkpt lat="44.48645" lon="5.85456">
        <ele>1242</ele>
        <time>2022-06-09T21:31:23Z</time>
      </trkpt>
      <trkpt lat="44.48655" lon="5.8544">
        <ele>1242</ele>
        <time>2022-06-09T21:31:26Z</time>
      </trkpt>
      <trkpt lat="44.48675" lon="5.85391">
        <ele>1243</ele>
        <time>2022-06-09T21:31:36Z</time>
      </trkpt>
      <trkpt lat="44.48705" lon="5.85344">
        <ele>1237</ele>
        <time>2022-06-09T21:31:46Z</time>
      </trkpt>
      <trkpt lat="44.48717" lon="5.85329">
        <ele>1233</ele>
        <time>2022-06-09T21:31:50Z</time>
      </trkpt>
      <trkpt lat="44.48719" lon="5.85321">
        <ele>1233</ele>
        <time>2022-06-09T21:31:51Z</time>
      </trkpt>
      <trkpt lat="44.48718" lon="5.85245">
        <ele>1246</ele>
        <time>2022-06-09T21:32:04Z</time>
      </trkpt>
      <trkpt lat="44.4872" lon="5.85226">
        <ele>1248</ele>
        <time>2022-06-09T21:32:07Z</time>
      </trkpt>
      <trkpt lat="44.4873" lon="5.85194">
        <ele>1248</ele>
        <time>2022-06-09T21:32:13Z</time>
      </trkpt>
      <trkpt lat="44.48742" lon="5.85174">
        <ele>1245</ele>
        <time>2022-06-09T21:32:17Z</time>
      </trkpt>
      <trkpt lat="44.48738" lon="5.8517">
        <ele>1248</ele>
        <time>2022-06-09T21:32:18Z</time>
      </trkpt>
      <trkpt lat="44.4872" lon="5.8519">
        <ele>1255</ele>
        <time>2022-06-09T21:32:24Z</time>
      </trkpt>
      <trkpt lat="44.48705" lon="5.85215">
        <ele>1259</ele>
        <time>2022-06-09T21:32:29Z</time>
      </trkpt>
      <trkpt lat="44.48695" lon="5.85262">
        <ele>1256</ele>
        <time>2022-06-09T21:32:37Z</time>
      </trkpt>
      <trkpt lat="44.48694" lon="5.8528">
        <ele>1254</ele>
        <time>2022-06-09T21:32:40Z</time>
      </trkpt>
      <trkpt lat="44.48696" lon="5.85292">
        <ele>1251</ele>
        <time>2022-06-09T21:32:42Z</time>
      </trkpt>
      <trkpt lat="44.4869" lon="5.8531">
        <ele>1251</ele>
        <time>2022-06-09T21:32:46Z</time>
      </trkpt>
      <trkpt lat="44.48672" lon="5.85331">
        <ele>1257</ele>
        <time>2022-06-09T21:32:51Z</time>
      </trkpt>
      <trkpt lat="44.48663" lon="5.85332">
        <ele>1262</ele>
        <time>2022-06-09T21:32:53Z</time>
      </trkpt>
      <trkpt lat="44.48646" lon="5.85348">
        <ele>1266</ele>
        <time>2022-06-09T21:32:58Z</time>
      </trkpt>
      <trkpt lat="44.48612" lon="5.85394">
        <ele>1270</ele>
        <time>2022-06-09T21:33:09Z</time>
      </trkpt>
      <trkpt lat="44.48598" lon="5.85407">
        <ele>1273</ele>
        <time>2022-06-09T21:33:13Z</time>
      </trkpt>
      <trkpt lat="44.48592" lon="5.8542">
        <ele>1273</ele>
        <time>2022-06-09T21:33:16Z</time>
      </trkpt>
      <trkpt lat="44.48573" lon="5.85445">
        <ele>1275</ele>
        <time>2022-06-09T21:33:22Z</time>
      </trkpt>
      <trkpt lat="44.48556" lon="5.8546">
        <ele>1279</ele>
        <time>2022-06-09T21:33:26Z</time>
      </trkpt>
      <trkpt lat="44.48548" lon="5.85474">
        <ele>1279</ele>
        <time>2022-06-09T21:33:29Z</time>
      </trkpt>
      <trkpt lat="44.4853" lon="5.85491">
        <ele>1283</ele>
        <time>2022-06-09T21:33:35Z</time>
      </trkpt>
      <trkpt lat="44.48505" lon="5.85504">
        <ele>1291</ele>
        <time>2022-06-09T21:33:41Z</time>
      </trkpt>
      <trkpt lat="44.48494" lon="5.85507">
        <ele>1293</ele>
        <time>2022-06-09T21:33:43Z</time>
      </trkpt>
      <trkpt lat="44.48487" lon="5.85518">
        <ele>1291</ele>
        <time>2022-06-09T21:33:46Z</time>
      </trkpt>
      <trkpt lat="44.48467" lon="5.85513">
        <ele>1298</ele>
        <time>2022-06-09T21:33:51Z</time>
      </trkpt>
      <trkpt lat="44.48444" lon="5.85539">
        <ele>1296</ele>
        <time>2022-06-09T21:33:57Z</time>
      </trkpt>
      <trkpt lat="44.48419" lon="5.85554">
        <ele>1298</ele>
        <time>2022-06-09T21:34:04Z</time>
      </trkpt>
      <trkpt lat="44.48408" lon="5.85556">
        <ele>1300</ele>
        <time>2022-06-09T21:34:06Z</time>
      </trkpt>
      <trkpt lat="44.48386" lon="5.85552">
        <ele>1309</ele>
        <time>2022-06-09T21:34:12Z</time>
      </trkpt>
      <trkpt lat="44.4838" lon="5.85553">
        <ele>1311</ele>
        <time>2022-06-09T21:34:13Z</time>
      </trkpt>
      <trkpt lat="44.4837" lon="5.85558">
        <ele>1312</ele>
        <time>2022-06-09T21:34:15Z</time>
      </trkpt>
      <trkpt lat="44.48358" lon="5.85568">
        <ele>1313</ele>
        <time>2022-06-09T21:34:19Z</time>
      </trkpt>
      <trkpt lat="44.48346" lon="5.85571">
        <ele>1316</ele>
        <time>2022-06-09T21:34:22Z</time>
      </trkpt>
      <trkpt lat="44.48331" lon="5.85588">
        <ele>1317</ele>
        <time>2022-06-09T21:34:26Z</time>
      </trkpt>
      <trkpt lat="44.48316" lon="5.85598">
        <ele>1321</ele>
        <time>2022-06-09T21:34:30Z</time>
      </trkpt>
      <trkpt lat="44.48302" lon="5.85628">
        <ele>1319</ele>
        <time>2022-06-09T21:34:36Z</time>
      </trkpt>
      <trkpt lat="44.48276" lon="5.85663">
        <ele>1321</ele>
        <time>2022-06-09T21:34:44Z</time>
      </trkpt>
      <trkpt lat="44.48265" lon="5.85672">
        <ele>1323</ele>
        <time>2022-06-09T21:34:47Z</time>
      </trkpt>
      <trkpt lat="44.48259" lon="5.85673">
        <ele>1325</ele>
        <time>2022-06-09T21:34:49Z</time>
      </trkpt>
      <trkpt lat="44.48225" lon="5.8569">
        <ele>1336</ele>
        <time>2022-06-09T21:34:57Z</time>
      </trkpt>
      <trkpt lat="44.48219" lon="5.85696">
        <ele>1337</ele>
        <time>2022-06-09T21:34:59Z</time>
      </trkpt>
      <trkpt lat="44.48215" lon="5.85709">
        <ele>1335</ele>
        <time>2022-06-09T21:35:01Z</time>
      </trkpt>
      <trkpt lat="44.48205" lon="5.85725">
        <ele>1334</ele>
        <time>2022-06-09T21:35:05Z</time>
      </trkpt>
      <trkpt lat="44.48193" lon="5.85736">
        <ele>1336</ele>
        <time>2022-06-09T21:35:08Z</time>
      </trkpt>
      <trkpt lat="44.48156" lon="5.8576">
        <ele>1345</ele>
        <time>2022-06-09T21:35:18Z</time>
      </trkpt>
      <trkpt lat="44.48133" lon="5.85795">
        <ele>1345</ele>
        <time>2022-06-09T21:35:26Z</time>
      </trkpt>
      <trkpt lat="44.48111" lon="5.85814">
        <ele>1346</ele>
        <time>2022-06-09T21:35:32Z</time>
      </trkpt>
      <trkpt lat="44.48105" lon="5.85822">
        <ele>1346</ele>
        <time>2022-06-09T21:35:34Z</time>
      </trkpt>
      <trkpt lat="44.48098" lon="5.85834">
        <ele>1345</ele>
        <time>2022-06-09T21:35:36Z</time>
      </trkpt>
      <trkpt lat="44.4809" lon="5.85861">
        <ele>1349</ele>
        <time>2022-06-09T21:35:41Z</time>
      </trkpt>
      <trkpt lat="44.48087" lon="5.85864">
        <ele>1350</ele>
        <time>2022-06-09T21:35:42Z</time>
      </trkpt>
      <trkpt lat="44.48082" lon="5.85862">
        <ele>1350</ele>
        <time>2022-06-09T21:35:43Z</time>
      </trkpt>
      <trkpt lat="44.48084" lon="5.85865">
        <ele>1350</ele>
        <time>2022-06-09T21:35:44Z</time>
      </trkpt>
      <trkpt lat="44.4809" lon="5.85865">
        <ele>1349</ele>
        <time>2022-06-09T21:35:45Z</time>
      </trkpt>
      <trkpt lat="44.4808" lon="5.85862">
        <ele>1350</ele>
        <time>2022-06-09T21:35:48Z</time>
      </trkpt>
      <trkpt lat="44.48046" lon="5.85885">
        <ele>1341</ele>
        <time>2022-06-09T21:35:56Z</time>
      </trkpt>
      <trkpt lat="44.47978" lon="5.85955">
        <ele>1319</ele>
        <time>2022-06-09T21:36:16Z</time>
      </trkpt>
      <trkpt lat="44.47971" lon="5.85957">
        <ele>1316</ele>
        <time>2022-06-09T21:36:18Z</time>
      </trkpt>
      <trkpt lat="44.47965" lon="5.85973">
        <ele>1315</ele>
        <time>2022-06-09T21:36:21Z</time>
      </trkpt>
      <trkpt lat="44.47956" lon="5.85983">
        <ele>1311</ele>
        <time>2022-06-09T21:36:23Z</time>
      </trkpt>
      <trkpt lat="44.47949" lon="5.85999">
        <ele>1308</ele>
        <time>2022-06-09T21:36:27Z</time>
      </trkpt>
      <trkpt lat="44.47936" lon="5.8601">
        <ele>1303</ele>
        <time>2022-06-09T21:36:30Z</time>
      </trkpt>
      <trkpt lat="44.47932" lon="5.86011">
        <ele>1301</ele>
        <time>2022-06-09T21:36:31Z</time>
      </trkpt>
      <trkpt lat="44.47929" lon="5.86003">
        <ele>1297</ele>
        <time>2022-06-09T21:36:33Z</time>
      </trkpt>
      <trkpt lat="44.47932" lon="5.85959">
        <ele>1296</ele>
        <time>2022-06-09T21:36:40Z</time>
      </trkpt>
      <trkpt lat="44.4793" lon="5.85947">
        <ele>1294</ele>
        <time>2022-06-09T21:36:42Z</time>
      </trkpt>
      <trkpt lat="44.47929" lon="5.85949">
        <ele>1294</ele>
        <time>2022-06-09T21:36:42Z</time>
      </trkpt>
      <trkpt lat="44.47931" lon="5.85942">
        <ele>1295</ele>
        <time>2022-06-09T21:36:44Z</time>
      </trkpt>
      <trkpt lat="44.47926" lon="5.85928">
        <ele>1292</ele>
        <time>2022-06-09T21:36:46Z</time>
      </trkpt>
      <trkpt lat="44.47919" lon="5.85933">
        <ele>1288</ele>
        <time>2022-06-09T21:36:48Z</time>
      </trkpt>
      <trkpt lat="44.47915" lon="5.85929">
        <ele>1287</ele>
        <time>2022-06-09T21:36:49Z</time>
      </trkpt>
      <trkpt lat="44.4789" lon="5.85946">
        <ele>1277</ele>
        <time>2022-06-09T21:36:56Z</time>
      </trkpt>
      <trkpt lat="44.47886" lon="5.85946">
        <ele>1276</ele>
        <time>2022-06-09T21:36:57Z</time>
      </trkpt>
      <trkpt lat="44.47884" lon="5.85943">
        <ele>1275</ele>
        <time>2022-06-09T21:36:57Z</time>
      </trkpt>
      <trkpt lat="44.47863" lon="5.85945">
        <ele>1267</ele>
        <time>2022-06-09T21:37:02Z</time>
      </trkpt>
      <trkpt lat="44.47859" lon="5.85939">
        <ele>1266</ele>
        <time>2022-06-09T21:37:04Z</time>
      </trkpt>
      <trkpt lat="44.4786" lon="5.85935">
        <ele>1267</ele>
        <time>2022-06-09T21:37:04Z</time>
      </trkpt>
      <trkpt lat="44.47863" lon="5.85939">
        <ele>1268</ele>
        <time>2022-06-09T21:37:05Z</time>
      </trkpt>
      <trkpt lat="44.47844" lon="5.85938">
        <ele>1261</ele>
        <time>2022-06-09T21:37:10Z</time>
      </trkpt>
      <trkpt lat="44.47826" lon="5.85929">
        <ele>1254</ele>
        <time>2022-06-09T21:37:14Z</time>
      </trkpt>
      <trkpt lat="44.47808" lon="5.85931">
        <ele>1245</ele>
        <time>2022-06-09T21:37:18Z</time>
      </trkpt>
      <trkpt lat="44.47805" lon="5.85939">
        <ele>1243</ele>
        <time>2022-06-09T21:37:20Z</time>
      </trkpt>
      <trkpt lat="44.4781" lon="5.85951">
        <ele>1244</ele>
        <time>2022-06-09T21:37:22Z</time>
      </trkpt>
      <trkpt lat="44.47809" lon="5.85958">
        <ele>1242</ele>
        <time>2022-06-09T21:37:23Z</time>
      </trkpt>
      <trkpt lat="44.4779" lon="5.85964">
        <ele>1233</ele>
        <time>2022-06-09T21:37:28Z</time>
      </trkpt>
      <trkpt lat="44.47776" lon="5.85976">
        <ele>1225</ele>
        <time>2022-06-09T21:37:32Z</time>
      </trkpt>
      <trkpt lat="44.47771" lon="5.85977">
        <ele>1222</ele>
        <time>2022-06-09T21:37:33Z</time>
      </trkpt>
      <trkpt lat="44.47764" lon="5.85977">
        <ele>1219</ele>
        <time>2022-06-09T21:37:35Z</time>
      </trkpt>
      <trkpt lat="44.4776" lon="5.85972">
        <ele>1218</ele>
        <time>2022-06-09T21:37:36Z</time>
      </trkpt>
      <trkpt lat="44.47744" lon="5.8597">
        <ele>1212</ele>
        <time>2022-06-09T21:37:40Z</time>
      </trkpt>
      <trkpt lat="44.47735" lon="5.85959">
        <ele>1209</ele>
        <time>2022-06-09T21:37:42Z</time>
      </trkpt>
      <trkpt lat="44.47724" lon="5.85927">
        <ele>1205</ele>
        <time>2022-06-09T21:37:48Z</time>
      </trkpt>
      <trkpt lat="44.47716" lon="5.85917">
        <ele>1201</ele>
        <time>2022-06-09T21:37:51Z</time>
      </trkpt>
      <trkpt lat="44.47708" lon="5.85893">
        <ele>1199</ele>
        <time>2022-06-09T21:37:55Z</time>
      </trkpt>
      <trkpt lat="44.47698" lon="5.85878">
        <ele>1194</ele>
        <time>2022-06-09T21:37:59Z</time>
      </trkpt>
      <trkpt lat="44.47694" lon="5.85864">
        <ele>1193</ele>
        <time>2022-06-09T21:38:01Z</time>
      </trkpt>
      <trkpt lat="44.47685" lon="5.85855">
        <ele>1188</ele>
        <time>2022-06-09T21:38:04Z</time>
      </trkpt>
      <trkpt lat="44.47686" lon="5.85853">
        <ele>1189</ele>
        <time>2022-06-09T21:38:04Z</time>
      </trkpt>
      <trkpt lat="44.47685" lon="5.85856">
        <ele>1188</ele>
        <time>2022-06-09T21:38:05Z</time>
      </trkpt>
      <trkpt lat="44.47685" lon="5.85852">
        <ele>1188</ele>
        <time>2022-06-09T21:38:05Z</time>
      </trkpt>
      <trkpt lat="44.47657" lon="5.85817">
        <ele>1171</ele>
        <time>2022-06-09T21:38:14Z</time>
      </trkpt>
      <trkpt lat="44.47659" lon="5.85795">
        <ele>1169</ele>
        <time>2022-06-09T21:38:18Z</time>
      </trkpt>
      <trkpt lat="44.4767" lon="5.85771">
        <ele>1171</ele>
        <time>2022-06-09T21:38:23Z</time>
      </trkpt>
      <trkpt lat="44.47685" lon="5.8575">
        <ele>1177</ele>
        <time>2022-06-09T21:38:28Z</time>
      </trkpt>
      <trkpt lat="44.47689" lon="5.8573">
        <ele>1180</ele>
        <time>2022-06-09T21:38:31Z</time>
      </trkpt>
      <trkpt lat="44.47678" lon="5.85711">
        <ele>1173</ele>
        <time>2022-06-09T21:38:35Z</time>
      </trkpt>
      <trkpt lat="44.47672" lon="5.85704">
        <ele>1169</ele>
        <time>2022-06-09T21:38:37Z</time>
      </trkpt>
      <trkpt lat="44.47664" lon="5.857">
        <ele>1163</ele>
        <time>2022-06-09T21:38:39Z</time>
      </trkpt>
      <trkpt lat="44.47656" lon="5.85631">
        <ele>1155</ele>
        <time>2022-06-09T21:38:51Z</time>
      </trkpt>
      <trkpt lat="44.47641" lon="5.85575">
        <ele>1143</ele>
        <time>2022-06-09T21:39:01Z</time>
      </trkpt>
      <trkpt lat="44.47642" lon="5.85588">
        <ele>1145</ele>
        <time>2022-06-09T21:39:03Z</time>
      </trkpt>
      <trkpt lat="44.47636" lon="5.85599">
        <ele>1141</ele>
        <time>2022-06-09T21:39:05Z</time>
      </trkpt>
      <trkpt lat="44.47626" lon="5.85655">
        <ele>1135</ele>
        <time>2022-06-09T21:39:15Z</time>
      </trkpt>
      <trkpt lat="44.47608" lon="5.85691">
        <ele>1126</ele>
        <time>2022-06-09T21:39:22Z</time>
      </trkpt>
      <trkpt lat="44.47603" lon="5.85712">
        <ele>1125</ele>
        <time>2022-06-09T21:39:26Z</time>
      </trkpt>
      <trkpt lat="44.47587" lon="5.85681">
        <ele>1110</ele>
        <time>2022-06-09T21:39:32Z</time>
      </trkpt>
      <trkpt lat="44.47578" lon="5.85654">
        <ele>1105</ele>
        <time>2022-06-09T21:39:37Z</time>
      </trkpt>
      <trkpt lat="44.47569" lon="5.85615">
        <ele>1105</ele>
        <time>2022-06-09T21:39:44Z</time>
      </trkpt>
      <trkpt lat="44.47554" lon="5.85589">
        <ele>1100</ele>
        <time>2022-06-09T21:39:49Z</time>
      </trkpt>
      <trkpt lat="44.47555" lon="5.85577">
        <ele>1098</ele>
        <time>2022-06-09T21:39:51Z</time>
      </trkpt>
      <trkpt lat="44.47551" lon="5.85575">
        <ele>1097</ele>
        <time>2022-06-09T21:39:52Z</time>
      </trkpt>
      <trkpt lat="44.47543" lon="5.85581">
        <ele>1095</ele>
        <time>2022-06-09T21:39:55Z</time>
      </trkpt>
      <trkpt lat="44.47534" lon="5.85581">
        <ele>1093</ele>
        <time>2022-06-09T21:39:57Z</time>
      </trkpt>
      <trkpt lat="44.47529" lon="5.85571">
        <ele>1089</ele>
        <time>2022-06-09T21:39:59Z</time>
      </trkpt>
      <trkpt lat="44.47524" lon="5.85543">
        <ele>1080</ele>
        <time>2022-06-09T21:40:03Z</time>
      </trkpt>
      <trkpt lat="44.47529" lon="5.85527">
        <ele>1078</ele>
        <time>2022-06-09T21:40:06Z</time>
      </trkpt>
      <trkpt lat="44.47532" lon="5.85503">
        <ele>1074</ele>
        <time>2022-06-09T21:40:10Z</time>
      </trkpt>
      <trkpt lat="44.47533" lon="5.85484">
        <ele>1071</ele>
        <time>2022-06-09T21:40:14Z</time>
      </trkpt>
      <trkpt lat="44.4753" lon="5.85469">
        <ele>1067</ele>
        <time>2022-06-09T21:40:16Z</time>
      </trkpt>
      <trkpt lat="44.47525" lon="5.85459">
        <ele>1063</ele>
        <time>2022-06-09T21:40:18Z</time>
      </trkpt>
      <trkpt lat="44.47508" lon="5.85448">
        <ele>1052</ele>
        <time>2022-06-09T21:40:23Z</time>
      </trkpt>
      <trkpt lat="44.47507" lon="5.85451">
        <ele>1052</ele>
        <time>2022-06-09T21:40:23Z</time>
      </trkpt>
      <trkpt lat="44.47501" lon="5.85448">
        <ele>1049</ele>
        <time>2022-06-09T21:40:25Z</time>
      </trkpt>
      <trkpt lat="44.47485" lon="5.854">
        <ele>1039</ele>
        <time>2022-06-09T21:40:33Z</time>
      </trkpt>
      <trkpt lat="44.47478" lon="5.85386">
        <ele>1036</ele>
        <time>2022-06-09T21:40:36Z</time>
      </trkpt>
      <trkpt lat="44.47468" lon="5.85373">
        <ele>1033</ele>
        <time>2022-06-09T21:40:39Z</time>
      </trkpt>
      <trkpt lat="44.47447" lon="5.85357">
        <ele>1028</ele>
        <time>2022-06-09T21:40:45Z</time>
      </trkpt>
      <trkpt lat="44.47434" lon="5.85356">
        <ele>1026</ele>
        <time>2022-06-09T21:40:48Z</time>
      </trkpt>
      <trkpt lat="44.47417" lon="5.85298">
        <ele>1014</ele>
        <time>2022-06-09T21:40:59Z</time>
      </trkpt>
      <trkpt lat="44.47415" lon="5.85281">
        <ele>1011</ele>
        <time>2022-06-09T21:41:01Z</time>
      </trkpt>
      <trkpt lat="44.47419" lon="5.85257">
        <ele>1009</ele>
        <time>2022-06-09T21:41:06Z</time>
      </trkpt>
      <trkpt lat="44.47408" lon="5.85268">
        <ele>1009</ele>
        <time>2022-06-09T21:41:09Z</time>
      </trkpt>
      <trkpt lat="44.47406" lon="5.85265">
        <ele>1008</ele>
        <time>2022-06-09T21:41:09Z</time>
      </trkpt>
      <trkpt lat="44.47408" lon="5.85261">
        <ele>1008</ele>
        <time>2022-06-09T21:41:10Z</time>
      </trkpt>
      <trkpt lat="44.47404" lon="5.85253">
        <ele>1007</ele>
        <time>2022-06-09T21:41:12Z</time>
      </trkpt>
      <trkpt lat="44.47399" lon="5.85245">
        <ele>1005</ele>
        <time>2022-06-09T21:41:14Z</time>
      </trkpt>
      <trkpt lat="44.47389" lon="5.85237">
        <ele>1003</ele>
        <time>2022-06-09T21:41:16Z</time>
      </trkpt>
      <trkpt lat="44.47377" lon="5.85237">
        <ele>1002</ele>
        <time>2022-06-09T21:41:19Z</time>
      </trkpt>
      <trkpt lat="44.47363" lon="5.85253">
        <ele>1001</ele>
        <time>2022-06-09T21:41:23Z</time>
      </trkpt>
      <trkpt lat="44.47308" lon="5.85227">
        <ele>996</ele>
        <time>2022-06-09T21:41:37Z</time>
      </trkpt>
      <trkpt lat="44.47298" lon="5.8522">
        <ele>996</ele>
        <time>2022-06-09T21:41:39Z</time>
      </trkpt>
      <trkpt lat="44.47289" lon="5.85203">
        <ele>995</ele>
        <time>2022-06-09T21:41:43Z</time>
      </trkpt>
      <trkpt lat="44.47276" lon="5.85189">
        <ele>995</ele>
        <time>2022-06-09T21:41:47Z</time>
      </trkpt>
      <trkpt lat="44.47274" lon="5.85181">
        <ele>994</ele>
        <time>2022-06-09T21:41:48Z</time>
      </trkpt>
      <trkpt lat="44.47271" lon="5.85181">
        <ele>994</ele>
        <time>2022-06-09T21:41:49Z</time>
      </trkpt>
      <trkpt lat="44.47271" lon="5.85231">
        <ele>998</ele>
        <time>2022-06-09T21:41:57Z</time>
      </trkpt>
      <trkpt lat="44.47277" lon="5.85247">
        <ele>999</ele>
        <time>2022-06-09T21:42:00Z</time>
      </trkpt>
      <trkpt lat="44.4728" lon="5.85281">
        <ele>999</ele>
        <time>2022-06-09T21:42:06Z</time>
      </trkpt>
      <trkpt lat="44.47275" lon="5.85299">
        <ele>999</ele>
        <time>2022-06-09T21:42:09Z</time>
      </trkpt>
      <trkpt lat="44.47272" lon="5.85302">
        <ele>999</ele>
        <time>2022-06-09T21:42:10Z</time>
      </trkpt>
      <trkpt lat="44.47274" lon="5.85306">
        <ele>999</ele>
        <time>2022-06-09T21:42:11Z</time>
      </trkpt>
      <trkpt lat="44.47265" lon="5.85351">
        <ele>1000</ele>
        <time>2022-06-09T21:42:19Z</time>
      </trkpt>
      <trkpt lat="44.47251" lon="5.85371">
        <ele>1000</ele>
        <time>2022-06-09T21:42:23Z</time>
      </trkpt>
      <trkpt lat="44.47244" lon="5.85376">
        <ele>1002</ele>
        <time>2022-06-09T21:42:25Z</time>
      </trkpt>
      <trkpt lat="44.47231" lon="5.854">
        <ele>1005</ele>
        <time>2022-06-09T21:42:30Z</time>
      </trkpt>
      <trkpt lat="44.47211" lon="5.85419">
        <ele>1007</ele>
        <time>2022-06-09T21:42:36Z</time>
      </trkpt>
      <trkpt lat="44.47188" lon="5.85419">
        <ele>1009</ele>
        <time>2022-06-09T21:42:41Z</time>
      </trkpt>
      <trkpt lat="44.47173" lon="5.85422">
        <ele>1010</ele>
        <time>2022-06-09T21:42:45Z</time>
      </trkpt>
      <trkpt lat="44.47161" lon="5.85434">
        <ele>1012</ele>
        <time>2022-06-09T21:42:48Z</time>
      </trkpt>
      <trkpt lat="44.47153" lon="5.85446">
        <ele>1014</ele>
        <time>2022-06-09T21:42:51Z</time>
      </trkpt>
      <trkpt lat="44.47139" lon="5.85454">
        <ele>1016</ele>
        <time>2022-06-09T21:42:54Z</time>
      </trkpt>
      <trkpt lat="44.4713" lon="5.85457">
        <ele>1017</ele>
        <time>2022-06-09T21:42:57Z</time>
      </trkpt>
      <trkpt lat="44.4709" lon="5.85457">
        <ele>1019</ele>
        <time>2022-06-09T21:43:06Z</time>
      </trkpt>
      <trkpt lat="44.47079" lon="5.8546">
        <ele>1020</ele>
        <time>2022-06-09T21:43:09Z</time>
      </trkpt>
      <trkpt lat="44.47048" lon="5.8548">
        <ele>1025</ele>
        <time>2022-06-09T21:43:17Z</time>
      </trkpt>
      <trkpt lat="44.47039" lon="5.85499">
        <ele>1024</ele>
        <time>2022-06-09T21:43:20Z</time>
      </trkpt>
      <trkpt lat="44.47026" lon="5.85507">
        <ele>1026</ele>
        <time>2022-06-09T21:43:24Z</time>
      </trkpt>
      <trkpt lat="44.4702" lon="5.85519">
        <ele>1027</ele>
        <time>2022-06-09T21:43:26Z</time>
      </trkpt>
      <trkpt lat="44.47017" lon="5.8554">
        <ele>1029</ele>
        <time>2022-06-09T21:43:30Z</time>
      </trkpt>
      <trkpt lat="44.47022" lon="5.85563">
        <ele>1029</ele>
        <time>2022-06-09T21:43:34Z</time>
      </trkpt>
      <trkpt lat="44.47032" lon="5.85592">
        <ele>1031</ele>
        <time>2022-06-09T21:43:39Z</time>
      </trkpt>
      <trkpt lat="44.47039" lon="5.85638">
        <ele>1038</ele>
        <time>2022-06-09T21:43:47Z</time>
      </trkpt>
      <trkpt lat="44.47038" lon="5.8565">
        <ele>1039</ele>
        <time>2022-06-09T21:43:49Z</time>
      </trkpt>
      <trkpt lat="44.47029" lon="5.8567">
        <ele>1042</ele>
        <time>2022-06-09T21:43:53Z</time>
      </trkpt>
      <trkpt lat="44.47026" lon="5.85695">
        <ele>1045</ele>
        <time>2022-06-09T21:43:57Z</time>
      </trkpt>
      <trkpt lat="44.4702" lon="5.85716">
        <ele>1047</ele>
        <time>2022-06-09T21:44:01Z</time>
      </trkpt>
      <trkpt lat="44.4702" lon="5.85728">
        <ele>1048</ele>
        <time>2022-06-09T21:44:03Z</time>
      </trkpt>
      <trkpt lat="44.47005" lon="5.85765">
        <ele>1049</ele>
        <time>2022-06-09T21:44:10Z</time>
      </trkpt>
      <trkpt lat="44.46997" lon="5.8578">
        <ele>1050</ele>
        <time>2022-06-09T21:44:13Z</time>
      </trkpt>
      <trkpt lat="44.46992" lon="5.85784">
        <ele>1052</ele>
        <time>2022-06-09T21:44:14Z</time>
      </trkpt>
      <trkpt lat="44.46974" lon="5.85822">
        <ele>1059</ele>
        <time>2022-06-09T21:44:22Z</time>
      </trkpt>
      <trkpt lat="44.46968" lon="5.85843">
        <ele>1062</ele>
        <time>2022-06-09T21:44:26Z</time>
      </trkpt>
      <trkpt lat="44.46966" lon="5.85877">
        <ele>1065</ele>
        <time>2022-06-09T21:44:31Z</time>
      </trkpt>
      <trkpt lat="44.46963" lon="5.85886">
        <ele>1067</ele>
        <time>2022-06-09T21:44:33Z</time>
      </trkpt>
      <trkpt lat="44.46958" lon="5.85889">
        <ele>1068</ele>
        <time>2022-06-09T21:44:34Z</time>
      </trkpt>
      <trkpt lat="44.46952" lon="5.85881">
        <ele>1069</ele>
        <time>2022-06-09T21:44:36Z</time>
      </trkpt>
      <trkpt lat="44.46954" lon="5.85853">
        <ele>1067</ele>
        <time>2022-06-09T21:44:41Z</time>
      </trkpt>
      <trkpt lat="44.4695" lon="5.85798">
        <ele>1066</ele>
        <time>2022-06-09T21:44:50Z</time>
      </trkpt>
      <trkpt lat="44.46943" lon="5.85784">
        <ele>1068</ele>
        <time>2022-06-09T21:44:53Z</time>
      </trkpt>
      <trkpt lat="44.46939" lon="5.85784">
        <ele>1069</ele>
        <time>2022-06-09T21:44:54Z</time>
      </trkpt>
      <trkpt lat="44.46933" lon="5.85789">
        <ele>1071</ele>
        <time>2022-06-09T21:44:56Z</time>
      </trkpt>
      <trkpt lat="44.46933" lon="5.85842">
        <ele>1072</ele>
        <time>2022-06-09T21:45:04Z</time>
      </trkpt>
      <trkpt lat="44.46928" lon="5.85851">
        <ele>1074</ele>
        <time>2022-06-09T21:45:06Z</time>
      </trkpt>
      <trkpt lat="44.46921" lon="5.85884">
        <ele>1077</ele>
        <time>2022-06-09T21:45:12Z</time>
      </trkpt>
      <trkpt lat="44.46921" lon="5.85902">
        <ele>1078</ele>
        <time>2022-06-09T21:45:15Z</time>
      </trkpt>
      <trkpt lat="44.46917" lon="5.85915">
        <ele>1079</ele>
        <time>2022-06-09T21:45:17Z</time>
      </trkpt>
      <trkpt lat="44.46911" lon="5.85921">
        <ele>1081</ele>
        <time>2022-06-09T21:45:19Z</time>
      </trkpt>
      <trkpt lat="44.469" lon="5.85941">
        <ele>1086</ele>
        <time>2022-06-09T21:45:23Z</time>
      </trkpt>
      <trkpt lat="44.46891" lon="5.85967">
        <ele>1089</ele>
        <time>2022-06-09T21:45:28Z</time>
      </trkpt>
      <trkpt lat="44.46893" lon="5.85986">
        <ele>1089</ele>
        <time>2022-06-09T21:45:31Z</time>
      </trkpt>
      <trkpt lat="44.46906" lon="5.86002">
        <ele>1085</ele>
        <time>2022-06-09T21:45:35Z</time>
      </trkpt>
      <trkpt lat="44.46912" lon="5.86014">
        <ele>1084</ele>
        <time>2022-06-09T21:45:38Z</time>
      </trkpt>
      <trkpt lat="44.46911" lon="5.86061">
        <ele>1088</ele>
        <time>2022-06-09T21:45:46Z</time>
      </trkpt>
      <trkpt lat="44.46902" lon="5.86084">
        <ele>1094</ele>
        <time>2022-06-09T21:45:50Z</time>
      </trkpt>
      <trkpt lat="44.46896" lon="5.86108">
        <ele>1098</ele>
        <time>2022-06-09T21:45:54Z</time>
      </trkpt>
      <trkpt lat="44.46899" lon="5.86145">
        <ele>1099</ele>
        <time>2022-06-09T21:46:01Z</time>
      </trkpt>
      <trkpt lat="44.46909" lon="5.86157">
        <ele>1096</ele>
        <time>2022-06-09T21:46:04Z</time>
      </trkpt>
      <trkpt lat="44.46914" lon="5.86167">
        <ele>1094</ele>
        <time>2022-06-09T21:46:06Z</time>
      </trkpt>
      <trkpt lat="44.46913" lon="5.86174">
        <ele>1096</ele>
        <time>2022-06-09T21:46:07Z</time>
      </trkpt>
      <trkpt lat="44.46906" lon="5.86178">
        <ele>1100</ele>
        <time>2022-06-09T21:46:09Z</time>
      </trkpt>
      <trkpt lat="44.46897" lon="5.86172">
        <ele>1103</ele>
        <time>2022-06-09T21:46:11Z</time>
      </trkpt>
      <trkpt lat="44.46889" lon="5.86155">
        <ele>1105</ele>
        <time>2022-06-09T21:46:14Z</time>
      </trkpt>
      <trkpt lat="44.46883" lon="5.86127">
        <ele>1105</ele>
        <time>2022-06-09T21:46:19Z</time>
      </trkpt>
      <trkpt lat="44.46869" lon="5.86113">
        <ele>1111</ele>
        <time>2022-06-09T21:46:23Z</time>
      </trkpt>
      <trkpt lat="44.46861" lon="5.86098">
        <ele>1113</ele>
        <time>2022-06-09T21:46:26Z</time>
      </trkpt>
      <trkpt lat="44.46862" lon="5.86074">
        <ele>1110</ele>
        <time>2022-06-09T21:46:30Z</time>
      </trkpt>
      <trkpt lat="44.46857" lon="5.86048">
        <ele>1109</ele>
        <time>2022-06-09T21:46:35Z</time>
      </trkpt>
      <trkpt lat="44.46838" lon="5.86037">
        <ele>1114</ele>
        <time>2022-06-09T21:46:40Z</time>
      </trkpt>
      <trkpt lat="44.4682" lon="5.86034">
        <ele>1121</ele>
        <time>2022-06-09T21:46:44Z</time>
      </trkpt>
      <trkpt lat="44.46806" lon="5.86028">
        <ele>1125</ele>
        <time>2022-06-09T21:46:47Z</time>
      </trkpt>
      <trkpt lat="44.4679" lon="5.86037">
        <ele>1132</ele>
        <time>2022-06-09T21:46:51Z</time>
      </trkpt>
      <trkpt lat="44.46779" lon="5.86039">
        <ele>1137</ele>
        <time>2022-06-09T21:46:54Z</time>
      </trkpt>
      <trkpt lat="44.46765" lon="5.86036">
        <ele>1141</ele>
        <time>2022-06-09T21:46:57Z</time>
      </trkpt>
      <trkpt lat="44.46764" lon="5.86034">
        <ele>1141</ele>
        <time>2022-06-09T21:46:58Z</time>
      </trkpt>
      <trkpt lat="44.46768" lon="5.86005">
        <ele>1136</ele>
        <time>2022-06-09T21:47:03Z</time>
      </trkpt>
      <trkpt lat="44.46765" lon="5.85988">
        <ele>1137</ele>
        <time>2022-06-09T21:47:05Z</time>
      </trkpt>
      <trkpt lat="44.46766" lon="5.85982">
        <ele>1137</ele>
        <time>2022-06-09T21:47:06Z</time>
      </trkpt>
      <trkpt lat="44.46762" lon="5.85983">
        <ele>1139</ele>
        <time>2022-06-09T21:47:07Z</time>
      </trkpt>
      <trkpt lat="44.46762" lon="5.85993">
        <ele>1138</ele>
        <time>2022-06-09T21:47:09Z</time>
      </trkpt>
      <trkpt lat="44.46763" lon="5.85989">
        <ele>1138</ele>
        <time>2022-06-09T21:47:10Z</time>
      </trkpt>
      <trkpt lat="44.46758" lon="5.85984">
        <ele>1140</ele>
        <time>2022-06-09T21:47:11Z</time>
      </trkpt>
      <trkpt lat="44.46773" lon="5.85954">
        <ele>1135</ele>
        <time>2022-06-09T21:47:17Z</time>
      </trkpt>
      <trkpt lat="44.46776" lon="5.85932">
        <ele>1134</ele>
        <time>2022-06-09T21:47:21Z</time>
      </trkpt>
      <trkpt lat="44.46769" lon="5.85917">
        <ele>1138</ele>
        <time>2022-06-09T21:47:24Z</time>
      </trkpt>
      <trkpt lat="44.46764" lon="5.85897">
        <ele>1139</ele>
        <time>2022-06-09T21:47:28Z</time>
      </trkpt>
      <trkpt lat="44.46752" lon="5.85878">
        <ele>1143</ele>
        <time>2022-06-09T21:47:32Z</time>
      </trkpt>
      <trkpt lat="44.46742" lon="5.8584">
        <ele>1147</ele>
        <time>2022-06-09T21:47:39Z</time>
      </trkpt>
      <trkpt lat="44.46732" lon="5.85816">
        <ele>1154</ele>
        <time>2022-06-09T21:47:43Z</time>
      </trkpt>
      <trkpt lat="44.46715" lon="5.85794">
        <ele>1165</ele>
        <time>2022-06-09T21:47:49Z</time>
      </trkpt>
      <trkpt lat="44.46711" lon="5.85781">
        <ele>1168</ele>
        <time>2022-06-09T21:47:51Z</time>
      </trkpt>
      <trkpt lat="44.46715" lon="5.85763">
        <ele>1168</ele>
        <time>2022-06-09T21:47:54Z</time>
      </trkpt>
      <trkpt lat="44.46721" lon="5.85758">
        <ele>1165</ele>
        <time>2022-06-09T21:47:56Z</time>
      </trkpt>
      <trkpt lat="44.46722" lon="5.85735">
        <ele>1167</ele>
        <time>2022-06-09T21:48:00Z</time>
      </trkpt>
      <trkpt lat="44.46719" lon="5.85712">
        <ele>1171</ele>
        <time>2022-06-09T21:48:03Z</time>
      </trkpt>
      <trkpt lat="44.46724" lon="5.85705">
        <ele>1169</ele>
        <time>2022-06-09T21:48:05Z</time>
      </trkpt>
      <trkpt lat="44.46741" lon="5.85702">
        <ele>1160</ele>
        <time>2022-06-09T21:48:09Z</time>
      </trkpt>
      <trkpt lat="44.46745" lon="5.85698">
        <ele>1159</ele>
        <time>2022-06-09T21:48:10Z</time>
      </trkpt>
      <trkpt lat="44.46753" lon="5.85681">
        <ele>1156</ele>
        <time>2022-06-09T21:48:14Z</time>
      </trkpt>
      <trkpt lat="44.46752" lon="5.85663">
        <ele>1157</ele>
        <time>2022-06-09T21:48:17Z</time>
      </trkpt>
      <trkpt lat="44.46747" lon="5.85656">
        <ele>1158</ele>
        <time>2022-06-09T21:48:18Z</time>
      </trkpt>
      <trkpt lat="44.46724" lon="5.85643">
        <ele>1167</ele>
        <time>2022-06-09T21:48:24Z</time>
      </trkpt>
      <trkpt lat="44.4671" lon="5.85649">
        <ele>1175</ele>
        <time>2022-06-09T21:48:28Z</time>
      </trkpt>
      <trkpt lat="44.46701" lon="5.85659">
        <ele>1182</ele>
        <time>2022-06-09T21:48:30Z</time>
      </trkpt>
      <trkpt lat="44.46686" lon="5.85684">
        <ele>1189</ele>
        <time>2022-06-09T21:48:36Z</time>
      </trkpt>
      <trkpt lat="44.46675" lon="5.85719">
        <ele>1193</ele>
        <time>2022-06-09T21:48:42Z</time>
      </trkpt>
      <trkpt lat="44.46671" lon="5.85724">
        <ele>1194</ele>
        <time>2022-06-09T21:48:43Z</time>
      </trkpt>
      <trkpt lat="44.46664" lon="5.85723">
        <ele>1198</ele>
        <time>2022-06-09T21:48:45Z</time>
      </trkpt>
      <trkpt lat="44.46653" lon="5.85737">
        <ele>1204</ele>
        <time>2022-06-09T21:48:48Z</time>
      </trkpt>
      <trkpt lat="44.46653" lon="5.8578">
        <ele>1201</ele>
        <time>2022-06-09T21:48:56Z</time>
      </trkpt>
      <trkpt lat="44.46648" lon="5.85808">
        <ele>1202</ele>
        <time>2022-06-09T21:49:00Z</time>
      </trkpt>
      <trkpt lat="44.46641" lon="5.85828">
        <ele>1205</ele>
        <time>2022-06-09T21:49:04Z</time>
      </trkpt>
      <trkpt lat="44.46636" lon="5.85834">
        <ele>1208</ele>
        <time>2022-06-09T21:49:06Z</time>
      </trkpt>
      <trkpt lat="44.46633" lon="5.85834">
        <ele>1210</ele>
        <time>2022-06-09T21:49:06Z</time>
      </trkpt>
      <trkpt lat="44.4663" lon="5.8583">
        <ele>1212</ele>
        <time>2022-06-09T21:49:07Z</time>
      </trkpt>
      <trkpt lat="44.4663" lon="5.85818">
        <ele>1213</ele>
        <time>2022-06-09T21:49:09Z</time>
      </trkpt>
      <trkpt lat="44.46635" lon="5.85811">
        <ele>1210</ele>
        <time>2022-06-09T21:49:11Z</time>
      </trkpt>
      <trkpt lat="44.46637" lon="5.85789">
        <ele>1210</ele>
        <time>2022-06-09T21:49:15Z</time>
      </trkpt>
      <trkpt lat="44.46635" lon="5.85784">
        <ele>1212</ele>
        <time>2022-06-09T21:49:16Z</time>
      </trkpt>
      <trkpt lat="44.46633" lon="5.85784">
        <ele>1213</ele>
        <time>2022-06-09T21:49:16Z</time>
      </trkpt>
      <trkpt lat="44.46627" lon="5.8576">
        <ele>1218</ele>
        <time>2022-06-09T21:49:20Z</time>
      </trkpt>
      <trkpt lat="44.46626" lon="5.8574">
        <ele>1220</ele>
        <time>2022-06-09T21:49:24Z</time>
      </trkpt>
      <trkpt lat="44.46616" lon="5.85702">
        <ele>1228</ele>
        <time>2022-06-09T21:49:30Z</time>
      </trkpt>
      <trkpt lat="44.46618" lon="5.85672">
        <ele>1228</ele>
        <time>2022-06-09T21:49:35Z</time>
      </trkpt>
      <trkpt lat="44.46621" lon="5.85669">
        <ele>1226</ele>
        <time>2022-06-09T21:49:36Z</time>
      </trkpt>
      <trkpt lat="44.46631" lon="5.85671">
        <ele>1220</ele>
        <time>2022-06-09T21:49:39Z</time>
      </trkpt>
      <trkpt lat="44.46637" lon="5.85665">
        <ele>1217</ele>
        <time>2022-06-09T21:49:40Z</time>
      </trkpt>
      <trkpt lat="44.46638" lon="5.8566">
        <ele>1216</ele>
        <time>2022-06-09T21:49:41Z</time>
      </trkpt>
      <trkpt lat="44.46628" lon="5.85621">
        <ele>1218</ele>
        <time>2022-06-09T21:49:48Z</time>
      </trkpt>
      <trkpt lat="44.46607" lon="5.856">
        <ele>1229</ele>
        <time>2022-06-09T21:49:54Z</time>
      </trkpt>
      <trkpt lat="44.466" lon="5.8559">
        <ele>1233</ele>
        <time>2022-06-09T21:49:56Z</time>
      </trkpt>
      <trkpt lat="44.46596" lon="5.85574">
        <ele>1234</ele>
        <time>2022-06-09T21:49:59Z</time>
      </trkpt>
      <trkpt lat="44.4658" lon="5.85544">
        <ele>1239</ele>
        <time>2022-06-09T21:50:06Z</time>
      </trkpt>
      <trkpt lat="44.4657" lon="5.8547">
        <ele>1235</ele>
        <time>2022-06-09T21:50:18Z</time>
      </trkpt>
      <trkpt lat="44.46552" lon="5.85428">
        <ele>1239</ele>
        <time>2022-06-09T21:50:26Z</time>
      </trkpt>
      <trkpt lat="44.46539" lon="5.85409">
        <ele>1243</ele>
        <time>2022-06-09T21:50:31Z</time>
      </trkpt>
      <trkpt lat="44.46523" lon="5.85394">
        <ele>1247</ele>
        <time>2022-06-09T21:50:35Z</time>
      </trkpt>
      <trkpt lat="44.46504" lon="5.85384">
        <ele>1253</ele>
        <time>2022-06-09T21:50:40Z</time>
      </trkpt>
      <trkpt lat="44.46498" lon="5.85377">
        <ele>1254</ele>
        <time>2022-06-09T21:50:42Z</time>
      </trkpt>
      <trkpt lat="44.46475" lon="5.85327">
        <ele>1249</ele>
        <time>2022-06-09T21:50:52Z</time>
      </trkpt>
      <trkpt lat="44.46455" lon="5.85296">
        <ele>1252</ele>
        <time>2022-06-09T21:50:59Z</time>
      </trkpt>
      <trkpt lat="44.46433" lon="5.85273">
        <ele>1255</ele>
        <time>2022-06-09T21:51:05Z</time>
      </trkpt>
      <trkpt lat="44.46417" lon="5.85262">
        <ele>1258</ele>
        <time>2022-06-09T21:51:09Z</time>
      </trkpt>
      <trkpt lat="44.46408" lon="5.85252">
        <ele>1260</ele>
        <time>2022-06-09T21:51:12Z</time>
      </trkpt>
      <trkpt lat="44.464" lon="5.85236">
        <ele>1262</ele>
        <time>2022-06-09T21:51:15Z</time>
      </trkpt>
      <trkpt lat="44.46397" lon="5.85209">
        <ele>1261</ele>
        <time>2022-06-09T21:51:20Z</time>
      </trkpt>
      <trkpt lat="44.46381" lon="5.85174">
        <ele>1265</ele>
        <time>2022-06-09T21:51:27Z</time>
      </trkpt>
      <trkpt lat="44.46378" lon="5.85115">
        <ele>1268</ele>
        <time>2022-06-09T21:51:36Z</time>
      </trkpt>
      <trkpt lat="44.46393" lon="5.85079">
        <ele>1268</ele>
        <time>2022-06-09T21:51:43Z</time>
      </trkpt>
      <trkpt lat="44.46402" lon="5.85069">
        <ele>1267</ele>
        <time>2022-06-09T21:51:46Z</time>
      </trkpt>
      <trkpt lat="44.46441" lon="5.85058">
        <ele>1266</ele>
        <time>2022-06-09T21:51:55Z</time>
      </trkpt>
      <trkpt lat="44.46462" lon="5.85059">
        <ele>1266</ele>
        <time>2022-06-09T21:52:00Z</time>
      </trkpt>
      <trkpt lat="44.46494" lon="5.85066">
        <ele>1264</ele>
        <time>2022-06-09T21:52:08Z</time>
      </trkpt>
      <trkpt lat="44.46524" lon="5.85064">
        <ele>1266</ele>
        <time>2022-06-09T21:52:15Z</time>
      </trkpt>
      <trkpt lat="44.46549" lon="5.85067">
        <ele>1266</ele>
        <time>2022-06-09T21:52:21Z</time>
      </trkpt>
      <trkpt lat="44.46592" lon="5.8506">
        <ele>1271</ele>
        <time>2022-06-09T21:52:31Z</time>
      </trkpt>
      <trkpt lat="44.46615" lon="5.85065">
        <ele>1269</ele>
        <time>2022-06-09T21:52:36Z</time>
      </trkpt>
      <trkpt lat="44.46623" lon="5.8506">
        <ele>1271</ele>
        <time>2022-06-09T21:52:38Z</time>
      </trkpt>
      <trkpt lat="44.46622" lon="5.85054">
        <ele>1273</ele>
        <time>2022-06-09T21:52:39Z</time>
      </trkpt>
      <trkpt lat="44.46617" lon="5.85054">
        <ele>1273</ele>
        <time>2022-06-09T21:52:41Z</time>
      </trkpt>
      <trkpt lat="44.46605" lon="5.85045">
        <ele>1277</ele>
        <time>2022-06-09T21:52:44Z</time>
      </trkpt>
      <trkpt lat="44.46578" lon="5.85033">
        <ele>1281</ele>
        <time>2022-06-09T21:52:50Z</time>
      </trkpt>
      <trkpt lat="44.46554" lon="5.85032">
        <ele>1280</ele>
        <time>2022-06-09T21:52:56Z</time>
      </trkpt>
      <trkpt lat="44.46546" lon="5.85026">
        <ele>1282</ele>
        <time>2022-06-09T21:52:58Z</time>
      </trkpt>
      <trkpt lat="44.46537" lon="5.85024">
        <ele>1282</ele>
        <time>2022-06-09T21:53:00Z</time>
      </trkpt>
      <trkpt lat="44.46519" lon="5.85011">
        <ele>1285</ele>
        <time>2022-06-09T21:53:05Z</time>
      </trkpt>
      <trkpt lat="44.46494" lon="5.84999">
        <ele>1288</ele>
        <time>2022-06-09T21:53:11Z</time>
      </trkpt>
      <trkpt lat="44.4648" lon="5.84983">
        <ele>1292</ele>
        <time>2022-06-09T21:53:15Z</time>
      </trkpt>
      <trkpt lat="44.46467" lon="5.84975">
        <ele>1294</ele>
        <time>2022-06-09T21:53:19Z</time>
      </trkpt>
      <trkpt lat="44.4646" lon="5.84967">
        <ele>1296</ele>
        <time>2022-06-09T21:53:21Z</time>
      </trkpt>
      <trkpt lat="44.46427" lon="5.84942">
        <ele>1299</ele>
        <time>2022-06-09T21:53:29Z</time>
      </trkpt>
      <trkpt lat="44.4641" lon="5.84939">
        <ele>1299</ele>
        <time>2022-06-09T21:53:33Z</time>
      </trkpt>
      <trkpt lat="44.46402" lon="5.84934">
        <ele>1302</ele>
        <time>2022-06-09T21:53:36Z</time>
      </trkpt>
      <trkpt lat="44.46388" lon="5.84932">
        <ele>1305</ele>
        <time>2022-06-09T21:53:39Z</time>
      </trkpt>
      <trkpt lat="44.46345" lon="5.84939">
        <ele>1310</ele>
        <time>2022-06-09T21:53:49Z</time>
      </trkpt>
      <trkpt lat="44.46239" lon="5.84967">
        <ele>1331</ele>
        <time>2022-06-09T21:54:14Z</time>
      </trkpt>
      <trkpt lat="44.46234" lon="5.84973">
        <ele>1331</ele>
        <time>2022-06-09T21:54:16Z</time>
      </trkpt>
      <trkpt lat="44.4622" lon="5.85005">
        <ele>1330</ele>
        <time>2022-06-09T21:54:22Z</time>
      </trkpt>
      <trkpt lat="44.46212" lon="5.85015">
        <ele>1332</ele>
        <time>2022-06-09T21:54:24Z</time>
      </trkpt>
      <trkpt lat="44.46207" lon="5.85043">
        <ele>1332</ele>
        <time>2022-06-09T21:54:29Z</time>
      </trkpt>
      <trkpt lat="44.46203" lon="5.85044">
        <ele>1334</ele>
        <time>2022-06-09T21:54:30Z</time>
      </trkpt>
      <trkpt lat="44.46201" lon="5.85025">
        <ele>1335</ele>
        <time>2022-06-09T21:54:33Z</time>
      </trkpt>
      <trkpt lat="44.46204" lon="5.85015">
        <ele>1335</ele>
        <time>2022-06-09T21:54:35Z</time>
      </trkpt>
      <trkpt lat="44.46201" lon="5.85005">
        <ele>1336</ele>
        <time>2022-06-09T21:54:37Z</time>
      </trkpt>
      <trkpt lat="44.462" lon="5.84981">
        <ele>1340</ele>
        <time>2022-06-09T21:54:41Z</time>
      </trkpt>
      <trkpt lat="44.46201" lon="5.8495">
        <ele>1346</ele>
        <time>2022-06-09T21:54:46Z</time>
      </trkpt>
      <trkpt lat="44.46219" lon="5.8491">
        <ele>1349</ele>
        <time>2022-06-09T21:54:54Z</time>
      </trkpt>
      <trkpt lat="44.46269" lon="5.84864">
        <ele>1352</ele>
        <time>2022-06-09T21:55:08Z</time>
      </trkpt>
      <trkpt lat="44.46272" lon="5.84855">
        <ele>1354</ele>
        <time>2022-06-09T21:55:10Z</time>
      </trkpt>
      <trkpt lat="44.4627" lon="5.84853">
        <ele>1355</ele>
        <time>2022-06-09T21:55:10Z</time>
      </trkpt>
      <trkpt lat="44.46255" lon="5.84858">
        <ele>1357</ele>
        <time>2022-06-09T21:55:14Z</time>
      </trkpt>
      <trkpt lat="44.46234" lon="5.84861">
        <ele>1361</ele>
        <time>2022-06-09T21:55:19Z</time>
      </trkpt>
      <trkpt lat="44.46223" lon="5.84869">
        <ele>1361</ele>
        <time>2022-06-09T21:55:22Z</time>
      </trkpt>
      <trkpt lat="44.46205" lon="5.84873">
        <ele>1364</ele>
        <time>2022-06-09T21:55:26Z</time>
      </trkpt>
      <trkpt lat="44.46174" lon="5.84885">
        <ele>1368</ele>
        <time>2022-06-09T21:55:33Z</time>
      </trkpt>
      <trkpt lat="44.46147" lon="5.84907">
        <ele>1373</ele>
        <time>2022-06-09T21:55:41Z</time>
      </trkpt>
      <trkpt lat="44.46132" lon="5.84947">
        <ele>1375</ele>
        <time>2022-06-09T21:55:48Z</time>
      </trkpt>
      <trkpt lat="44.46127" lon="5.84955">
        <ele>1377</ele>
        <time>2022-06-09T21:55:50Z</time>
      </trkpt>
      <trkpt lat="44.46126" lon="5.84965">
        <ele>1377</ele>
        <time>2022-06-09T21:55:52Z</time>
      </trkpt>
      <trkpt lat="44.4611" lon="5.85009">
        <ele>1384</ele>
        <time>2022-06-09T21:56:00Z</time>
      </trkpt>
      <trkpt lat="44.46108" lon="5.85024">
        <ele>1385</ele>
        <time>2022-06-09T21:56:02Z</time>
      </trkpt>
      <trkpt lat="44.46102" lon="5.85039">
        <ele>1389</ele>
        <time>2022-06-09T21:56:05Z</time>
      </trkpt>
      <trkpt lat="44.46099" lon="5.85055">
        <ele>1391</ele>
        <time>2022-06-09T21:56:08Z</time>
      </trkpt>
      <trkpt lat="44.46092" lon="5.85068">
        <ele>1396</ele>
        <time>2022-06-09T21:56:11Z</time>
      </trkpt>
      <trkpt lat="44.46088" lon="5.85112">
        <ele>1400</ele>
        <time>2022-06-09T21:56:18Z</time>
      </trkpt>
      <trkpt lat="44.46076" lon="5.85128">
        <ele>1408</ele>
        <time>2022-06-09T21:56:22Z</time>
      </trkpt>
      <trkpt lat="44.46076" lon="5.85175">
        <ele>1411</ele>
        <time>2022-06-09T21:56:30Z</time>
      </trkpt>
      <trkpt lat="44.46083" lon="5.85204">
        <ele>1411</ele>
        <time>2022-06-09T21:56:35Z</time>
      </trkpt>
      <trkpt lat="44.46079" lon="5.85235">
        <ele>1417</ele>
        <time>2022-06-09T21:56:40Z</time>
      </trkpt>
      <trkpt lat="44.4608" lon="5.85265">
        <ele>1421</ele>
        <time>2022-06-09T21:56:45Z</time>
      </trkpt>
      <trkpt lat="44.46095" lon="5.85385">
        <ele>1422</ele>
        <time>2022-06-09T21:57:06Z</time>
      </trkpt>
      <trkpt lat="44.46094" lon="5.85408">
        <ele>1424</ele>
        <time>2022-06-09T21:57:09Z</time>
      </trkpt>
      <trkpt lat="44.46097" lon="5.85444">
        <ele>1424</ele>
        <time>2022-06-09T21:57:15Z</time>
      </trkpt>
      <trkpt lat="44.46093" lon="5.85471">
        <ele>1426</ele>
        <time>2022-06-09T21:57:20Z</time>
      </trkpt>
      <trkpt lat="44.46081" lon="5.85495">
        <ele>1429</ele>
        <time>2022-06-09T21:57:25Z</time>
      </trkpt>
      <trkpt lat="44.46078" lon="5.85511">
        <ele>1429</ele>
        <time>2022-06-09T21:57:28Z</time>
      </trkpt>
      <trkpt lat="44.46074" lon="5.85553">
        <ele>1429</ele>
        <time>2022-06-09T21:57:35Z</time>
      </trkpt>
      <trkpt lat="44.46075" lon="5.85564">
        <ele>1429</ele>
        <time>2022-06-09T21:57:37Z</time>
      </trkpt>
      <trkpt lat="44.46072" lon="5.85574">
        <ele>1428</ele>
        <time>2022-06-09T21:57:38Z</time>
      </trkpt>
      <trkpt lat="44.46064" lon="5.85584">
        <ele>1426</ele>
        <time>2022-06-09T21:57:41Z</time>
      </trkpt>
      <trkpt lat="44.46064" lon="5.85602">
        <ele>1424</ele>
        <time>2022-06-09T21:57:44Z</time>
      </trkpt>
      <trkpt lat="44.46056" lon="5.8563">
        <ele>1419</ele>
        <time>2022-06-09T21:57:49Z</time>
      </trkpt>
      <trkpt lat="44.46056" lon="5.85637">
        <ele>1418</ele>
        <time>2022-06-09T21:57:50Z</time>
      </trkpt>
      <trkpt lat="44.46052" lon="5.85643">
        <ele>1416</ele>
        <time>2022-06-09T21:57:51Z</time>
      </trkpt>
      <trkpt lat="44.46052" lon="5.85658">
        <ele>1414</ele>
        <time>2022-06-09T21:57:54Z</time>
      </trkpt>
      <trkpt lat="44.46043" lon="5.85711">
        <ele>1407</ele>
        <time>2022-06-09T21:58:03Z</time>
      </trkpt>
      <trkpt lat="44.46042" lon="5.85744">
        <ele>1404</ele>
        <time>2022-06-09T21:58:09Z</time>
      </trkpt>
      <trkpt lat="44.46044" lon="5.85742">
        <ele>1404</ele>
        <time>2022-06-09T21:58:09Z</time>
      </trkpt>
      <trkpt lat="44.4604" lon="5.8574">
        <ele>1404</ele>
        <time>2022-06-09T21:58:10Z</time>
      </trkpt>
      <trkpt lat="44.46035" lon="5.85744">
        <ele>1403</ele>
        <time>2022-06-09T21:58:11Z</time>
      </trkpt>
      <trkpt lat="44.46032" lon="5.85742">
        <ele>1403</ele>
        <time>2022-06-09T21:58:12Z</time>
      </trkpt>
      <trkpt lat="44.46025" lon="5.85744">
        <ele>1402</ele>
        <time>2022-06-09T21:58:14Z</time>
      </trkpt>
      <trkpt lat="44.46025" lon="5.85742">
        <ele>1402</ele>
        <time>2022-06-09T21:58:14Z</time>
      </trkpt>
      <trkpt lat="44.46016" lon="5.85745">
        <ele>1401</ele>
        <time>2022-06-09T21:58:16Z</time>
      </trkpt>
      <trkpt lat="44.45996" lon="5.85732">
        <ele>1399</ele>
        <time>2022-06-09T21:58:22Z</time>
      </trkpt>
      <trkpt lat="44.45973" lon="5.85697">
        <ele>1399</ele>
        <time>2022-06-09T21:58:29Z</time>
      </trkpt>
      <trkpt lat="44.45958" lon="5.85683">
        <ele>1398</ele>
        <time>2022-06-09T21:58:34Z</time>
      </trkpt>
      <trkpt lat="44.45941" lon="5.85671">
        <ele>1396</ele>
        <time>2022-06-09T21:58:38Z</time>
      </trkpt>
      <trkpt lat="44.45928" lon="5.85658">
        <ele>1394</ele>
        <time>2022-06-09T21:58:42Z</time>
      </trkpt>
      <trkpt lat="44.45898" lon="5.85638">
        <ele>1394</ele>
        <time>2022-06-09T21:58:50Z</time>
      </trkpt>
      <trkpt lat="44.45878" lon="5.85619">
        <ele>1391</ele>
        <time>2022-06-09T21:58:55Z</time>
      </trkpt>
      <trkpt lat="44.45834" lon="5.85565">
        <ele>1376</ele>
        <time>2022-06-09T21:59:09Z</time>
      </trkpt>
      <trkpt lat="44.45809" lon="5.85551">
        <ele>1374</ele>
        <time>2022-06-09T21:59:15Z</time>
      </trkpt>
      <trkpt lat="44.45795" lon="5.85536">
        <ele>1369</ele>
        <time>2022-06-09T21:59:19Z</time>
      </trkpt>
      <trkpt lat="44.45793" lon="5.85532">
        <ele>1368</ele>
        <time>2022-06-09T21:59:20Z</time>
      </trkpt>
      <trkpt lat="44.45795" lon="5.85504">
        <ele>1363</ele>
        <time>2022-06-09T21:59:25Z</time>
      </trkpt>
      <trkpt lat="44.4579" lon="5.85494">
        <ele>1361</ele>
        <time>2022-06-09T21:59:27Z</time>
      </trkpt>
      <trkpt lat="44.45786" lon="5.85492">
        <ele>1360</ele>
        <time>2022-06-09T21:59:28Z</time>
      </trkpt>
      <trkpt lat="44.45781" lon="5.85482">
        <ele>1358</ele>
        <time>2022-06-09T21:59:30Z</time>
      </trkpt>
      <trkpt lat="44.45769" lon="5.85477">
        <ele>1354</ele>
        <time>2022-06-09T21:59:33Z</time>
      </trkpt>
      <trkpt lat="44.45753" lon="5.85461">
        <ele>1346</ele>
        <time>2022-06-09T21:59:37Z</time>
      </trkpt>
      <trkpt lat="44.45742" lon="5.85437">
        <ele>1340</ele>
        <time>2022-06-09T21:59:42Z</time>
      </trkpt>
      <trkpt lat="44.4574" lon="5.85426">
        <ele>1338</ele>
        <time>2022-06-09T21:59:44Z</time>
      </trkpt>
      <trkpt lat="44.45725" lon="5.85415">
        <ele>1333</ele>
        <time>2022-06-09T21:59:48Z</time>
      </trkpt>
      <trkpt lat="44.45717" lon="5.85402">
        <ele>1330</ele>
        <time>2022-06-09T21:59:51Z</time>
      </trkpt>
      <trkpt lat="44.45699" lon="5.85386">
        <ele>1323</ele>
        <time>2022-06-09T21:59:56Z</time>
      </trkpt>
      <trkpt lat="44.45681" lon="5.85364">
        <ele>1313</ele>
        <time>2022-06-09T22:00:01Z</time>
      </trkpt>
      <trkpt lat="44.45677" lon="5.85361">
        <ele>1311</ele>
        <time>2022-06-09T22:00:02Z</time>
      </trkpt>
      <trkpt lat="44.45672" lon="5.85363">
        <ele>1309</ele>
        <time>2022-06-09T22:00:04Z</time>
      </trkpt>
      <trkpt lat="44.4565" lon="5.85327">
        <ele>1301</ele>
        <time>2022-06-09T22:00:12Z</time>
      </trkpt>
      <trkpt lat="44.45624" lon="5.85297">
        <ele>1295</ele>
        <time>2022-06-09T22:00:19Z</time>
      </trkpt>
      <trkpt lat="44.4561" lon="5.85276">
        <ele>1288</ele>
        <time>2022-06-09T22:00:24Z</time>
      </trkpt>
      <trkpt lat="44.45608" lon="5.85268">
        <ele>1286</ele>
        <time>2022-06-09T22:00:26Z</time>
      </trkpt>
      <trkpt lat="44.45608" lon="5.85236">
        <ele>1281</ele>
        <time>2022-06-09T22:00:31Z</time>
      </trkpt>
      <trkpt lat="44.45599" lon="5.85225">
        <ele>1276</ele>
        <time>2022-06-09T22:00:34Z</time>
      </trkpt>
      <trkpt lat="44.45591" lon="5.8523">
        <ele>1273</ele>
        <time>2022-06-09T22:00:36Z</time>
      </trkpt>
      <trkpt lat="44.45579" lon="5.85226">
        <ele>1270</ele>
        <time>2022-06-09T22:00:39Z</time>
      </trkpt>
      <trkpt lat="44.45575" lon="5.85212">
        <ele>1267</ele>
        <time>2022-06-09T22:00:41Z</time>
      </trkpt>
      <trkpt lat="44.45565" lon="5.85199">
        <ele>1263</ele>
        <time>2022-06-09T22:00:44Z</time>
      </trkpt>
      <trkpt lat="44.45565" lon="5.85185">
        <ele>1260</ele>
        <time>2022-06-09T22:00:47Z</time>
      </trkpt>
      <trkpt lat="44.45551" lon="5.85165">
        <ele>1252</ele>
        <time>2022-06-09T22:00:51Z</time>
      </trkpt>
      <trkpt lat="44.45546" lon="5.85149">
        <ele>1251</ele>
        <time>2022-06-09T22:00:54Z</time>
      </trkpt>
      <trkpt lat="44.45506" lon="5.851">
        <ele>1231</ele>
        <time>2022-06-09T22:01:07Z</time>
      </trkpt>
      <trkpt lat="44.45481" lon="5.85078">
        <ele>1220</ele>
        <time>2022-06-09T22:01:14Z</time>
      </trkpt>
      <trkpt lat="44.45471" lon="5.85074">
        <ele>1217</ele>
        <time>2022-06-09T22:01:16Z</time>
      </trkpt>
      <trkpt lat="44.4546" lon="5.85073">
        <ele>1214</ele>
        <time>2022-06-09T22:01:19Z</time>
      </trkpt>
      <trkpt lat="44.45424" lon="5.85057">
        <ele>1202</ele>
        <time>2022-06-09T22:01:27Z</time>
      </trkpt>
      <trkpt lat="44.45412" lon="5.85039">
        <ele>1198</ele>
        <time>2022-06-09T22:01:32Z</time>
      </trkpt>
      <trkpt lat="44.4539" lon="5.85018">
        <ele>1192</ele>
        <time>2022-06-09T22:01:38Z</time>
      </trkpt>
      <trkpt lat="44.45371" lon="5.85009">
        <ele>1186</ele>
        <time>2022-06-09T22:01:42Z</time>
      </trkpt>
      <trkpt lat="44.45353" lon="5.85005">
        <ele>1181</ele>
        <time>2022-06-09T22:01:47Z</time>
      </trkpt>
      <trkpt lat="44.45338" lon="5.85005">
        <ele>1177</ele>
        <time>2022-06-09T22:01:50Z</time>
      </trkpt>
      <trkpt lat="44.45322" lon="5.85011">
        <ele>1176</ele>
        <time>2022-06-09T22:01:54Z</time>
      </trkpt>
      <trkpt lat="44.45313" lon="5.85008">
        <ele>1173</ele>
        <time>2022-06-09T22:01:56Z</time>
      </trkpt>
      <trkpt lat="44.45297" lon="5.84992">
        <ele>1168</ele>
        <time>2022-06-09T22:02:01Z</time>
      </trkpt>
      <trkpt lat="44.45282" lon="5.84966">
        <ele>1165</ele>
        <time>2022-06-09T22:02:06Z</time>
      </trkpt>
      <trkpt lat="44.4528" lon="5.84965">
        <ele>1164</ele>
        <time>2022-06-09T22:02:07Z</time>
      </trkpt>
      <trkpt lat="44.45279" lon="5.84968">
        <ele>1164</ele>
        <time>2022-06-09T22:02:07Z</time>
      </trkpt>
      <trkpt lat="44.45282" lon="5.84981">
        <ele>1165</ele>
        <time>2022-06-09T22:02:10Z</time>
      </trkpt>
      <trkpt lat="44.45279" lon="5.84987">
        <ele>1164</ele>
        <time>2022-06-09T22:02:11Z</time>
      </trkpt>
      <trkpt lat="44.45276" lon="5.84987">
        <ele>1164</ele>
        <time>2022-06-09T22:02:12Z</time>
      </trkpt>
      <trkpt lat="44.45249" lon="5.84968">
        <ele>1157</ele>
        <time>2022-06-09T22:02:19Z</time>
      </trkpt>
      <trkpt lat="44.45228" lon="5.84946">
        <ele>1152</ele>
        <time>2022-06-09T22:02:25Z</time>
      </trkpt>
      <trkpt lat="44.45212" lon="5.84934">
        <ele>1149</ele>
        <time>2022-06-09T22:02:29Z</time>
      </trkpt>
      <trkpt lat="44.45207" lon="5.84937">
        <ele>1149</ele>
        <time>2022-06-09T22:02:30Z</time>
      </trkpt>
      <trkpt lat="44.452" lon="5.84951">
        <ele>1148</ele>
        <time>2022-06-09T22:02:33Z</time>
      </trkpt>
      <trkpt lat="44.45176" lon="5.84981">
        <ele>1145</ele>
        <time>2022-06-09T22:02:41Z</time>
      </trkpt>
      <trkpt lat="44.45174" lon="5.84981">
        <ele>1145</ele>
        <time>2022-06-09T22:02:41Z</time>
      </trkpt>
      <trkpt lat="44.45164" lon="5.84965">
        <ele>1144</ele>
        <time>2022-06-09T22:02:45Z</time>
      </trkpt>
      <trkpt lat="44.45162" lon="5.84967">
        <ele>1145</ele>
        <time>2022-06-09T22:02:45Z</time>
      </trkpt>
      <trkpt lat="44.45158" lon="5.8498">
        <ele>1147</ele>
        <time>2022-06-09T22:02:48Z</time>
      </trkpt>
      <trkpt lat="44.45152" lon="5.84983">
        <ele>1149</ele>
        <time>2022-06-09T22:02:49Z</time>
      </trkpt>
      <trkpt lat="44.45141" lon="5.85002">
        <ele>1154</ele>
        <time>2022-06-09T22:02:53Z</time>
      </trkpt>
      <trkpt lat="44.45113" lon="5.85062">
        <ele>1167</ele>
        <time>2022-06-09T22:03:05Z</time>
      </trkpt>
      <trkpt lat="44.45092" lon="5.85083">
        <ele>1169</ele>
        <time>2022-06-09T22:03:11Z</time>
      </trkpt>
      <trkpt lat="44.45089" lon="5.85095">
        <ele>1169</ele>
        <time>2022-06-09T22:03:13Z</time>
      </trkpt>
      <trkpt lat="44.45089" lon="5.85117">
        <ele>1167</ele>
        <time>2022-06-09T22:03:17Z</time>
      </trkpt>
      <trkpt lat="44.45081" lon="5.8515">
        <ele>1165</ele>
        <time>2022-06-09T22:03:23Z</time>
      </trkpt>
      <trkpt lat="44.45079" lon="5.85187">
        <ele>1165</ele>
        <time>2022-06-09T22:03:29Z</time>
      </trkpt>
      <trkpt lat="44.45059" lon="5.8525">
        <ele>1176</ele>
        <time>2022-06-09T22:03:40Z</time>
      </trkpt>
      <trkpt lat="44.45059" lon="5.85264">
        <ele>1177</ele>
        <time>2022-06-09T22:03:43Z</time>
      </trkpt>
      <trkpt lat="44.45061" lon="5.85267">
        <ele>1176</ele>
        <time>2022-06-09T22:03:44Z</time>
      </trkpt>
      <trkpt lat="44.45062" lon="5.85263">
        <ele>1176</ele>
        <time>2022-06-09T22:03:44Z</time>
      </trkpt>
      <trkpt lat="44.45069" lon="5.8528">
        <ele>1174</ele>
        <time>2022-06-09T22:03:47Z</time>
      </trkpt>
      <trkpt lat="44.4508" lon="5.85323">
        <ele>1172</ele>
        <time>2022-06-09T22:03:55Z</time>
      </trkpt>
      <trkpt lat="44.45078" lon="5.85354">
        <ele>1176</ele>
        <time>2022-06-09T22:04:00Z</time>
      </trkpt>
      <trkpt lat="44.45083" lon="5.85382">
        <ele>1176</ele>
        <time>2022-06-09T22:04:05Z</time>
      </trkpt>
      <trkpt lat="44.45087" lon="5.8539">
        <ele>1178</ele>
        <time>2022-06-09T22:04:07Z</time>
      </trkpt>
      <trkpt lat="44.45087" lon="5.854">
        <ele>1178</ele>
        <time>2022-06-09T22:04:08Z</time>
      </trkpt>
      <trkpt lat="44.45084" lon="5.85408">
        <ele>1178</ele>
        <time>2022-06-09T22:04:10Z</time>
      </trkpt>
      <trkpt lat="44.45075" lon="5.85415">
        <ele>1181</ele>
        <time>2022-06-09T22:04:12Z</time>
      </trkpt>
      <trkpt lat="44.45072" lon="5.85421">
        <ele>1183</ele>
        <time>2022-06-09T22:04:14Z</time>
      </trkpt>
      <trkpt lat="44.4507" lon="5.85447">
        <ele>1185</ele>
        <time>2022-06-09T22:04:18Z</time>
      </trkpt>
      <trkpt lat="44.45067" lon="5.85464">
        <ele>1188</ele>
        <time>2022-06-09T22:04:21Z</time>
      </trkpt>
      <trkpt lat="44.45063" lon="5.85471">
        <ele>1189</ele>
        <time>2022-06-09T22:04:22Z</time>
      </trkpt>
      <trkpt lat="44.45064" lon="5.85474">
        <ele>1189</ele>
        <time>2022-06-09T22:04:23Z</time>
      </trkpt>
      <trkpt lat="44.45062" lon="5.85476">
        <ele>1190</ele>
        <time>2022-06-09T22:04:23Z</time>
      </trkpt>
      <trkpt lat="44.45067" lon="5.85453">
        <ele>1187</ele>
        <time>2022-06-09T22:04:27Z</time>
      </trkpt>
      <trkpt lat="44.45064" lon="5.85465">
        <ele>1189</ele>
        <time>2022-06-09T22:04:30Z</time>
      </trkpt>
      <trkpt lat="44.45045" lon="5.85494">
        <ele>1196</ele>
        <time>2022-06-09T22:04:36Z</time>
      </trkpt>
      <trkpt lat="44.45042" lon="5.85558">
        <ele>1200</ele>
        <time>2022-06-09T22:04:47Z</time>
      </trkpt>
      <trkpt lat="44.45035" lon="5.85575">
        <ele>1201</ele>
        <time>2022-06-09T22:04:50Z</time>
      </trkpt>
      <trkpt lat="44.45024" lon="5.85596">
        <ele>1202</ele>
        <time>2022-06-09T22:04:54Z</time>
      </trkpt>
      <trkpt lat="44.4501" lon="5.85614">
        <ele>1200</ele>
        <time>2022-06-09T22:04:59Z</time>
      </trkpt>
      <trkpt lat="44.45006" lon="5.85618">
        <ele>1199</ele>
        <time>2022-06-09T22:05:00Z</time>
      </trkpt>
      <trkpt lat="44.44995" lon="5.85621">
        <ele>1199</ele>
        <time>2022-06-09T22:05:03Z</time>
      </trkpt>
      <trkpt lat="44.44988" lon="5.85626">
        <ele>1200</ele>
        <time>2022-06-09T22:05:04Z</time>
      </trkpt>
      <trkpt lat="44.4498" lon="5.85654">
        <ele>1199</ele>
        <time>2022-06-09T22:05:09Z</time>
      </trkpt>
      <trkpt lat="44.44967" lon="5.85665">
        <ele>1199</ele>
        <time>2022-06-09T22:05:13Z</time>
      </trkpt>
      <trkpt lat="44.44951" lon="5.85684">
        <ele>1203</ele>
        <time>2022-06-09T22:05:18Z</time>
      </trkpt>
      <trkpt lat="44.44919" lon="5.85736">
        <ele>1203</ele>
        <time>2022-06-09T22:05:29Z</time>
      </trkpt>
      <trkpt lat="44.44902" lon="5.85759">
        <ele>1206</ele>
        <time>2022-06-09T22:05:35Z</time>
      </trkpt>
      <trkpt lat="44.44896" lon="5.85773">
        <ele>1209</ele>
        <time>2022-06-09T22:05:38Z</time>
      </trkpt>
      <trkpt lat="44.44895" lon="5.85817">
        <ele>1216</ele>
        <time>2022-06-09T22:05:45Z</time>
      </trkpt>
      <trkpt lat="44.44882" lon="5.85838">
        <ele>1222</ele>
        <time>2022-06-09T22:05:50Z</time>
      </trkpt>
      <trkpt lat="44.44873" lon="5.8586">
        <ele>1226</ele>
        <time>2022-06-09T22:05:54Z</time>
      </trkpt>
      <trkpt lat="44.44873" lon="5.85873">
        <ele>1228</ele>
        <time>2022-06-09T22:05:56Z</time>
      </trkpt>
      <trkpt lat="44.4487" lon="5.85881">
        <ele>1230</ele>
        <time>2022-06-09T22:05:57Z</time>
      </trkpt>
      <trkpt lat="44.4487" lon="5.85888">
        <ele>1231</ele>
        <time>2022-06-09T22:05:59Z</time>
      </trkpt>
      <trkpt lat="44.44878" lon="5.85906">
        <ele>1233</ele>
        <time>2022-06-09T22:06:02Z</time>
      </trkpt>
      <trkpt lat="44.44877" lon="5.8592">
        <ele>1235</ele>
        <time>2022-06-09T22:06:05Z</time>
      </trkpt>
      <trkpt lat="44.4487" lon="5.85936">
        <ele>1236</ele>
        <time>2022-06-09T22:06:08Z</time>
      </trkpt>
      <trkpt lat="44.44867" lon="5.85955">
        <ele>1238</ele>
        <time>2022-06-09T22:06:11Z</time>
      </trkpt>
      <trkpt lat="44.44837" lon="5.86005">
        <ele>1237</ele>
        <time>2022-06-09T22:06:22Z</time>
      </trkpt>
      <trkpt lat="44.4483" lon="5.86011">
        <ele>1238</ele>
        <time>2022-06-09T22:06:24Z</time>
      </trkpt>
      <trkpt lat="44.44827" lon="5.86009">
        <ele>1240</ele>
        <time>2022-06-09T22:06:24Z</time>
      </trkpt>
      <trkpt lat="44.44829" lon="5.85978">
        <ele>1238</ele>
        <time>2022-06-09T22:06:30Z</time>
      </trkpt>
      <trkpt lat="44.44835" lon="5.85944">
        <ele>1236</ele>
        <time>2022-06-09T22:06:36Z</time>
      </trkpt>
      <trkpt lat="44.44848" lon="5.85891">
        <ele>1233</ele>
        <time>2022-06-09T22:06:45Z</time>
      </trkpt>
      <trkpt lat="44.44839" lon="5.85875">
        <ele>1232</ele>
        <time>2022-06-09T22:06:48Z</time>
      </trkpt>
      <trkpt lat="44.44834" lon="5.85846">
        <ele>1230</ele>
        <time>2022-06-09T22:06:53Z</time>
      </trkpt>
      <trkpt lat="44.44827" lon="5.85824">
        <ele>1229</ele>
        <time>2022-06-09T22:06:57Z</time>
      </trkpt>
      <trkpt lat="44.44823" lon="5.85818">
        <ele>1229</ele>
        <time>2022-06-09T22:06:59Z</time>
      </trkpt>
      <trkpt lat="44.44813" lon="5.85811">
        <ele>1230</ele>
        <time>2022-06-09T22:07:01Z</time>
      </trkpt>
      <trkpt lat="44.44802" lon="5.85809">
        <ele>1232</ele>
        <time>2022-06-09T22:07:04Z</time>
      </trkpt>
      <trkpt lat="44.44783" lon="5.85801">
        <ele>1234</ele>
        <time>2022-06-09T22:07:08Z</time>
      </trkpt>
      <trkpt lat="44.44754" lon="5.85799">
        <ele>1240</ele>
        <time>2022-06-09T22:07:15Z</time>
      </trkpt>
      <trkpt lat="44.44741" lon="5.85802">
        <ele>1244</ele>
        <time>2022-06-09T22:07:18Z</time>
      </trkpt>
      <trkpt lat="44.44717" lon="5.85815">
        <ele>1250</ele>
        <time>2022-06-09T22:07:24Z</time>
      </trkpt>
      <trkpt lat="44.44713" lon="5.85824">
        <ele>1251</ele>
        <time>2022-06-09T22:07:26Z</time>
      </trkpt>
      <trkpt lat="44.44699" lon="5.8584">
        <ele>1255</ele>
        <time>2022-06-09T22:07:30Z</time>
      </trkpt>
      <trkpt lat="44.44686" lon="5.85851">
        <ele>1259</ele>
        <time>2022-06-09T22:07:34Z</time>
      </trkpt>
      <trkpt lat="44.44672" lon="5.85859">
        <ele>1262</ele>
        <time>2022-06-09T22:07:37Z</time>
      </trkpt>
      <trkpt lat="44.44638" lon="5.8589">
        <ele>1272</ele>
        <time>2022-06-09T22:07:47Z</time>
      </trkpt>
      <trkpt lat="44.44623" lon="5.85897">
        <ele>1274</ele>
        <time>2022-06-09T22:07:51Z</time>
      </trkpt>
      <trkpt lat="44.44613" lon="5.85908">
        <ele>1275</ele>
        <time>2022-06-09T22:07:54Z</time>
      </trkpt>
      <trkpt lat="44.44608" lon="5.85921">
        <ele>1276</ele>
        <time>2022-06-09T22:07:56Z</time>
      </trkpt>
      <trkpt lat="44.44596" lon="5.85937">
        <ele>1282</ele>
        <time>2022-06-09T22:08:00Z</time>
      </trkpt>
      <trkpt lat="44.44592" lon="5.85937">
        <ele>1282</ele>
        <time>2022-06-09T22:08:01Z</time>
      </trkpt>
      <trkpt lat="44.44584" lon="5.85931">
        <ele>1280</ele>
        <time>2022-06-09T22:08:03Z</time>
      </trkpt>
      <trkpt lat="44.44561" lon="5.85934">
        <ele>1283</ele>
        <time>2022-06-09T22:08:08Z</time>
      </trkpt>
      <trkpt lat="44.44553" lon="5.85941">
        <ele>1285</ele>
        <time>2022-06-09T22:08:11Z</time>
      </trkpt>
      <trkpt lat="44.44532" lon="5.8595">
        <ele>1288</ele>
        <time>2022-06-09T22:08:16Z</time>
      </trkpt>
      <trkpt lat="44.44525" lon="5.8596">
        <ele>1290</ele>
        <time>2022-06-09T22:08:18Z</time>
      </trkpt>
      <trkpt lat="44.44509" lon="5.85973">
        <ele>1290</ele>
        <time>2022-06-09T22:08:22Z</time>
      </trkpt>
      <trkpt lat="44.44506" lon="5.85973">
        <ele>1290</ele>
        <time>2022-06-09T22:08:23Z</time>
      </trkpt>
      <trkpt lat="44.44507" lon="5.85969">
        <ele>1290</ele>
        <time>2022-06-09T22:08:24Z</time>
      </trkpt>
      <trkpt lat="44.44505" lon="5.85972">
        <ele>1290</ele>
        <time>2022-06-09T22:08:24Z</time>
      </trkpt>
      <trkpt lat="44.44493" lon="5.85973">
        <ele>1290</ele>
        <time>2022-06-09T22:08:27Z</time>
      </trkpt>
      <trkpt lat="44.44487" lon="5.85978">
        <ele>1290</ele>
        <time>2022-06-09T22:08:29Z</time>
      </trkpt>
      <trkpt lat="44.44443" lon="5.85997">
        <ele>1288</ele>
        <time>2022-06-09T22:08:40Z</time>
      </trkpt>
      <trkpt lat="44.44425" lon="5.86022">
        <ele>1287</ele>
        <time>2022-06-09T22:08:45Z</time>
      </trkpt>
      <trkpt lat="44.44422" lon="5.86023">
        <ele>1287</ele>
        <time>2022-06-09T22:08:46Z</time>
      </trkpt>
      <trkpt lat="44.44414" lon="5.86024">
        <ele>1287</ele>
        <time>2022-06-09T22:08:48Z</time>
      </trkpt>
      <trkpt lat="44.44405" lon="5.86015">
        <ele>1289</ele>
        <time>2022-06-09T22:08:51Z</time>
      </trkpt>
      <trkpt lat="44.44401" lon="5.85997">
        <ele>1292</ele>
        <time>2022-06-09T22:08:54Z</time>
      </trkpt>
      <trkpt lat="44.44396" lon="5.8599">
        <ele>1295</ele>
        <time>2022-06-09T22:08:55Z</time>
      </trkpt>
      <trkpt lat="44.44384" lon="5.85992">
        <ele>1299</ele>
        <time>2022-06-09T22:08:58Z</time>
      </trkpt>
      <trkpt lat="44.44371" lon="5.85988">
        <ele>1304</ele>
        <time>2022-06-09T22:09:01Z</time>
      </trkpt>
      <trkpt lat="44.44346" lon="5.86004">
        <ele>1307</ele>
        <time>2022-06-09T22:09:08Z</time>
      </trkpt>
      <trkpt lat="44.44341" lon="5.86011">
        <ele>1307</ele>
        <time>2022-06-09T22:09:09Z</time>
      </trkpt>
      <trkpt lat="44.44337" lon="5.8603">
        <ele>1305</ele>
        <time>2022-06-09T22:09:13Z</time>
      </trkpt>
      <trkpt lat="44.44321" lon="5.8605">
        <ele>1306</ele>
        <time>2022-06-09T22:09:18Z</time>
      </trkpt>
      <trkpt lat="44.44316" lon="5.86071">
        <ele>1303</ele>
        <time>2022-06-09T22:09:21Z</time>
      </trkpt>
      <trkpt lat="44.44301" lon="5.86086">
        <ele>1305</ele>
        <time>2022-06-09T22:09:26Z</time>
      </trkpt>
      <trkpt lat="44.44288" lon="5.86107">
        <ele>1307</ele>
        <time>2022-06-09T22:09:30Z</time>
      </trkpt>
      <trkpt lat="44.44284" lon="5.86146">
        <ele>1301</ele>
        <time>2022-06-09T22:09:37Z</time>
      </trkpt>
      <trkpt lat="44.44284" lon="5.8618">
        <ele>1297</ele>
        <time>2022-06-09T22:09:43Z</time>
      </trkpt>
      <trkpt lat="44.44271" lon="5.86215">
        <ele>1296</ele>
        <time>2022-06-09T22:09:49Z</time>
      </trkpt>
      <trkpt lat="44.44255" lon="5.86245">
        <ele>1296</ele>
        <time>2022-06-09T22:09:55Z</time>
      </trkpt>
      <trkpt lat="44.4425" lon="5.86261">
        <ele>1295</ele>
        <time>2022-06-09T22:09:58Z</time>
      </trkpt>
      <trkpt lat="44.44257" lon="5.86315">
        <ele>1292</ele>
        <time>2022-06-09T22:10:08Z</time>
      </trkpt>
      <trkpt lat="44.44255" lon="5.86312">
        <ele>1293</ele>
        <time>2022-06-09T22:10:08Z</time>
      </trkpt>
      <trkpt lat="44.44256" lon="5.86296">
        <ele>1293</ele>
        <time>2022-06-09T22:10:11Z</time>
      </trkpt>
      <trkpt lat="44.44252" lon="5.86284">
        <ele>1294</ele>
        <time>2022-06-09T22:10:13Z</time>
      </trkpt>
      <trkpt lat="44.4425" lon="5.86265">
        <ele>1295</ele>
        <time>2022-06-09T22:10:16Z</time>
      </trkpt>
      <trkpt lat="44.44246" lon="5.86269">
        <ele>1297</ele>
        <time>2022-06-09T22:10:17Z</time>
      </trkpt>
      <trkpt lat="44.44246" lon="5.86299">
        <ele>1295</ele>
        <time>2022-06-09T22:10:22Z</time>
      </trkpt>
      <trkpt lat="44.44241" lon="5.86317">
        <ele>1296</ele>
        <time>2022-06-09T22:10:26Z</time>
      </trkpt>
      <trkpt lat="44.44236" lon="5.86327">
        <ele>1298</ele>
        <time>2022-06-09T22:10:28Z</time>
      </trkpt>
      <trkpt lat="44.44227" lon="5.86335">
        <ele>1300</ele>
        <time>2022-06-09T22:10:30Z</time>
      </trkpt>
      <trkpt lat="44.44217" lon="5.86353">
        <ele>1303</ele>
        <time>2022-06-09T22:10:34Z</time>
      </trkpt>
      <trkpt lat="44.44212" lon="5.86383">
        <ele>1303</ele>
        <time>2022-06-09T22:10:39Z</time>
      </trkpt>
      <trkpt lat="44.44212" lon="5.86405">
        <ele>1302</ele>
        <time>2022-06-09T22:10:43Z</time>
      </trkpt>
      <trkpt lat="44.44179" lon="5.86497">
        <ele>1300</ele>
        <time>2022-06-09T22:11:00Z</time>
      </trkpt>
      <trkpt lat="44.44169" lon="5.86512">
        <ele>1300</ele>
        <time>2022-06-09T22:11:03Z</time>
      </trkpt>
      <trkpt lat="44.44164" lon="5.86515">
        <ele>1300</ele>
        <time>2022-06-09T22:11:05Z</time>
      </trkpt>
      <trkpt lat="44.44159" lon="5.86514">
        <ele>1302</ele>
        <time>2022-06-09T22:11:06Z</time>
      </trkpt>
      <trkpt lat="44.44153" lon="5.86509">
        <ele>1305</ele>
        <time>2022-06-09T22:11:07Z</time>
      </trkpt>
      <trkpt lat="44.44133" lon="5.86512">
        <ele>1311</ele>
        <time>2022-06-09T22:11:12Z</time>
      </trkpt>
      <trkpt lat="44.44127" lon="5.86516">
        <ele>1312</ele>
        <time>2022-06-09T22:11:14Z</time>
      </trkpt>
      <trkpt lat="44.44118" lon="5.8655">
        <ele>1309</ele>
        <time>2022-06-09T22:11:20Z</time>
      </trkpt>
      <trkpt lat="44.44106" lon="5.8657">
        <ele>1310</ele>
        <time>2022-06-09T22:11:24Z</time>
      </trkpt>
      <trkpt lat="44.44036" lon="5.86714">
        <ele>1305</ele>
        <time>2022-06-09T22:11:53Z</time>
      </trkpt>
      <trkpt lat="44.44022" lon="5.86734">
        <ele>1304</ele>
        <time>2022-06-09T22:11:58Z</time>
      </trkpt>
      <trkpt lat="44.43999" lon="5.86753">
        <ele>1304</ele>
        <time>2022-06-09T22:12:04Z</time>
      </trkpt>
      <trkpt lat="44.43946" lon="5.86822">
        <ele>1296</ele>
        <time>2022-06-09T22:12:21Z</time>
      </trkpt>
      <trkpt lat="44.43936" lon="5.86837">
        <ele>1295</ele>
        <time>2022-06-09T22:12:24Z</time>
      </trkpt>
      <trkpt lat="44.43936" lon="5.86842">
        <ele>1294</ele>
        <time>2022-06-09T22:12:25Z</time>
      </trkpt>
      <trkpt lat="44.43925" lon="5.8687">
        <ele>1293</ele>
        <time>2022-06-09T22:12:31Z</time>
      </trkpt>
      <trkpt lat="44.43912" lon="5.86895">
        <ele>1290</ele>
        <time>2022-06-09T22:12:36Z</time>
      </trkpt>
      <trkpt lat="44.43897" lon="5.86906">
        <ele>1289</ele>
        <time>2022-06-09T22:12:40Z</time>
      </trkpt>
      <trkpt lat="44.43878" lon="5.86904">
        <ele>1289</ele>
        <time>2022-06-09T22:12:44Z</time>
      </trkpt>
      <trkpt lat="44.4386" lon="5.86906">
        <ele>1288</ele>
        <time>2022-06-09T22:12:48Z</time>
      </trkpt>
      <trkpt lat="44.43856" lon="5.86911">
        <ele>1288</ele>
        <time>2022-06-09T22:12:50Z</time>
      </trkpt>
      <trkpt lat="44.43855" lon="5.86918">
        <ele>1287</ele>
        <time>2022-06-09T22:12:51Z</time>
      </trkpt>
      <trkpt lat="44.43845" lon="5.86928">
        <ele>1287</ele>
        <time>2022-06-09T22:12:54Z</time>
      </trkpt>
      <trkpt lat="44.4383" lon="5.86968">
        <ele>1286</ele>
        <time>2022-06-09T22:13:01Z</time>
      </trkpt>
      <trkpt lat="44.43832" lon="5.86968">
        <ele>1286</ele>
        <time>2022-06-09T22:13:02Z</time>
      </trkpt>
      <trkpt lat="44.43832" lon="5.86971">
        <ele>1286</ele>
        <time>2022-06-09T22:13:02Z</time>
      </trkpt>
      <trkpt lat="44.43842" lon="5.86985">
        <ele>1285</ele>
        <time>2022-06-09T22:13:05Z</time>
      </trkpt>
      <trkpt lat="44.43845" lon="5.86998">
        <ele>1285</ele>
        <time>2022-06-09T22:13:08Z</time>
      </trkpt>
      <trkpt lat="44.43844" lon="5.87013">
        <ele>1285</ele>
        <time>2022-06-09T22:13:10Z</time>
      </trkpt>
      <trkpt lat="44.43857" lon="5.87056">
        <ele>1287</ele>
        <time>2022-06-09T22:13:18Z</time>
      </trkpt>
      <trkpt lat="44.43859" lon="5.8708">
        <ele>1288</ele>
        <time>2022-06-09T22:13:22Z</time>
      </trkpt>
      <trkpt lat="44.43855" lon="5.87092">
        <ele>1289</ele>
        <time>2022-06-09T22:13:24Z</time>
      </trkpt>
      <trkpt lat="44.43857" lon="5.87093">
        <ele>1289</ele>
        <time>2022-06-09T22:13:25Z</time>
      </trkpt>
      <trkpt lat="44.43864" lon="5.87084">
        <ele>1288</ele>
        <time>2022-06-09T22:13:27Z</time>
      </trkpt>
      <trkpt lat="44.4386" lon="5.87081">
        <ele>1288</ele>
        <time>2022-06-09T22:13:28Z</time>
      </trkpt>
      <trkpt lat="44.43857" lon="5.87087">
        <ele>1288</ele>
        <time>2022-06-09T22:13:29Z</time>
      </trkpt>
      <trkpt lat="44.43843" lon="5.87095">
        <ele>1289</ele>
        <time>2022-06-09T22:13:33Z</time>
      </trkpt>
      <trkpt lat="44.43821" lon="5.87101">
        <ele>1290</ele>
        <time>2022-06-09T22:13:38Z</time>
      </trkpt>
      <trkpt lat="44.43803" lon="5.87111">
        <ele>1291</ele>
        <time>2022-06-09T22:13:43Z</time>
      </trkpt>
      <trkpt lat="44.43774" lon="5.87133">
        <ele>1292</ele>
        <time>2022-06-09T22:13:50Z</time>
      </trkpt>
      <trkpt lat="44.43745" lon="5.87162">
        <ele>1293</ele>
        <time>2022-06-09T22:13:59Z</time>
      </trkpt>
      <trkpt lat="44.43731" lon="5.8718">
        <ele>1294</ele>
        <time>2022-06-09T22:14:03Z</time>
      </trkpt>
      <trkpt lat="44.43727" lon="5.8723">
        <ele>1297</ele>
        <time>2022-06-09T22:14:11Z</time>
      </trkpt>
      <trkpt lat="44.43721" lon="5.87242">
        <ele>1298</ele>
        <time>2022-06-09T22:14:14Z</time>
      </trkpt>
      <trkpt lat="44.43713" lon="5.87249">
        <ele>1297</ele>
        <time>2022-06-09T22:14:16Z</time>
      </trkpt>
      <trkpt lat="44.43721" lon="5.87244">
        <ele>1298</ele>
        <time>2022-06-09T22:14:18Z</time>
      </trkpt>
      <trkpt lat="44.43729" lon="5.87229">
        <ele>1297</ele>
        <time>2022-06-09T22:14:21Z</time>
      </trkpt>
      <trkpt lat="44.43736" lon="5.87183">
        <ele>1294</ele>
        <time>2022-06-09T22:14:29Z</time>
      </trkpt>
      <trkpt lat="44.43744" lon="5.87165">
        <ele>1293</ele>
        <time>2022-06-09T22:14:33Z</time>
      </trkpt>
      <trkpt lat="44.43784" lon="5.87127">
        <ele>1292</ele>
        <time>2022-06-09T22:14:44Z</time>
      </trkpt>
      <trkpt lat="44.43804" lon="5.87112">
        <ele>1291</ele>
        <time>2022-06-09T22:14:49Z</time>
      </trkpt>
      <trkpt lat="44.43827" lon="5.87099">
        <ele>1289</ele>
        <time>2022-06-09T22:14:55Z</time>
      </trkpt>
      <trkpt lat="44.43853" lon="5.87091">
        <ele>1289</ele>
        <time>2022-06-09T22:15:01Z</time>
      </trkpt>
      <trkpt lat="44.43862" lon="5.87074">
        <ele>1288</ele>
        <time>2022-06-09T22:15:05Z</time>
      </trkpt>
      <trkpt lat="44.43858" lon="5.87047">
        <ele>1287</ele>
        <time>2022-06-09T22:15:09Z</time>
      </trkpt>
      <trkpt lat="44.43847" lon="5.87006">
        <ele>1285</ele>
        <time>2022-06-09T22:15:17Z</time>
      </trkpt>
      <trkpt lat="44.43845" lon="5.86981">
        <ele>1286</ele>
        <time>2022-06-09T22:15:21Z</time>
      </trkpt>
      <trkpt lat="44.43837" lon="5.86971">
        <ele>1286</ele>
        <time>2022-06-09T22:15:23Z</time>
      </trkpt>
      <trkpt lat="44.43834" lon="5.86955">
        <ele>1286</ele>
        <time>2022-06-09T22:15:26Z</time>
      </trkpt>
      <trkpt lat="44.43837" lon="5.86945">
        <ele>1286</ele>
        <time>2022-06-09T22:15:28Z</time>
      </trkpt>
      <trkpt lat="44.43849" lon="5.86928">
        <ele>1287</ele>
        <time>2022-06-09T22:15:32Z</time>
      </trkpt>
      <trkpt lat="44.43861" lon="5.8692">
        <ele>1287</ele>
        <time>2022-06-09T22:15:35Z</time>
      </trkpt>
      <trkpt lat="44.43858" lon="5.86917">
        <ele>1287</ele>
        <time>2022-06-09T22:15:36Z</time>
      </trkpt>
      <trkpt lat="44.43859" lon="5.86915">
        <ele>1287</ele>
        <time>2022-06-09T22:15:36Z</time>
      </trkpt>
      <trkpt lat="44.43867" lon="5.86907">
        <ele>1288</ele>
        <time>2022-06-09T22:15:39Z</time>
      </trkpt>
      <trkpt lat="44.4387" lon="5.86906">
        <ele>1288</ele>
        <time>2022-06-09T22:15:39Z</time>
      </trkpt>
      <trkpt lat="44.43871" lon="5.86908">
        <ele>1288</ele>
        <time>2022-06-09T22:15:40Z</time>
      </trkpt>
      <trkpt lat="44.43872" lon="5.86903">
        <ele>1289</ele>
        <time>2022-06-09T22:15:41Z</time>
      </trkpt>
      <trkpt lat="44.43868" lon="5.86895">
        <ele>1289</ele>
        <time>2022-06-09T22:15:42Z</time>
      </trkpt>
      <trkpt lat="44.4386" lon="5.86887">
        <ele>1290</ele>
        <time>2022-06-09T22:15:44Z</time>
      </trkpt>
      <trkpt lat="44.4383" lon="5.86868">
        <ele>1291</ele>
        <time>2022-06-09T22:15:52Z</time>
      </trkpt>
      <trkpt lat="44.43823" lon="5.86859">
        <ele>1292</ele>
        <time>2022-06-09T22:15:54Z</time>
      </trkpt>
      <trkpt lat="44.43815" lon="5.86838">
        <ele>1294</ele>
        <time>2022-06-09T22:15:58Z</time>
      </trkpt>
      <trkpt lat="44.43814" lon="5.86809">
        <ele>1296</ele>
        <time>2022-06-09T22:16:03Z</time>
      </trkpt>
      <trkpt lat="44.43821" lon="5.86794">
        <ele>1297</ele>
        <time>2022-06-09T22:16:06Z</time>
      </trkpt>
      <trkpt lat="44.43823" lon="5.8678">
        <ele>1298</ele>
        <time>2022-06-09T22:16:09Z</time>
      </trkpt>
      <trkpt lat="44.43827" lon="5.86775">
        <ele>1298</ele>
        <time>2022-06-09T22:16:10Z</time>
      </trkpt>
      <trkpt lat="44.43829" lon="5.86767">
        <ele>1299</ele>
        <time>2022-06-09T22:16:11Z</time>
      </trkpt>
      <trkpt lat="44.43828" lon="5.86753">
        <ele>1300</ele>
        <time>2022-06-09T22:16:14Z</time>
      </trkpt>
      <trkpt lat="44.43842" lon="5.86706">
        <ele>1306</ele>
        <time>2022-06-09T22:16:22Z</time>
      </trkpt>
      <trkpt lat="44.43843" lon="5.8669">
        <ele>1308</ele>
        <time>2022-06-09T22:16:25Z</time>
      </trkpt>
      <trkpt lat="44.43842" lon="5.8666">
        <ele>1310</ele>
        <time>2022-06-09T22:16:30Z</time>
      </trkpt>
      <trkpt lat="44.43836" lon="5.86644">
        <ele>1311</ele>
        <time>2022-06-09T22:16:33Z</time>
      </trkpt>
      <trkpt lat="44.43833" lon="5.86619">
        <ele>1313</ele>
        <time>2022-06-09T22:16:37Z</time>
      </trkpt>
      <trkpt lat="44.43826" lon="5.86601">
        <ele>1315</ele>
        <time>2022-06-09T22:16:40Z</time>
      </trkpt>
      <trkpt lat="44.43827" lon="5.86587">
        <ele>1316</ele>
        <time>2022-06-09T22:16:43Z</time>
      </trkpt>
      <trkpt lat="44.43819" lon="5.86571">
        <ele>1319</ele>
        <time>2022-06-09T22:16:46Z</time>
      </trkpt>
      <trkpt lat="44.43814" lon="5.8657">
        <ele>1319</ele>
        <time>2022-06-09T22:16:47Z</time>
      </trkpt>
      <trkpt lat="44.43802" lon="5.86573">
        <ele>1319</ele>
        <time>2022-06-09T22:16:50Z</time>
      </trkpt>
      <trkpt lat="44.43786" lon="5.86583">
        <ele>1319</ele>
        <time>2022-06-09T22:16:54Z</time>
      </trkpt>
      <trkpt lat="44.43775" lon="5.86583">
        <ele>1320</ele>
        <time>2022-06-09T22:16:57Z</time>
      </trkpt>
      <trkpt lat="44.43765" lon="5.8658">
        <ele>1321</ele>
        <time>2022-06-09T22:16:59Z</time>
      </trkpt>
      <trkpt lat="44.43755" lon="5.86581">
        <ele>1321</ele>
        <time>2022-06-09T22:17:01Z</time>
      </trkpt>
      <trkpt lat="44.43747" lon="5.86578">
        <ele>1322</ele>
        <time>2022-06-09T22:17:03Z</time>
      </trkpt>
      <trkpt lat="44.4374" lon="5.8658">
        <ele>1323</ele>
        <time>2022-06-09T22:17:05Z</time>
      </trkpt>
      <trkpt lat="44.43737" lon="5.86584">
        <ele>1323</ele>
        <time>2022-06-09T22:17:06Z</time>
      </trkpt>
      <trkpt lat="44.43723" lon="5.86582">
        <ele>1325</ele>
        <time>2022-06-09T22:17:09Z</time>
      </trkpt>
      <trkpt lat="44.43711" lon="5.8657">
        <ele>1328</ele>
        <time>2022-06-09T22:17:13Z</time>
      </trkpt>
      <trkpt lat="44.43712" lon="5.86565">
        <ele>1329</ele>
        <time>2022-06-09T22:17:14Z</time>
      </trkpt>
      <trkpt lat="44.43707" lon="5.86556">
        <ele>1330</ele>
        <time>2022-06-09T22:17:15Z</time>
      </trkpt>
      <trkpt lat="44.43709" lon="5.86525">
        <ele>1334</ele>
        <time>2022-06-09T22:17:21Z</time>
      </trkpt>
      <trkpt lat="44.4369" lon="5.86486">
        <ele>1341</ele>
        <time>2022-06-09T22:17:29Z</time>
      </trkpt>
      <trkpt lat="44.43673" lon="5.86442">
        <ele>1347</ele>
        <time>2022-06-09T22:17:37Z</time>
      </trkpt>
      <trkpt lat="44.43676" lon="5.86422">
        <ele>1350</ele>
        <time>2022-06-09T22:17:40Z</time>
      </trkpt>
      <trkpt lat="44.43684" lon="5.86411">
        <ele>1351</ele>
        <time>2022-06-09T22:17:43Z</time>
      </trkpt>
      <trkpt lat="44.43679" lon="5.86384">
        <ele>1355</ele>
        <time>2022-06-09T22:17:48Z</time>
      </trkpt>
      <trkpt lat="44.4368" lon="5.86372">
        <ele>1356</ele>
        <time>2022-06-09T22:17:50Z</time>
      </trkpt>
      <trkpt lat="44.43664" lon="5.8636">
        <ele>1358</ele>
        <time>2022-06-09T22:17:54Z</time>
      </trkpt>
      <trkpt lat="44.43649" lon="5.86342">
        <ele>1362</ele>
        <time>2022-06-09T22:17:58Z</time>
      </trkpt>
      <trkpt lat="44.43646" lon="5.86331">
        <ele>1363</ele>
        <time>2022-06-09T22:18:00Z</time>
      </trkpt>
      <trkpt lat="44.43638" lon="5.8632">
        <ele>1365</ele>
        <time>2022-06-09T22:18:03Z</time>
      </trkpt>
      <trkpt lat="44.43632" lon="5.86293">
        <ele>1369</ele>
        <time>2022-06-09T22:18:08Z</time>
      </trkpt>
      <trkpt lat="44.43618" lon="5.86265">
        <ele>1373</ele>
        <time>2022-06-09T22:18:13Z</time>
      </trkpt>
      <trkpt lat="44.43614" lon="5.86241">
        <ele>1376</ele>
        <time>2022-06-09T22:18:18Z</time>
      </trkpt>
      <trkpt lat="44.43608" lon="5.86234">
        <ele>1378</ele>
        <time>2022-06-09T22:18:19Z</time>
      </trkpt>
      <trkpt lat="44.43607" lon="5.86226">
        <ele>1379</ele>
        <time>2022-06-09T22:18:21Z</time>
      </trkpt>
      <trkpt lat="44.43596" lon="5.86204">
        <ele>1383</ele>
        <time>2022-06-09T22:18:25Z</time>
      </trkpt>
      <trkpt lat="44.43588" lon="5.8618">
        <ele>1387</ele>
        <time>2022-06-09T22:18:30Z</time>
      </trkpt>
      <trkpt lat="44.43559" lon="5.86127">
        <ele>1391</ele>
        <time>2022-06-09T22:18:41Z</time>
      </trkpt>
      <trkpt lat="44.43539" lon="5.86101">
        <ele>1391</ele>
        <time>2022-06-09T22:18:47Z</time>
      </trkpt>
      <trkpt lat="44.43528" lon="5.86079">
        <ele>1392</ele>
        <time>2022-06-09T22:18:52Z</time>
      </trkpt>
      <trkpt lat="44.43515" lon="5.86064">
        <ele>1393</ele>
        <time>2022-06-09T22:18:56Z</time>
      </trkpt>
      <trkpt lat="44.43495" lon="5.86033">
        <ele>1395</ele>
        <time>2022-06-09T22:19:02Z</time>
      </trkpt>
      <trkpt lat="44.43478" lon="5.86013">
        <ele>1396</ele>
        <time>2022-06-09T22:19:08Z</time>
      </trkpt>
      <trkpt lat="44.43463" lon="5.86">
        <ele>1397</ele>
        <time>2022-06-09T22:19:12Z</time>
      </trkpt>
      <trkpt lat="44.43456" lon="5.85988">
        <ele>1397</ele>
        <time>2022-06-09T22:19:14Z</time>
      </trkpt>
      <trkpt lat="44.4345" lon="5.85983">
        <ele>1397</ele>
        <time>2022-06-09T22:19:16Z</time>
      </trkpt>
      <trkpt lat="44.43442" lon="5.8597">
        <ele>1398</ele>
        <time>2022-06-09T22:19:19Z</time>
      </trkpt>
      <trkpt lat="44.43434" lon="5.85947">
        <ele>1400</ele>
        <time>2022-06-09T22:19:23Z</time>
      </trkpt>
      <trkpt lat="44.43431" lon="5.85943">
        <ele>1400</ele>
        <time>2022-06-09T22:19:24Z</time>
      </trkpt>
      <trkpt lat="44.43424" lon="5.8594">
        <ele>1399</ele>
        <time>2022-06-09T22:19:26Z</time>
      </trkpt>
      <trkpt lat="44.43409" lon="5.85924">
        <ele>1399</ele>
        <time>2022-06-09T22:19:30Z</time>
      </trkpt>
      <trkpt lat="44.43406" lon="5.8591">
        <ele>1400</ele>
        <time>2022-06-09T22:19:33Z</time>
      </trkpt>
      <trkpt lat="44.43401" lon="5.85905">
        <ele>1401</ele>
        <time>2022-06-09T22:19:34Z</time>
      </trkpt>
      <trkpt lat="44.43402" lon="5.85891">
        <ele>1403</ele>
        <time>2022-06-09T22:19:36Z</time>
      </trkpt>
      <trkpt lat="44.43405" lon="5.85883">
        <ele>1404</ele>
        <time>2022-06-09T22:19:38Z</time>
      </trkpt>
      <trkpt lat="44.43404" lon="5.85869">
        <ele>1406</ele>
        <time>2022-06-09T22:19:40Z</time>
      </trkpt>
      <trkpt lat="44.43401" lon="5.85861">
        <ele>1407</ele>
        <time>2022-06-09T22:19:42Z</time>
      </trkpt>
      <trkpt lat="44.43402" lon="5.85846">
        <ele>1409</ele>
        <time>2022-06-09T22:19:44Z</time>
      </trkpt>
      <trkpt lat="44.43396" lon="5.85826">
        <ele>1412</ele>
        <time>2022-06-09T22:19:48Z</time>
      </trkpt>
      <trkpt lat="44.43391" lon="5.85818">
        <ele>1413</ele>
        <time>2022-06-09T22:19:50Z</time>
      </trkpt>
      <trkpt lat="44.43389" lon="5.85816">
        <ele>1414</ele>
        <time>2022-06-09T22:19:50Z</time>
      </trkpt>
      <trkpt lat="44.43387" lon="5.85819">
        <ele>1413</ele>
        <time>2022-06-09T22:19:51Z</time>
      </trkpt>
      <trkpt lat="44.43384" lon="5.85819">
        <ele>1413</ele>
        <time>2022-06-09T22:19:52Z</time>
      </trkpt>
      <trkpt lat="44.43376" lon="5.85807">
        <ele>1414</ele>
        <time>2022-06-09T22:19:54Z</time>
      </trkpt>
      <trkpt lat="44.43354" lon="5.85794">
        <ele>1416</ele>
        <time>2022-06-09T22:20:00Z</time>
      </trkpt>
      <trkpt lat="44.43337" lon="5.85777">
        <ele>1418</ele>
        <time>2022-06-09T22:20:05Z</time>
      </trkpt>
      <trkpt lat="44.4332" lon="5.85779">
        <ele>1419</ele>
        <time>2022-06-09T22:20:09Z</time>
      </trkpt>
      <trkpt lat="44.43317" lon="5.85781">
        <ele>1419</ele>
        <time>2022-06-09T22:20:10Z</time>
      </trkpt>
      <trkpt lat="44.43316" lon="5.85786">
        <ele>1419</ele>
        <time>2022-06-09T22:20:10Z</time>
      </trkpt>
      <trkpt lat="44.43312" lon="5.85784">
        <ele>1420</ele>
        <time>2022-06-09T22:20:11Z</time>
      </trkpt>
      <trkpt lat="44.43304" lon="5.85788">
        <ele>1420</ele>
        <time>2022-06-09T22:20:13Z</time>
      </trkpt>
      <trkpt lat="44.43297" lon="5.85799">
        <ele>1419</ele>
        <time>2022-06-09T22:20:16Z</time>
      </trkpt>
      <trkpt lat="44.43286" lon="5.85799">
        <ele>1421</ele>
        <time>2022-06-09T22:20:18Z</time>
      </trkpt>
      <trkpt lat="44.4328" lon="5.85807">
        <ele>1420</ele>
        <time>2022-06-09T22:20:20Z</time>
      </trkpt>
      <trkpt lat="44.43268" lon="5.858">
        <ele>1423</ele>
        <time>2022-06-09T22:20:23Z</time>
      </trkpt>
      <trkpt lat="44.43272" lon="5.85775">
        <ele>1428</ele>
        <time>2022-06-09T22:20:28Z</time>
      </trkpt>
      <trkpt lat="44.43259" lon="5.85774">
        <ele>1431</ele>
        <time>2022-06-09T22:20:31Z</time>
      </trkpt>
      <trkpt lat="44.43257" lon="5.85781">
        <ele>1429</ele>
        <time>2022-06-09T22:20:32Z</time>
      </trkpt>
      <trkpt lat="44.43255" lon="5.85781">
        <ele>1430</ele>
        <time>2022-06-09T22:20:32Z</time>
      </trkpt>
      <trkpt lat="44.43244" lon="5.85771">
        <ele>1435</ele>
        <time>2022-06-09T22:20:36Z</time>
      </trkpt>
      <trkpt lat="44.43239" lon="5.85771">
        <ele>1436</ele>
        <time>2022-06-09T22:20:37Z</time>
      </trkpt>
      <trkpt lat="44.43238" lon="5.85768">
        <ele>1437</ele>
        <time>2022-06-09T22:20:37Z</time>
      </trkpt>
      <trkpt lat="44.4324" lon="5.85764">
        <ele>1438</ele>
        <time>2022-06-09T22:20:38Z</time>
      </trkpt>
      <trkpt lat="44.43246" lon="5.85764">
        <ele>1436</ele>
        <time>2022-06-09T22:20:39Z</time>
      </trkpt>
      <trkpt lat="44.4325" lon="5.85756">
        <ele>1437</ele>
        <time>2022-06-09T22:20:41Z</time>
      </trkpt>
      <trkpt lat="44.4325" lon="5.85749">
        <ele>1438</ele>
        <time>2022-06-09T22:20:42Z</time>
      </trkpt>
      <trkpt lat="44.43247" lon="5.85745">
        <ele>1440</ele>
        <time>2022-06-09T22:20:43Z</time>
      </trkpt>
      <trkpt lat="44.43249" lon="5.8574">
        <ele>1440</ele>
        <time>2022-06-09T22:20:44Z</time>
      </trkpt>
      <trkpt lat="44.43248" lon="5.85729">
        <ele>1443</ele>
        <time>2022-06-09T22:20:46Z</time>
      </trkpt>
      <trkpt lat="44.43252" lon="5.85725">
        <ele>1443</ele>
        <time>2022-06-09T22:20:47Z</time>
      </trkpt>
      <trkpt lat="44.43256" lon="5.85712">
        <ele>1445</ele>
        <time>2022-06-09T22:20:50Z</time>
      </trkpt>
      <trkpt lat="44.43252" lon="5.85678">
        <ele>1453</ele>
        <time>2022-06-09T22:20:55Z</time>
      </trkpt>
      <trkpt lat="44.43258" lon="5.85676">
        <ele>1453</ele>
        <time>2022-06-09T22:20:57Z</time>
      </trkpt>
      <trkpt lat="44.43262" lon="5.85667">
        <ele>1454</ele>
        <time>2022-06-09T22:20:59Z</time>
      </trkpt>
      <trkpt lat="44.4327" lon="5.85627">
        <ele>1462</ele>
        <time>2022-06-09T22:21:05Z</time>
      </trkpt>
      <trkpt lat="44.43276" lon="5.8561">
        <ele>1466</ele>
        <time>2022-06-09T22:21:09Z</time>
      </trkpt>
      <trkpt lat="44.43276" lon="5.85589">
        <ele>1470</ele>
        <time>2022-06-09T22:21:12Z</time>
      </trkpt>
      <trkpt lat="44.4327" lon="5.85569">
        <ele>1473</ele>
        <time>2022-06-09T22:21:16Z</time>
      </trkpt>
      <trkpt lat="44.43271" lon="5.85551">
        <ele>1475</ele>
        <time>2022-06-09T22:21:19Z</time>
      </trkpt>
      <trkpt lat="44.43268" lon="5.85546">
        <ele>1475</ele>
        <time>2022-06-09T22:21:20Z</time>
      </trkpt>
      <trkpt lat="44.43269" lon="5.85535">
        <ele>1476</ele>
        <time>2022-06-09T22:21:22Z</time>
      </trkpt>
      <trkpt lat="44.43266" lon="5.85527">
        <ele>1477</ele>
        <time>2022-06-09T22:21:23Z</time>
      </trkpt>
      <trkpt lat="44.43265" lon="5.85513">
        <ele>1478</ele>
        <time>2022-06-09T22:21:26Z</time>
      </trkpt>
      <trkpt lat="44.43281" lon="5.85477">
        <ele>1478</ele>
        <time>2022-06-09T22:21:33Z</time>
      </trkpt>
      <trkpt lat="44.43283" lon="5.85463">
        <ele>1478</ele>
        <time>2022-06-09T22:21:35Z</time>
      </trkpt>
      <trkpt lat="44.43292" lon="5.85451">
        <ele>1479</ele>
        <time>2022-06-09T22:21:38Z</time>
      </trkpt>
      <trkpt lat="44.4329" lon="5.8545">
        <ele>1479</ele>
        <time>2022-06-09T22:21:38Z</time>
      </trkpt>
      <trkpt lat="44.43297" lon="5.8545">
        <ele>1480</ele>
        <time>2022-06-09T22:21:40Z</time>
      </trkpt>
      <trkpt lat="44.43301" lon="5.85447">
        <ele>1481</ele>
        <time>2022-06-09T22:21:41Z</time>
      </trkpt>
      <trkpt lat="44.43313" lon="5.8542">
        <ele>1485</ele>
        <time>2022-06-09T22:21:46Z</time>
      </trkpt>
      <trkpt lat="44.43323" lon="5.85405">
        <ele>1488</ele>
        <time>2022-06-09T22:21:50Z</time>
      </trkpt>
      <trkpt lat="44.43331" lon="5.85398">
        <ele>1491</ele>
        <time>2022-06-09T22:21:52Z</time>
      </trkpt>
      <trkpt lat="44.43335" lon="5.8539">
        <ele>1492</ele>
        <time>2022-06-09T22:21:54Z</time>
      </trkpt>
      <trkpt lat="44.43333" lon="5.8536">
        <ele>1491</ele>
        <time>2022-06-09T22:21:59Z</time>
      </trkpt>
      <trkpt lat="44.43339" lon="5.8534">
        <ele>1493</ele>
        <time>2022-06-09T22:22:02Z</time>
      </trkpt>
      <trkpt lat="44.43334" lon="5.85314">
        <ele>1494</ele>
        <time>2022-06-09T22:22:07Z</time>
      </trkpt>
      <trkpt lat="44.43338" lon="5.85293">
        <ele>1499</ele>
        <time>2022-06-09T22:22:10Z</time>
      </trkpt>
      <trkpt lat="44.43331" lon="5.85285">
        <ele>1497</ele>
        <time>2022-06-09T22:22:12Z</time>
      </trkpt>
      <trkpt lat="44.43327" lon="5.85249">
        <ele>1502</ele>
        <time>2022-06-09T22:22:19Z</time>
      </trkpt>
      <trkpt lat="44.43314" lon="5.85235">
        <ele>1498</ele>
        <time>2022-06-09T22:22:22Z</time>
      </trkpt>
      <trkpt lat="44.43311" lon="5.85223">
        <ele>1498</ele>
        <time>2022-06-09T22:22:25Z</time>
      </trkpt>
      <trkpt lat="44.43316" lon="5.85217">
        <ele>1499</ele>
        <time>2022-06-09T22:22:26Z</time>
      </trkpt>
      <trkpt lat="44.43325" lon="5.85196">
        <ele>1502</ele>
        <time>2022-06-09T22:22:30Z</time>
      </trkpt>
      <trkpt lat="44.43334" lon="5.85188">
        <ele>1506</ele>
        <time>2022-06-09T22:22:33Z</time>
      </trkpt>
      <trkpt lat="44.43338" lon="5.85175">
        <ele>1508</ele>
        <time>2022-06-09T22:22:35Z</time>
      </trkpt>
      <trkpt lat="44.43337" lon="5.85166">
        <ele>1508</ele>
        <time>2022-06-09T22:22:36Z</time>
      </trkpt>
      <trkpt lat="44.43342" lon="5.85167">
        <ele>1510</ele>
        <time>2022-06-09T22:22:38Z</time>
      </trkpt>
      <trkpt lat="44.43347" lon="5.85156">
        <ele>1512</ele>
        <time>2022-06-09T22:22:40Z</time>
      </trkpt>
      <trkpt lat="44.43345" lon="5.85104">
        <ele>1511</ele>
        <time>2022-06-09T22:22:49Z</time>
      </trkpt>
      <trkpt lat="44.4335" lon="5.85102">
        <ele>1513</ele>
        <time>2022-06-09T22:22:50Z</time>
      </trkpt>
      <trkpt lat="44.43353" lon="5.85092">
        <ele>1514</ele>
        <time>2022-06-09T22:22:52Z</time>
      </trkpt>
      <trkpt lat="44.43357" lon="5.85092">
        <ele>1516</ele>
        <time>2022-06-09T22:22:52Z</time>
      </trkpt>
      <trkpt lat="44.43358" lon="5.85098">
        <ele>1517</ele>
        <time>2022-06-09T22:22:54Z</time>
      </trkpt>
      <trkpt lat="44.4336" lon="5.85098">
        <ele>1518</ele>
        <time>2022-06-09T22:22:54Z</time>
      </trkpt>
      <trkpt lat="44.43363" lon="5.8509">
        <ele>1519</ele>
        <time>2022-06-09T22:22:55Z</time>
      </trkpt>
      <trkpt lat="44.43366" lon="5.8509">
        <ele>1521</ele>
        <time>2022-06-09T22:22:56Z</time>
      </trkpt>
      <trkpt lat="44.43375" lon="5.85082">
        <ele>1525</ele>
        <time>2022-06-09T22:22:59Z</time>
      </trkpt>
      <trkpt lat="44.43378" lon="5.85073">
        <ele>1527</ele>
        <time>2022-06-09T22:23:00Z</time>
      </trkpt>
      <trkpt lat="44.43377" lon="5.85063">
        <ele>1527</ele>
        <time>2022-06-09T22:23:02Z</time>
      </trkpt>
      <trkpt lat="44.43384" lon="5.85024">
        <ele>1534</ele>
        <time>2022-06-09T22:23:09Z</time>
      </trkpt>
      <trkpt lat="44.43385" lon="5.85002">
        <ele>1536</ele>
        <time>2022-06-09T22:23:12Z</time>
      </trkpt>
      <trkpt lat="44.43388" lon="5.85001">
        <ele>1537</ele>
        <time>2022-06-09T22:23:13Z</time>
      </trkpt>
      <trkpt lat="44.43387" lon="5.84981">
        <ele>1538</ele>
        <time>2022-06-09T22:23:16Z</time>
      </trkpt>
      <trkpt lat="44.43392" lon="5.8497">
        <ele>1541</ele>
        <time>2022-06-09T22:23:19Z</time>
      </trkpt>
      <trkpt lat="44.43393" lon="5.84935">
        <ele>1543</ele>
        <time>2022-06-09T22:23:24Z</time>
      </trkpt>
      <trkpt lat="44.43396" lon="5.84933">
        <ele>1544</ele>
        <time>2022-06-09T22:23:25Z</time>
      </trkpt>
      <trkpt lat="44.43398" lon="5.84938">
        <ele>1545</ele>
        <time>2022-06-09T22:23:26Z</time>
      </trkpt>
      <trkpt lat="44.43404" lon="5.8493">
        <ele>1549</ele>
        <time>2022-06-09T22:23:28Z</time>
      </trkpt>
      <trkpt lat="44.43408" lon="5.84914">
        <ele>1551</ele>
        <time>2022-06-09T22:23:31Z</time>
      </trkpt>
      <trkpt lat="44.43411" lon="5.84913">
        <ele>1553</ele>
        <time>2022-06-09T22:23:32Z</time>
      </trkpt>
      <trkpt lat="44.43413" lon="5.84908">
        <ele>1554</ele>
        <time>2022-06-09T22:23:33Z</time>
      </trkpt>
      <trkpt lat="44.43411" lon="5.8489">
        <ele>1554</ele>
        <time>2022-06-09T22:23:36Z</time>
      </trkpt>
      <trkpt lat="44.43416" lon="5.84878">
        <ele>1557</ele>
        <time>2022-06-09T22:23:38Z</time>
      </trkpt>
      <trkpt lat="44.43416" lon="5.84868">
        <ele>1557</ele>
        <time>2022-06-09T22:23:40Z</time>
      </trkpt>
      <trkpt lat="44.43419" lon="5.84866">
        <ele>1558</ele>
        <time>2022-06-09T22:23:40Z</time>
      </trkpt>
      <trkpt lat="44.43422" lon="5.84857">
        <ele>1560</ele>
        <time>2022-06-09T22:23:42Z</time>
      </trkpt>
      <trkpt lat="44.43416" lon="5.84857">
        <ele>1557</ele>
        <time>2022-06-09T22:23:44Z</time>
      </trkpt>
      <trkpt lat="44.43424" lon="5.84859">
        <ele>1561</ele>
        <time>2022-06-09T22:23:45Z</time>
      </trkpt>
      <trkpt lat="44.43421" lon="5.8486">
        <ele>1559</ele>
        <time>2022-06-09T22:23:46Z</time>
      </trkpt>
      <trkpt lat="44.43423" lon="5.84851">
        <ele>1561</ele>
        <time>2022-06-09T22:23:48Z</time>
      </trkpt>
      <trkpt lat="44.4342" lon="5.84839">
        <ele>1559</ele>
        <time>2022-06-09T22:23:50Z</time>
      </trkpt>
      <trkpt lat="44.43427" lon="5.84825">
        <ele>1564</ele>
        <time>2022-06-09T22:23:53Z</time>
      </trkpt>
      <trkpt lat="44.43428" lon="5.8481">
        <ele>1566</ele>
        <time>2022-06-09T22:23:55Z</time>
      </trkpt>
      <trkpt lat="44.43435" lon="5.84796">
        <ele>1571</ele>
        <time>2022-06-09T22:23:58Z</time>
      </trkpt>
      <trkpt lat="44.4343" lon="5.84787">
        <ele>1569</ele>
        <time>2022-06-09T22:24:00Z</time>
      </trkpt>
      <trkpt lat="44.43424" lon="5.8476">
        <ele>1569</ele>
        <time>2022-06-09T22:24:05Z</time>
      </trkpt>
      <trkpt lat="44.43414" lon="5.84734">
        <ele>1569</ele>
        <time>2022-06-09T22:24:10Z</time>
      </trkpt>
      <trkpt lat="44.43411" lon="5.84714">
        <ele>1572</ele>
        <time>2022-06-09T22:24:13Z</time>
      </trkpt>
      <trkpt lat="44.43402" lon="5.84691">
        <ele>1573</ele>
        <time>2022-06-09T22:24:17Z</time>
      </trkpt>
      <trkpt lat="44.43397" lon="5.84684">
        <ele>1572</ele>
        <time>2022-06-09T22:24:19Z</time>
      </trkpt>
      <trkpt lat="44.43388" lon="5.84658">
        <ele>1572</ele>
        <time>2022-06-09T22:24:24Z</time>
      </trkpt>
      <trkpt lat="44.43369" lon="5.84629">
        <ele>1567</ele>
        <time>2022-06-09T22:24:30Z</time>
      </trkpt>
      <trkpt lat="44.43361" lon="5.84625">
        <ele>1564</ele>
        <time>2022-06-09T22:24:32Z</time>
      </trkpt>
      <trkpt lat="44.43356" lon="5.84619">
        <ele>1563</ele>
        <time>2022-06-09T22:24:34Z</time>
      </trkpt>
      <trkpt lat="44.43344" lon="5.84596">
        <ele>1561</ele>
        <time>2022-06-09T22:24:39Z</time>
      </trkpt>
      <trkpt lat="44.43345" lon="5.84581">
        <ele>1563</ele>
        <time>2022-06-09T22:24:41Z</time>
      </trkpt>
      <trkpt lat="44.43344" lon="5.84579">
        <ele>1563</ele>
        <time>2022-06-09T22:24:42Z</time>
      </trkpt>
      <trkpt lat="44.43339" lon="5.84581">
        <ele>1560</ele>
        <time>2022-06-09T22:24:43Z</time>
      </trkpt>
      <trkpt lat="44.43341" lon="5.84583">
        <ele>1561</ele>
        <time>2022-06-09T22:24:43Z</time>
      </trkpt>
      <trkpt lat="44.43342" lon="5.84575">
        <ele>1562</ele>
        <time>2022-06-09T22:24:45Z</time>
      </trkpt>
      <trkpt lat="44.43343" lon="5.84585">
        <ele>1562</ele>
        <time>2022-06-09T22:24:46Z</time>
      </trkpt>
      <trkpt lat="44.43345" lon="5.84574">
        <ele>1563</ele>
        <time>2022-06-09T22:24:48Z</time>
      </trkpt>
      <trkpt lat="44.43342" lon="5.84561">
        <ele>1561</ele>
        <time>2022-06-09T22:24:51Z</time>
      </trkpt>
      <trkpt lat="44.43343" lon="5.84542">
        <ele>1561</ele>
        <time>2022-06-09T22:24:54Z</time>
      </trkpt>
      <trkpt lat="44.43348" lon="5.84511">
        <ele>1562</ele>
        <time>2022-06-09T22:24:59Z</time>
      </trkpt>
      <trkpt lat="44.43351" lon="5.84497">
        <ele>1563</ele>
        <time>2022-06-09T22:25:01Z</time>
      </trkpt>
      <trkpt lat="44.43361" lon="5.84475">
        <ele>1562</ele>
        <time>2022-06-09T22:25:06Z</time>
      </trkpt>
      <trkpt lat="44.43367" lon="5.84446">
        <ele>1558</ele>
        <time>2022-06-09T22:25:11Z</time>
      </trkpt>
      <trkpt lat="44.43374" lon="5.8443">
        <ele>1556</ele>
        <time>2022-06-09T22:25:14Z</time>
      </trkpt>
      <trkpt lat="44.43378" lon="5.84426">
        <ele>1556</ele>
        <time>2022-06-09T22:25:15Z</time>
      </trkpt>
      <trkpt lat="44.43416" lon="5.84408">
        <ele>1560</ele>
        <time>2022-06-09T22:25:25Z</time>
      </trkpt>
      <trkpt lat="44.43463" lon="5.84394">
        <ele>1559</ele>
        <time>2022-06-09T22:25:36Z</time>
      </trkpt>
      <trkpt lat="44.43495" lon="5.84389">
        <ele>1562</ele>
        <time>2022-06-09T22:25:43Z</time>
      </trkpt>
      <trkpt lat="44.43509" lon="5.84377">
        <ele>1562</ele>
        <time>2022-06-09T22:25:47Z</time>
      </trkpt>
      <trkpt lat="44.43517" lon="5.84363">
        <ele>1561</ele>
        <time>2022-06-09T22:25:50Z</time>
      </trkpt>
      <trkpt lat="44.43527" lon="5.84352">
        <ele>1561</ele>
        <time>2022-06-09T22:25:53Z</time>
      </trkpt>
      <trkpt lat="44.43537" lon="5.84328">
        <ele>1559</ele>
        <time>2022-06-09T22:25:58Z</time>
      </trkpt>
      <trkpt lat="44.43565" lon="5.84245">
        <ele>1559</ele>
        <time>2022-06-09T22:26:13Z</time>
      </trkpt>
      <trkpt lat="44.43566" lon="5.84189">
        <ele>1554</ele>
        <time>2022-06-09T22:26:22Z</time>
      </trkpt>
      <trkpt lat="44.43558" lon="5.84089">
        <ele>1543</ele>
        <time>2022-06-09T22:26:39Z</time>
      </trkpt>
      <trkpt lat="44.43558" lon="5.84066">
        <ele>1540</ele>
        <time>2022-06-09T22:26:43Z</time>
      </trkpt>
      <trkpt lat="44.43564" lon="5.8401">
        <ele>1536</ele>
        <time>2022-06-09T22:26:52Z</time>
      </trkpt>
      <trkpt lat="44.43577" lon="5.8398">
        <ele>1535</ele>
        <time>2022-06-09T22:26:58Z</time>
      </trkpt>
      <trkpt lat="44.4359" lon="5.83934">
        <ele>1532</ele>
        <time>2022-06-09T22:27:06Z</time>
      </trkpt>
      <trkpt lat="44.436" lon="5.83874">
        <ele>1524</ele>
        <time>2022-06-09T22:27:17Z</time>
      </trkpt>
      <trkpt lat="44.43608" lon="5.83848">
        <ele>1523</ele>
        <time>2022-06-09T22:27:21Z</time>
      </trkpt>
      <trkpt lat="44.43624" lon="5.83808">
        <ele>1525</ele>
        <time>2022-06-09T22:27:29Z</time>
      </trkpt>
      <trkpt lat="44.43639" lon="5.83788">
        <ele>1531</ele>
        <time>2022-06-09T22:27:34Z</time>
      </trkpt>
      <trkpt lat="44.43621" lon="5.83732">
        <ele>1519</ele>
        <time>2022-06-09T22:27:44Z</time>
      </trkpt>
      <trkpt lat="44.43608" lon="5.83629">
        <ele>1512</ele>
        <time>2022-06-09T22:28:02Z</time>
      </trkpt>
      <trkpt lat="44.436" lon="5.83513">
        <ele>1505</ele>
        <time>2022-06-09T22:28:21Z</time>
      </trkpt>
      <trkpt lat="44.43592" lon="5.83459">
        <ele>1501</ele>
        <time>2022-06-09T22:28:30Z</time>
      </trkpt>
      <trkpt lat="44.43595" lon="5.8339">
        <ele>1501</ele>
        <time>2022-06-09T22:28:42Z</time>
      </trkpt>
      <trkpt lat="44.43596" lon="5.83388">
        <ele>1502</ele>
        <time>2022-06-09T22:28:42Z</time>
      </trkpt>
      <trkpt lat="44.43598" lon="5.8339">
        <ele>1502</ele>
        <time>2022-06-09T22:28:43Z</time>
      </trkpt>
      <trkpt lat="44.43593" lon="5.83421">
        <ele>1502</ele>
        <time>2022-06-09T22:28:48Z</time>
      </trkpt>
      <trkpt lat="44.43587" lon="5.8343">
        <ele>1499</ele>
        <time>2022-06-09T22:28:50Z</time>
      </trkpt>
      <trkpt lat="44.43583" lon="5.83426">
        <ele>1498</ele>
        <time>2022-06-09T22:28:51Z</time>
      </trkpt>
      <trkpt lat="44.43585" lon="5.83411">
        <ele>1498</ele>
        <time>2022-06-09T22:28:54Z</time>
      </trkpt>
      <trkpt lat="44.43578" lon="5.83314">
        <ele>1492</ele>
        <time>2022-06-09T22:29:10Z</time>
      </trkpt>
      <trkpt lat="44.43572" lon="5.83295">
        <ele>1490</ele>
        <time>2022-06-09T22:29:14Z</time>
      </trkpt>
      <trkpt lat="44.43568" lon="5.83292">
        <ele>1490</ele>
        <time>2022-06-09T22:29:15Z</time>
      </trkpt>
      <trkpt lat="44.43558" lon="5.83291">
        <ele>1490</ele>
        <time>2022-06-09T22:29:17Z</time>
      </trkpt>
      <trkpt lat="44.43541" lon="5.83301">
        <ele>1491</ele>
        <time>2022-06-09T22:29:21Z</time>
      </trkpt>
      <trkpt lat="44.43532" lon="5.83313">
        <ele>1492</ele>
        <time>2022-06-09T22:29:24Z</time>
      </trkpt>
      <trkpt lat="44.4353" lon="5.83313">
        <ele>1492</ele>
        <time>2022-06-09T22:29:25Z</time>
      </trkpt>
      <trkpt lat="44.4353" lon="5.8331">
        <ele>1492</ele>
        <time>2022-06-09T22:29:25Z</time>
      </trkpt>
      <trkpt lat="44.43536" lon="5.83297">
        <ele>1491</ele>
        <time>2022-06-09T22:29:28Z</time>
      </trkpt>
      <trkpt lat="44.43541" lon="5.83275">
        <ele>1490</ele>
        <time>2022-06-09T22:29:32Z</time>
      </trkpt>
      <trkpt lat="44.43545" lon="5.8327">
        <ele>1489</ele>
        <time>2022-06-09T22:29:33Z</time>
      </trkpt>
      <trkpt lat="44.43557" lon="5.83267">
        <ele>1488</ele>
        <time>2022-06-09T22:29:36Z</time>
      </trkpt>
      <trkpt lat="44.43562" lon="5.83262">
        <ele>1487</ele>
        <time>2022-06-09T22:29:37Z</time>
      </trkpt>
      <trkpt lat="44.43561" lon="5.83239">
        <ele>1484</ele>
        <time>2022-06-09T22:29:41Z</time>
      </trkpt>
      <trkpt lat="44.43569" lon="5.83221">
        <ele>1479</ele>
        <time>2022-06-09T22:29:44Z</time>
      </trkpt>
      <trkpt lat="44.43573" lon="5.83201">
        <ele>1474</ele>
        <time>2022-06-09T22:29:48Z</time>
      </trkpt>
      <trkpt lat="44.43582" lon="5.83179">
        <ele>1467</ele>
        <time>2022-06-09T22:29:52Z</time>
      </trkpt>
      <trkpt lat="44.43589" lon="5.83147">
        <ele>1459</ele>
        <time>2022-06-09T22:29:58Z</time>
      </trkpt>
      <trkpt lat="44.43596" lon="5.83138">
        <ele>1457</ele>
        <time>2022-06-09T22:30:00Z</time>
      </trkpt>
      <trkpt lat="44.4362" lon="5.83119">
        <ele>1453</ele>
        <time>2022-06-09T22:30:06Z</time>
      </trkpt>
      <trkpt lat="44.43655" lon="5.83064">
        <ele>1438</ele>
        <time>2022-06-09T22:30:19Z</time>
      </trkpt>
      <trkpt lat="44.4366" lon="5.83048">
        <ele>1433</ele>
        <time>2022-06-09T22:30:22Z</time>
      </trkpt>
      <trkpt lat="44.43665" lon="5.82988">
        <ele>1413</ele>
        <time>2022-06-09T22:30:32Z</time>
      </trkpt>
      <trkpt lat="44.43664" lon="5.82975">
        <ele>1410</ele>
        <time>2022-06-09T22:30:34Z</time>
      </trkpt>
      <trkpt lat="44.43669" lon="5.82961">
        <ele>1406</ele>
        <time>2022-06-09T22:30:36Z</time>
      </trkpt>
      <trkpt lat="44.43679" lon="5.82952">
        <ele>1405</ele>
        <time>2022-06-09T22:30:39Z</time>
      </trkpt>
      <trkpt lat="44.43694" lon="5.82927">
        <ele>1399</ele>
        <time>2022-06-09T22:30:45Z</time>
      </trkpt>
      <trkpt lat="44.43715" lon="5.82906">
        <ele>1396</ele>
        <time>2022-06-09T22:30:51Z</time>
      </trkpt>
      <trkpt lat="44.43728" lon="5.82886">
        <ele>1393</ele>
        <time>2022-06-09T22:30:55Z</time>
      </trkpt>
      <trkpt lat="44.43734" lon="5.82851">
        <ele>1383</ele>
        <time>2022-06-09T22:31:01Z</time>
      </trkpt>
      <trkpt lat="44.43736" lon="5.82821">
        <ele>1375</ele>
        <time>2022-06-09T22:31:06Z</time>
      </trkpt>
      <trkpt lat="44.43749" lon="5.82772">
        <ele>1362</ele>
        <time>2022-06-09T22:31:15Z</time>
      </trkpt>
      <trkpt lat="44.4375" lon="5.82748">
        <ele>1354</ele>
        <time>2022-06-09T22:31:19Z</time>
      </trkpt>
      <trkpt lat="44.43755" lon="5.82726">
        <ele>1349</ele>
        <time>2022-06-09T22:31:23Z</time>
      </trkpt>
      <trkpt lat="44.43776" lon="5.82697">
        <ele>1350</ele>
        <time>2022-06-09T22:31:30Z</time>
      </trkpt>
      <trkpt lat="44.43783" lon="5.82678">
        <ele>1347</ele>
        <time>2022-06-09T22:31:33Z</time>
      </trkpt>
      <trkpt lat="44.43799" lon="5.82589">
        <ele>1335</ele>
        <time>2022-06-09T22:31:49Z</time>
      </trkpt>
      <trkpt lat="44.43806" lon="5.82536">
        <ele>1328</ele>
        <time>2022-06-09T22:31:58Z</time>
      </trkpt>
      <trkpt lat="44.43807" lon="5.82508">
        <ele>1323</ele>
        <time>2022-06-09T22:32:02Z</time>
      </trkpt>
      <trkpt lat="44.43818" lon="5.82455">
        <ele>1316</ele>
        <time>2022-06-09T22:32:11Z</time>
      </trkpt>
      <trkpt lat="44.43816" lon="5.82435">
        <ele>1309</ele>
        <time>2022-06-09T22:32:15Z</time>
      </trkpt>
      <trkpt lat="44.43821" lon="5.82418">
        <ele>1307</ele>
        <time>2022-06-09T22:32:18Z</time>
      </trkpt>
      <trkpt lat="44.43823" lon="5.82397">
        <ele>1304</ele>
        <time>2022-06-09T22:32:21Z</time>
      </trkpt>
      <trkpt lat="44.43819" lon="5.82362">
        <ele>1296</ele>
        <time>2022-06-09T22:32:27Z</time>
      </trkpt>
      <trkpt lat="44.43821" lon="5.82319">
        <ele>1290</ele>
        <time>2022-06-09T22:32:35Z</time>
      </trkpt>
      <trkpt lat="44.43802" lon="5.82259">
        <ele>1273</ele>
        <time>2022-06-09T22:32:45Z</time>
      </trkpt>
      <trkpt lat="44.43802" lon="5.82243">
        <ele>1270</ele>
        <time>2022-06-09T22:32:48Z</time>
      </trkpt>
      <trkpt lat="44.43793" lon="5.82203">
        <ele>1258</ele>
        <time>2022-06-09T22:32:55Z</time>
      </trkpt>
      <trkpt lat="44.43792" lon="5.82175">
        <ele>1252</ele>
        <time>2022-06-09T22:33:00Z</time>
      </trkpt>
      <trkpt lat="44.43799" lon="5.82151">
        <ele>1249</ele>
        <time>2022-06-09T22:33:04Z</time>
      </trkpt>
      <trkpt lat="44.43803" lon="5.82148">
        <ele>1250</ele>
        <time>2022-06-09T22:33:05Z</time>
      </trkpt>
      <trkpt lat="44.43809" lon="5.82136">
        <ele>1249</ele>
        <time>2022-06-09T22:33:08Z</time>
      </trkpt>
      <trkpt lat="44.43827" lon="5.82039">
        <ele>1236</ele>
        <time>2022-06-09T22:33:24Z</time>
      </trkpt>
      <trkpt lat="44.43816" lon="5.81988">
        <ele>1224</ele>
        <time>2022-06-09T22:33:33Z</time>
      </trkpt>
      <trkpt lat="44.43809" lon="5.81974">
        <ele>1219</ele>
        <time>2022-06-09T22:33:36Z</time>
      </trkpt>
      <trkpt lat="44.43805" lon="5.81941">
        <ele>1213</ele>
        <time>2022-06-09T22:33:42Z</time>
      </trkpt>
      <trkpt lat="44.4379" lon="5.81908">
        <ele>1202</ele>
        <time>2022-06-09T22:33:48Z</time>
      </trkpt>
      <trkpt lat="44.43785" lon="5.81888">
        <ele>1196</ele>
        <time>2022-06-09T22:33:52Z</time>
      </trkpt>
      <trkpt lat="44.43784" lon="5.8185">
        <ele>1190</ele>
        <time>2022-06-09T22:33:58Z</time>
      </trkpt>
      <trkpt lat="44.43781" lon="5.81838">
        <ele>1187</ele>
        <time>2022-06-09T22:34:00Z</time>
      </trkpt>
      <trkpt lat="44.43769" lon="5.81817">
        <ele>1179</ele>
        <time>2022-06-09T22:34:05Z</time>
      </trkpt>
      <trkpt lat="44.43765" lon="5.81782">
        <ele>1172</ele>
        <time>2022-06-09T22:34:11Z</time>
      </trkpt>
      <trkpt lat="44.43756" lon="5.8176">
        <ele>1165</ele>
        <time>2022-06-09T22:34:15Z</time>
      </trkpt>
      <trkpt lat="44.43737" lon="5.81732">
        <ele>1156</ele>
        <time>2022-06-09T22:34:21Z</time>
      </trkpt>
      <trkpt lat="44.43714" lon="5.81717">
        <ele>1148</ele>
        <time>2022-06-09T22:34:27Z</time>
      </trkpt>
      <trkpt lat="44.43692" lon="5.81712">
        <ele>1141</ele>
        <time>2022-06-09T22:34:32Z</time>
      </trkpt>
      <trkpt lat="44.43685" lon="5.81708">
        <ele>1139</ele>
        <time>2022-06-09T22:34:34Z</time>
      </trkpt>
      <trkpt lat="44.43675" lon="5.81695">
        <ele>1135</ele>
        <time>2022-06-09T22:34:37Z</time>
      </trkpt>
      <trkpt lat="44.43668" lon="5.81666">
        <ele>1129</ele>
        <time>2022-06-09T22:34:42Z</time>
      </trkpt>
      <trkpt lat="44.43648" lon="5.81639">
        <ele>1118</ele>
        <time>2022-06-09T22:34:49Z</time>
      </trkpt>
      <trkpt lat="44.43644" lon="5.81601">
        <ele>1112</ele>
        <time>2022-06-09T22:34:55Z</time>
      </trkpt>
      <trkpt lat="44.43647" lon="5.81539">
        <ele>1109</ele>
        <time>2022-06-09T22:35:06Z</time>
      </trkpt>
      <trkpt lat="44.43637" lon="5.81517">
        <ele>1104</ele>
        <time>2022-06-09T22:35:10Z</time>
      </trkpt>
      <trkpt lat="44.43631" lon="5.81518">
        <ele>1102</ele>
        <time>2022-06-09T22:35:11Z</time>
      </trkpt>
      <trkpt lat="44.43628" lon="5.81516">
        <ele>1101</ele>
        <time>2022-06-09T22:35:12Z</time>
      </trkpt>
      <trkpt lat="44.4363" lon="5.81512">
        <ele>1102</ele>
        <time>2022-06-09T22:35:13Z</time>
      </trkpt>
      <trkpt lat="44.43628" lon="5.81521">
        <ele>1101</ele>
        <time>2022-06-09T22:35:15Z</time>
      </trkpt>
      <trkpt lat="44.43624" lon="5.81526">
        <ele>1100</ele>
        <time>2022-06-09T22:35:16Z</time>
      </trkpt>
      <trkpt lat="44.43621" lon="5.81562">
        <ele>1100</ele>
        <time>2022-06-09T22:35:22Z</time>
      </trkpt>
      <trkpt lat="44.43608" lon="5.8161">
        <ele>1098</ele>
        <time>2022-06-09T22:35:30Z</time>
      </trkpt>
      <trkpt lat="44.43589" lon="5.81616">
        <ele>1091</ele>
        <time>2022-06-09T22:35:35Z</time>
      </trkpt>
      <trkpt lat="44.43556" lon="5.81649">
        <ele>1081</ele>
        <time>2022-06-09T22:35:44Z</time>
      </trkpt>
      <trkpt lat="44.43546" lon="5.81665">
        <ele>1078</ele>
        <time>2022-06-09T22:35:48Z</time>
      </trkpt>
      <trkpt lat="44.43521" lon="5.81694">
        <ele>1069</ele>
        <time>2022-06-09T22:35:56Z</time>
      </trkpt>
      <trkpt lat="44.43504" lon="5.81694">
        <ele>1061</ele>
        <time>2022-06-09T22:36:00Z</time>
      </trkpt>
      <trkpt lat="44.43501" lon="5.81692">
        <ele>1060</ele>
        <time>2022-06-09T22:36:00Z</time>
      </trkpt>
      <trkpt lat="44.43498" lon="5.81687">
        <ele>1058</ele>
        <time>2022-06-09T22:36:01Z</time>
      </trkpt>
      <trkpt lat="44.435" lon="5.81676">
        <ele>1058</ele>
        <time>2022-06-09T22:36:03Z</time>
      </trkpt>
      <trkpt lat="44.43498" lon="5.81663">
        <ele>1057</ele>
        <time>2022-06-09T22:36:06Z</time>
      </trkpt>
      <trkpt lat="44.43499" lon="5.81641">
        <ele>1057</ele>
        <time>2022-06-09T22:36:09Z</time>
      </trkpt>
      <trkpt lat="44.43491" lon="5.81625">
        <ele>1054</ele>
        <time>2022-06-09T22:36:12Z</time>
      </trkpt>
      <trkpt lat="44.43493" lon="5.81575">
        <ele>1054</ele>
        <time>2022-06-09T22:36:21Z</time>
      </trkpt>
      <trkpt lat="44.43486" lon="5.81574">
        <ele>1051</ele>
        <time>2022-06-09T22:36:22Z</time>
      </trkpt>
      <trkpt lat="44.43467" lon="5.8156">
        <ele>1044</ele>
        <time>2022-06-09T22:36:27Z</time>
      </trkpt>
      <trkpt lat="44.4346" lon="5.81545">
        <ele>1042</ele>
        <time>2022-06-09T22:36:30Z</time>
      </trkpt>
      <trkpt lat="44.4344" lon="5.81451">
        <ele>1038</ele>
        <time>2022-06-09T22:36:47Z</time>
      </trkpt>
      <trkpt lat="44.43441" lon="5.81389">
        <ele>1034</ele>
        <time>2022-06-09T22:36:57Z</time>
      </trkpt>
      <trkpt lat="44.43435" lon="5.81371">
        <ele>1031</ele>
        <time>2022-06-09T22:37:00Z</time>
      </trkpt>
      <trkpt lat="44.43417" lon="5.81348">
        <ele>1028</ele>
        <time>2022-06-09T22:37:06Z</time>
      </trkpt>
      <trkpt lat="44.43416" lon="5.81341">
        <ele>1027</ele>
        <time>2022-06-09T22:37:07Z</time>
      </trkpt>
      <trkpt lat="44.43419" lon="5.81315">
        <ele>1023</ele>
        <time>2022-06-09T22:37:12Z</time>
      </trkpt>
      <trkpt lat="44.43418" lon="5.8123">
        <ele>1008</ele>
        <time>2022-06-09T22:37:26Z</time>
      </trkpt>
      <trkpt lat="44.43411" lon="5.81208">
        <ele>1006</ele>
        <time>2022-06-09T22:37:30Z</time>
      </trkpt>
      <trkpt lat="44.43404" lon="5.81142">
        <ele>994</ele>
        <time>2022-06-09T22:37:41Z</time>
      </trkpt>
      <trkpt lat="44.43404" lon="5.81128">
        <ele>991</ele>
        <time>2022-06-09T22:37:43Z</time>
      </trkpt>
      <trkpt lat="44.43409" lon="5.81097">
        <ele>984</ele>
        <time>2022-06-09T22:37:49Z</time>
      </trkpt>
      <trkpt lat="44.43405" lon="5.81054">
        <ele>975</ele>
        <time>2022-06-09T22:37:56Z</time>
      </trkpt>
      <trkpt lat="44.43408" lon="5.81038">
        <ele>972</ele>
        <time>2022-06-09T22:37:59Z</time>
      </trkpt>
      <trkpt lat="44.43424" lon="5.81022">
        <ele>968</ele>
        <time>2022-06-09T22:38:03Z</time>
      </trkpt>
      <trkpt lat="44.43427" lon="5.81015">
        <ele>966</ele>
        <time>2022-06-09T22:38:05Z</time>
      </trkpt>
      <trkpt lat="44.43425" lon="5.80944">
        <ele>954</ele>
        <time>2022-06-09T22:38:16Z</time>
      </trkpt>
      <trkpt lat="44.43395" lon="5.80783">
        <ele>933</ele>
        <time>2022-06-09T22:38:44Z</time>
      </trkpt>
      <trkpt lat="44.43408" lon="5.80756">
        <ele>933</ele>
        <time>2022-06-09T22:38:50Z</time>
      </trkpt>
      <trkpt lat="44.43439" lon="5.80713">
        <ele>925</ele>
        <time>2022-06-09T22:39:00Z</time>
      </trkpt>
      <trkpt lat="44.43447" lon="5.80708">
        <ele>923</ele>
        <time>2022-06-09T22:39:02Z</time>
      </trkpt>
      <trkpt lat="44.43453" lon="5.80708">
        <ele>922</ele>
        <time>2022-06-09T22:39:03Z</time>
      </trkpt>
      <trkpt lat="44.43464" lon="5.80714">
        <ele>921</ele>
        <time>2022-06-09T22:39:06Z</time>
      </trkpt>
      <trkpt lat="44.43477" lon="5.80717">
        <ele>920</ele>
        <time>2022-06-09T22:39:09Z</time>
      </trkpt>
      <trkpt lat="44.43486" lon="5.80709">
        <ele>918</ele>
        <time>2022-06-09T22:39:12Z</time>
      </trkpt>
      <trkpt lat="44.4349" lon="5.80699">
        <ele>917</ele>
        <time>2022-06-09T22:39:14Z</time>
      </trkpt>
      <trkpt lat="44.43493" lon="5.80678">
        <ele>915</ele>
        <time>2022-06-09T22:39:17Z</time>
      </trkpt>
      <trkpt lat="44.4349" lon="5.80643">
        <ele>911</ele>
        <time>2022-06-09T22:39:23Z</time>
      </trkpt>
      <trkpt lat="44.43491" lon="5.80615">
        <ele>908</ele>
        <time>2022-06-09T22:39:28Z</time>
      </trkpt>
      <trkpt lat="44.43514" lon="5.80539">
        <ele>897</ele>
        <time>2022-06-09T22:39:41Z</time>
      </trkpt>
      <trkpt lat="44.43524" lon="5.80515">
        <ele>893</ele>
        <time>2022-06-09T22:39:46Z</time>
      </trkpt>
      <trkpt lat="44.43527" lon="5.80511">
        <ele>893</ele>
        <time>2022-06-09T22:39:47Z</time>
      </trkpt>
      <trkpt lat="44.43554" lon="5.80506">
        <ele>890</ele>
        <time>2022-06-09T22:39:53Z</time>
      </trkpt>
      <trkpt lat="44.43573" lon="5.80484">
        <ele>888</ele>
        <time>2022-06-09T22:39:59Z</time>
      </trkpt>
      <trkpt lat="44.43599" lon="5.80473">
        <ele>887</ele>
        <time>2022-06-09T22:40:05Z</time>
      </trkpt>
      <trkpt lat="44.43608" lon="5.80464">
        <ele>887</ele>
        <time>2022-06-09T22:40:08Z</time>
      </trkpt>
      <trkpt lat="44.43608" lon="5.80455">
        <ele>887</ele>
        <time>2022-06-09T22:40:10Z</time>
      </trkpt>
      <trkpt lat="44.43599" lon="5.80433">
        <ele>885</ele>
        <time>2022-06-09T22:40:14Z</time>
      </trkpt>
      <trkpt lat="44.43603" lon="5.80397">
        <ele>884</ele>
        <time>2022-06-09T22:40:20Z</time>
      </trkpt>
      <trkpt lat="44.43601" lon="5.80368">
        <ele>883</ele>
        <time>2022-06-09T22:40:25Z</time>
      </trkpt>
      <trkpt lat="44.43595" lon="5.80341">
        <ele>881</ele>
        <time>2022-06-09T22:40:29Z</time>
      </trkpt>
      <trkpt lat="44.43582" lon="5.80309">
        <ele>879</ele>
        <time>2022-06-09T22:40:36Z</time>
      </trkpt>
      <trkpt lat="44.43576" lon="5.80282">
        <ele>879</ele>
        <time>2022-06-09T22:40:40Z</time>
      </trkpt>
      <trkpt lat="44.43599" lon="5.80242">
        <ele>879</ele>
        <time>2022-06-09T22:40:49Z</time>
      </trkpt>
      <trkpt lat="44.43614" lon="5.80231">
        <ele>879</ele>
        <time>2022-06-09T22:40:53Z</time>
      </trkpt>
      <trkpt lat="44.43616" lon="5.80223">
        <ele>879</ele>
        <time>2022-06-09T22:40:54Z</time>
      </trkpt>
      <trkpt lat="44.43628" lon="5.80204">
        <ele>879</ele>
        <time>2022-06-09T22:40:58Z</time>
      </trkpt>
      <trkpt lat="44.43642" lon="5.80165">
        <ele>878</ele>
        <time>2022-06-09T22:41:06Z</time>
      </trkpt>
      <trkpt lat="44.43641" lon="5.80161">
        <ele>877</ele>
        <time>2022-06-09T22:41:06Z</time>
      </trkpt>
      <trkpt lat="44.4365" lon="5.80141">
        <ele>876</ele>
        <time>2022-06-09T22:41:10Z</time>
      </trkpt>
      <trkpt lat="44.4364" lon="5.80073">
        <ele>871</ele>
        <time>2022-06-09T22:41:22Z</time>
      </trkpt>
      <trkpt lat="44.43638" lon="5.80024">
        <ele>869</ele>
        <time>2022-06-09T22:41:30Z</time>
      </trkpt>
      <trkpt lat="44.4363" lon="5.79974">
        <ele>866</ele>
        <time>2022-06-09T22:41:39Z</time>
      </trkpt>
      <trkpt lat="44.43633" lon="5.79901">
        <ele>863</ele>
        <time>2022-06-09T22:41:51Z</time>
      </trkpt>
      <trkpt lat="44.4363" lon="5.79838">
        <ele>860</ele>
        <time>2022-06-09T22:42:01Z</time>
      </trkpt>
      <trkpt lat="44.43631" lon="5.79834">
        <ele>860</ele>
        <time>2022-06-09T22:42:02Z</time>
      </trkpt>
      <trkpt lat="44.43639" lon="5.79832">
        <ele>861</ele>
        <time>2022-06-09T22:42:04Z</time>
      </trkpt>
      <trkpt lat="44.43644" lon="5.79834">
        <ele>862</ele>
        <time>2022-06-09T22:42:05Z</time>
      </trkpt>
      <trkpt lat="44.4363" lon="5.79833">
        <ele>860</ele>
        <time>2022-06-09T22:42:08Z</time>
      </trkpt>
      <trkpt lat="44.43603" lon="5.79803">
        <ele>856</ele>
        <time>2022-06-09T22:42:17Z</time>
      </trkpt>
      <trkpt lat="44.43583" lon="5.79791">
        <ele>853</ele>
        <time>2022-06-09T22:42:22Z</time>
      </trkpt>
      <trkpt lat="44.43575" lon="5.79778">
        <ele>853</ele>
        <time>2022-06-09T22:42:24Z</time>
      </trkpt>
      <trkpt lat="44.43571" lon="5.79755">
        <ele>852</ele>
        <time>2022-06-09T22:42:28Z</time>
      </trkpt>
      <trkpt lat="44.43555" lon="5.79732">
        <ele>850</ele>
        <time>2022-06-09T22:42:34Z</time>
      </trkpt>
      <trkpt lat="44.43556" lon="5.79727">
        <ele>850</ele>
        <time>2022-06-09T22:42:35Z</time>
      </trkpt>
      <trkpt lat="44.43576" lon="5.79703">
        <ele>850</ele>
        <time>2022-06-09T22:42:41Z</time>
      </trkpt>
      <trkpt lat="44.43589" lon="5.79676">
        <ele>850</ele>
        <time>2022-06-09T22:42:46Z</time>
      </trkpt>
      <trkpt lat="44.43594" lon="5.7966">
        <ele>849</ele>
        <time>2022-06-09T22:42:49Z</time>
      </trkpt>
      <trkpt lat="44.43591" lon="5.79642">
        <ele>848</ele>
        <time>2022-06-09T22:42:52Z</time>
      </trkpt>
      <trkpt lat="44.43578" lon="5.7961">
        <ele>847</ele>
        <time>2022-06-09T22:42:58Z</time>
      </trkpt>
      <trkpt lat="44.43526" lon="5.79457">
        <ele>837</ele>
        <time>2022-06-09T22:43:27Z</time>
      </trkpt>
      <trkpt lat="44.43515" lon="5.79444">
        <ele>836</ele>
        <time>2022-06-09T22:43:30Z</time>
      </trkpt>
      <trkpt lat="44.43499" lon="5.79438">
        <ele>835</ele>
        <time>2022-06-09T22:43:34Z</time>
      </trkpt>
      <trkpt lat="44.43484" lon="5.79429">
        <ele>834</ele>
        <time>2022-06-09T22:43:38Z</time>
      </trkpt>
      <trkpt lat="44.43374" lon="5.79348">
        <ele>835</ele>
        <time>2022-06-09T22:44:07Z</time>
      </trkpt>
      <trkpt lat="44.43359" lon="5.79341">
        <ele>836</ele>
        <time>2022-06-09T22:44:10Z</time>
      </trkpt>
      <trkpt lat="44.43354" lon="5.79333">
        <ele>836</ele>
        <time>2022-06-09T22:44:12Z</time>
      </trkpt>
      <trkpt lat="44.43344" lon="5.79324">
        <ele>837</ele>
        <time>2022-06-09T22:44:15Z</time>
      </trkpt>
      <trkpt lat="44.43326" lon="5.79313">
        <ele>838</ele>
        <time>2022-06-09T22:44:20Z</time>
      </trkpt>
      <trkpt lat="44.43326" lon="5.79308">
        <ele>837</ele>
        <time>2022-06-09T22:44:20Z</time>
      </trkpt>
      <trkpt lat="44.4333" lon="5.79308">
        <ele>837</ele>
        <time>2022-06-09T22:44:21Z</time>
      </trkpt>
      <trkpt lat="44.43334" lon="5.79313">
        <ele>837</ele>
        <time>2022-06-09T22:44:23Z</time>
      </trkpt>
      <trkpt lat="44.43334" lon="5.79317">
        <ele>838</ele>
        <time>2022-06-09T22:44:23Z</time>
      </trkpt>
      <trkpt lat="44.43331" lon="5.79311">
        <ele>837</ele>
        <time>2022-06-09T22:44:24Z</time>
      </trkpt>
      <trkpt lat="44.43316" lon="5.79298">
        <ele>838</ele>
        <time>2022-06-09T22:44:29Z</time>
      </trkpt>
      <trkpt lat="44.43296" lon="5.79292">
        <ele>838</ele>
        <time>2022-06-09T22:44:33Z</time>
      </trkpt>
      <trkpt lat="44.43278" lon="5.79278">
        <ele>839</ele>
        <time>2022-06-09T22:44:38Z</time>
      </trkpt>
      <trkpt lat="44.43257" lon="5.79271">
        <ele>841</ele>
        <time>2022-06-09T22:44:43Z</time>
      </trkpt>
      <trkpt lat="44.43245" lon="5.79263">
        <ele>842</ele>
        <time>2022-06-09T22:44:46Z</time>
      </trkpt>
      <trkpt lat="44.43219" lon="5.79218">
        <ele>844</ele>
        <time>2022-06-09T22:44:56Z</time>
      </trkpt>
      <trkpt lat="44.43219" lon="5.79211">
        <ele>845</ele>
        <time>2022-06-09T22:44:57Z</time>
      </trkpt>
      <trkpt lat="44.43214" lon="5.79199">
        <ele>846</ele>
        <time>2022-06-09T22:44:59Z</time>
      </trkpt>
      <trkpt lat="44.43215" lon="5.79179">
        <ele>848</ele>
        <time>2022-06-09T22:45:03Z</time>
      </trkpt>
      <trkpt lat="44.43213" lon="5.79175">
        <ele>849</ele>
        <time>2022-06-09T22:45:04Z</time>
      </trkpt>
      <trkpt lat="44.43206" lon="5.79178">
        <ele>849</ele>
        <time>2022-06-09T22:45:05Z</time>
      </trkpt>
      <trkpt lat="44.43197" lon="5.79193">
        <ele>847</ele>
        <time>2022-06-09T22:45:09Z</time>
      </trkpt>
      <trkpt lat="44.43193" lon="5.79194">
        <ele>847</ele>
        <time>2022-06-09T22:45:09Z</time>
      </trkpt>
      <trkpt lat="44.43189" lon="5.79191">
        <ele>848</ele>
        <time>2022-06-09T22:45:11Z</time>
      </trkpt>
      <trkpt lat="44.43187" lon="5.79186">
        <ele>848</ele>
        <time>2022-06-09T22:45:12Z</time>
      </trkpt>
      <trkpt lat="44.43195" lon="5.79162">
        <ele>851</ele>
        <time>2022-06-09T22:45:16Z</time>
      </trkpt>
      <trkpt lat="44.43192" lon="5.79141">
        <ele>854</ele>
        <time>2022-06-09T22:45:20Z</time>
      </trkpt>
      <trkpt lat="44.43183" lon="5.79128">
        <ele>856</ele>
        <time>2022-06-09T22:45:23Z</time>
      </trkpt>
      <trkpt lat="44.43179" lon="5.79127">
        <ele>857</ele>
        <time>2022-06-09T22:45:23Z</time>
      </trkpt>
      <trkpt lat="44.43172" lon="5.79119">
        <ele>859</ele>
        <time>2022-06-09T22:45:26Z</time>
      </trkpt>
      <trkpt lat="44.43171" lon="5.79113">
        <ele>860</ele>
        <time>2022-06-09T22:45:27Z</time>
      </trkpt>
      <trkpt lat="44.43158" lon="5.79102">
        <ele>861</ele>
        <time>2022-06-09T22:45:30Z</time>
      </trkpt>
      <trkpt lat="44.43149" lon="5.79083">
        <ele>864</ele>
        <time>2022-06-09T22:45:34Z</time>
      </trkpt>
      <trkpt lat="44.43136" lon="5.79073">
        <ele>864</ele>
        <time>2022-06-09T22:45:37Z</time>
      </trkpt>
      <trkpt lat="44.43135" lon="5.79064">
        <ele>865</ele>
        <time>2022-06-09T22:45:39Z</time>
      </trkpt>
      <trkpt lat="44.43131" lon="5.79059">
        <ele>866</ele>
        <time>2022-06-09T22:45:40Z</time>
      </trkpt>
      <trkpt lat="44.43129" lon="5.79046">
        <ele>868</ele>
        <time>2022-06-09T22:45:42Z</time>
      </trkpt>
      <trkpt lat="44.43119" lon="5.79021">
        <ele>873</ele>
        <time>2022-06-09T22:45:47Z</time>
      </trkpt>
      <trkpt lat="44.4311" lon="5.79011">
        <ele>875</ele>
        <time>2022-06-09T22:45:50Z</time>
      </trkpt>
      <trkpt lat="44.43107" lon="5.79">
        <ele>878</ele>
        <time>2022-06-09T22:45:52Z</time>
      </trkpt>
      <trkpt lat="44.43092" lon="5.78989">
        <ele>882</ele>
        <time>2022-06-09T22:45:56Z</time>
      </trkpt>
      <trkpt lat="44.43087" lon="5.78971">
        <ele>886</ele>
        <time>2022-06-09T22:45:59Z</time>
      </trkpt>
      <trkpt lat="44.43077" lon="5.78961">
        <ele>888</ele>
        <time>2022-06-09T22:46:02Z</time>
      </trkpt>
      <trkpt lat="44.43067" lon="5.78955">
        <ele>888</ele>
        <time>2022-06-09T22:46:04Z</time>
      </trkpt>
      <trkpt lat="44.43054" lon="5.78938">
        <ele>891</ele>
        <time>2022-06-09T22:46:09Z</time>
      </trkpt>
      <trkpt lat="44.43046" lon="5.78907">
        <ele>898</ele>
        <time>2022-06-09T22:46:14Z</time>
      </trkpt>
      <trkpt lat="44.43039" lon="5.78901">
        <ele>899</ele>
        <time>2022-06-09T22:46:16Z</time>
      </trkpt>
      <trkpt lat="44.43032" lon="5.78904">
        <ele>898</ele>
        <time>2022-06-09T22:46:18Z</time>
      </trkpt>
      <trkpt lat="44.43017" lon="5.78894">
        <ele>900</ele>
        <time>2022-06-09T22:46:22Z</time>
      </trkpt>
      <trkpt lat="44.43007" lon="5.78881">
        <ele>902</ele>
        <time>2022-06-09T22:46:25Z</time>
      </trkpt>
      <trkpt lat="44.42998" lon="5.78874">
        <ele>904</ele>
        <time>2022-06-09T22:46:27Z</time>
      </trkpt>
      <trkpt lat="44.42986" lon="5.78854">
        <ele>907</ele>
        <time>2022-06-09T22:46:32Z</time>
      </trkpt>
      <trkpt lat="44.42982" lon="5.78855">
        <ele>907</ele>
        <time>2022-06-09T22:46:32Z</time>
      </trkpt>
      <trkpt lat="44.42981" lon="5.7885">
        <ele>908</ele>
        <time>2022-06-09T22:46:33Z</time>
      </trkpt>
      <trkpt lat="44.42976" lon="5.78848">
        <ele>909</ele>
        <time>2022-06-09T22:46:35Z</time>
      </trkpt>
      <trkpt lat="44.42973" lon="5.78842">
        <ele>910</ele>
        <time>2022-06-09T22:46:36Z</time>
      </trkpt>
      <trkpt lat="44.42967" lon="5.7884">
        <ele>911</ele>
        <time>2022-06-09T22:46:37Z</time>
      </trkpt>
      <trkpt lat="44.42965" lon="5.78843">
        <ele>911</ele>
        <time>2022-06-09T22:46:38Z</time>
      </trkpt>
      <trkpt lat="44.42962" lon="5.78841">
        <ele>911</ele>
        <time>2022-06-09T22:46:39Z</time>
      </trkpt>
      <trkpt lat="44.4295" lon="5.78822">
        <ele>913</ele>
        <time>2022-06-09T22:46:43Z</time>
      </trkpt>
      <trkpt lat="44.4295" lon="5.78817">
        <ele>913</ele>
        <time>2022-06-09T22:46:44Z</time>
      </trkpt>
      <trkpt lat="44.42946" lon="5.78811">
        <ele>913</ele>
        <time>2022-06-09T22:46:45Z</time>
      </trkpt>
      <trkpt lat="44.42943" lon="5.78809">
        <ele>913</ele>
        <time>2022-06-09T22:46:46Z</time>
      </trkpt>
      <trkpt lat="44.42939" lon="5.7881">
        <ele>913</ele>
        <time>2022-06-09T22:46:47Z</time>
      </trkpt>
      <trkpt lat="44.42936" lon="5.78814">
        <ele>914</ele>
        <time>2022-06-09T22:46:48Z</time>
      </trkpt>
      <trkpt lat="44.42935" lon="5.7881">
        <ele>914</ele>
        <time>2022-06-09T22:46:49Z</time>
      </trkpt>
      <trkpt lat="44.42937" lon="5.78816">
        <ele>914</ele>
        <time>2022-06-09T22:46:50Z</time>
      </trkpt>
      <trkpt lat="44.42936" lon="5.78813">
        <ele>914</ele>
        <time>2022-06-09T22:46:50Z</time>
      </trkpt>
      <trkpt lat="44.42907" lon="5.788">
        <ele>917</ele>
        <time>2022-06-09T22:46:57Z</time>
      </trkpt>
      <trkpt lat="44.42891" lon="5.78787">
        <ele>920</ele>
        <time>2022-06-09T22:47:02Z</time>
      </trkpt>
      <trkpt lat="44.42888" lon="5.78787">
        <ele>921</ele>
        <time>2022-06-09T22:47:02Z</time>
      </trkpt>
      <trkpt lat="44.42864" lon="5.78792">
        <ele>927</ele>
        <time>2022-06-09T22:47:08Z</time>
      </trkpt>
      <trkpt lat="44.42851" lon="5.78801">
        <ele>930</ele>
        <time>2022-06-09T22:47:11Z</time>
      </trkpt>
      <trkpt lat="44.42843" lon="5.78801">
        <ele>932</ele>
        <time>2022-06-09T22:47:13Z</time>
      </trkpt>
      <trkpt lat="44.4284" lon="5.78807">
        <ele>933</ele>
        <time>2022-06-09T22:47:14Z</time>
      </trkpt>
      <trkpt lat="44.42822" lon="5.78811">
        <ele>939</ele>
        <time>2022-06-09T22:47:19Z</time>
      </trkpt>
      <trkpt lat="44.4281" lon="5.78818">
        <ele>943</ele>
        <time>2022-06-09T22:47:22Z</time>
      </trkpt>
      <trkpt lat="44.42799" lon="5.78818">
        <ele>947</ele>
        <time>2022-06-09T22:47:24Z</time>
      </trkpt>
      <trkpt lat="44.42773" lon="5.78811">
        <ele>958</ele>
        <time>2022-06-09T22:47:30Z</time>
      </trkpt>
      <trkpt lat="44.42771" lon="5.78807">
        <ele>960</ele>
        <time>2022-06-09T22:47:31Z</time>
      </trkpt>
      <trkpt lat="44.42772" lon="5.78802">
        <ele>960</ele>
        <time>2022-06-09T22:47:32Z</time>
      </trkpt>
      <trkpt lat="44.42767" lon="5.78794">
        <ele>964</ele>
        <time>2022-06-09T22:47:34Z</time>
      </trkpt>
      <trkpt lat="44.42756" lon="5.78791">
        <ele>969</ele>
        <time>2022-06-09T22:47:37Z</time>
      </trkpt>
      <trkpt lat="44.42754" lon="5.78794">
        <ele>970</ele>
        <time>2022-06-09T22:47:37Z</time>
      </trkpt>
      <trkpt lat="44.4275" lon="5.78793">
        <ele>972</ele>
        <time>2022-06-09T22:47:38Z</time>
      </trkpt>
      <trkpt lat="44.42756" lon="5.78782">
        <ele>972</ele>
        <time>2022-06-09T22:47:40Z</time>
      </trkpt>
      <trkpt lat="44.42747" lon="5.78763">
        <ele>978</ele>
        <time>2022-06-09T22:47:44Z</time>
      </trkpt>
      <trkpt lat="44.42741" lon="5.78761">
        <ele>976</ele>
        <time>2022-06-09T22:47:46Z</time>
      </trkpt>
      <trkpt lat="44.42744" lon="5.78758">
        <ele>978</ele>
        <time>2022-06-09T22:47:47Z</time>
      </trkpt>
      <trkpt lat="44.42748" lon="5.78765">
        <ele>978</ele>
        <time>2022-06-09T22:47:48Z</time>
      </trkpt>
      <trkpt lat="44.42747" lon="5.78767">
        <ele>977</ele>
        <time>2022-06-09T22:47:49Z</time>
      </trkpt>
      <trkpt lat="44.42752" lon="5.78771">
        <ele>976</ele>
        <time>2022-06-09T22:47:50Z</time>
      </trkpt>
      <trkpt lat="44.42758" lon="5.78768">
        <ele>974</ele>
        <time>2022-06-09T22:47:51Z</time>
      </trkpt>
      <trkpt lat="44.42756" lon="5.78761">
        <ele>976</ele>
        <time>2022-06-09T22:47:53Z</time>
      </trkpt>
      <trkpt lat="44.42747" lon="5.78763">
        <ele>978</ele>
        <time>2022-06-09T22:47:55Z</time>
      </trkpt>
      <trkpt lat="44.42735" lon="5.7876">
        <ele>974</ele>
        <time>2022-06-09T22:47:58Z</time>
      </trkpt>
      <trkpt lat="44.42719" lon="5.78768">
        <ele>967</ele>
        <time>2022-06-09T22:48:02Z</time>
      </trkpt>
      <trkpt lat="44.42713" lon="5.78764">
        <ele>965</ele>
        <time>2022-06-09T22:48:03Z</time>
      </trkpt>
      <trkpt lat="44.42707" lon="5.78772">
        <ele>961</ele>
        <time>2022-06-09T22:48:05Z</time>
      </trkpt>
      <trkpt lat="44.42708" lon="5.78769">
        <ele>962</ele>
        <time>2022-06-09T22:48:06Z</time>
      </trkpt>
      <trkpt lat="44.42706" lon="5.78769">
        <ele>962</ele>
        <time>2022-06-09T22:48:06Z</time>
      </trkpt>
      <trkpt lat="44.42704" lon="5.78779">
        <ele>958</ele>
        <time>2022-06-09T22:48:08Z</time>
      </trkpt>
      <trkpt lat="44.42696" lon="5.78786">
        <ele>954</ele>
        <time>2022-06-09T22:48:10Z</time>
      </trkpt>
      <trkpt lat="44.42689" lon="5.78783">
        <ele>952</ele>
        <time>2022-06-09T22:48:12Z</time>
      </trkpt>
      <trkpt lat="44.42682" lon="5.78767">
        <ele>953</ele>
        <time>2022-06-09T22:48:15Z</time>
      </trkpt>
      <trkpt lat="44.42668" lon="5.7876">
        <ele>950</ele>
        <time>2022-06-09T22:48:18Z</time>
      </trkpt>
      <trkpt lat="44.4266" lon="5.7875">
        <ele>947</ele>
        <time>2022-06-09T22:48:21Z</time>
      </trkpt>
      <trkpt lat="44.42659" lon="5.78757">
        <ele>944</ele>
        <time>2022-06-09T22:48:22Z</time>
      </trkpt>
      <trkpt lat="44.42653" lon="5.78766">
        <ele>938</ele>
        <time>2022-06-09T22:48:24Z</time>
      </trkpt>
      <trkpt lat="44.42654" lon="5.78775">
        <ele>937</ele>
        <time>2022-06-09T22:48:26Z</time>
      </trkpt>
      <trkpt lat="44.42647" lon="5.78775">
        <ele>932</ele>
        <time>2022-06-09T22:48:27Z</time>
      </trkpt>
      <trkpt lat="44.42636" lon="5.78769">
        <ele>925</ele>
        <time>2022-06-09T22:48:30Z</time>
      </trkpt>
      <trkpt lat="44.42635" lon="5.78777">
        <ele>923</ele>
        <time>2022-06-09T22:48:31Z</time>
      </trkpt>
      <trkpt lat="44.42639" lon="5.78796">
        <ele>922</ele>
        <time>2022-06-09T22:48:35Z</time>
      </trkpt>
      <trkpt lat="44.4263" lon="5.78798">
        <ele>916</ele>
        <time>2022-06-09T22:48:37Z</time>
      </trkpt>
      <trkpt lat="44.42629" lon="5.78795">
        <ele>916</ele>
        <time>2022-06-09T22:48:37Z</time>
      </trkpt>
      <trkpt lat="44.42638" lon="5.7881">
        <ele>919</ele>
        <time>2022-06-09T22:48:41Z</time>
      </trkpt>
      <trkpt lat="44.42636" lon="5.7881">
        <ele>918</ele>
        <time>2022-06-09T22:48:41Z</time>
      </trkpt>
      <trkpt lat="44.42635" lon="5.78814">
        <ele>917</ele>
        <time>2022-06-09T22:48:42Z</time>
      </trkpt>
      <trkpt lat="44.42631" lon="5.78814">
        <ele>914</ele>
        <time>2022-06-09T22:48:43Z</time>
      </trkpt>
      <trkpt lat="44.42628" lon="5.78826">
        <ele>911</ele>
        <time>2022-06-09T22:48:45Z</time>
      </trkpt>
      <trkpt lat="44.4262" lon="5.78837">
        <ele>904</ele>
        <time>2022-06-09T22:48:47Z</time>
      </trkpt>
      <trkpt lat="44.42616" lon="5.78836">
        <ele>902</ele>
        <time>2022-06-09T22:48:48Z</time>
      </trkpt>
      <trkpt lat="44.42612" lon="5.78823">
        <ele>902</ele>
        <time>2022-06-09T22:48:51Z</time>
      </trkpt>
      <trkpt lat="44.42606" lon="5.78822">
        <ele>898</ele>
        <time>2022-06-09T22:48:52Z</time>
      </trkpt>
      <trkpt lat="44.42604" lon="5.78826">
        <ele>897</ele>
        <time>2022-06-09T22:48:53Z</time>
      </trkpt>
      <trkpt lat="44.42598" lon="5.78823">
        <ele>893</ele>
        <time>2022-06-09T22:48:54Z</time>
      </trkpt>
      <trkpt lat="44.42574" lon="5.78796">
        <ele>880</ele>
        <time>2022-06-09T22:49:02Z</time>
      </trkpt>
      <trkpt lat="44.42565" lon="5.78794">
        <ele>875</ele>
        <time>2022-06-09T22:49:04Z</time>
      </trkpt>
      <trkpt lat="44.42569" lon="5.78798">
        <ele>877</ele>
        <time>2022-06-09T22:49:05Z</time>
      </trkpt>
      <trkpt lat="44.42566" lon="5.78793">
        <ele>876</ele>
        <time>2022-06-09T22:49:06Z</time>
      </trkpt>
      <trkpt lat="44.42562" lon="5.78793">
        <ele>874</ele>
        <time>2022-06-09T22:49:07Z</time>
      </trkpt>
      <trkpt lat="44.42561" lon="5.78788">
        <ele>873</ele>
        <time>2022-06-09T22:49:08Z</time>
      </trkpt>
      <trkpt lat="44.42557" lon="5.7879">
        <ele>871</ele>
        <time>2022-06-09T22:49:09Z</time>
      </trkpt>
      <trkpt lat="44.42554" lon="5.788">
        <ele>869</ele>
        <time>2022-06-09T22:49:11Z</time>
      </trkpt>
      <trkpt lat="44.42548" lon="5.78795">
        <ele>866</ele>
        <time>2022-06-09T22:49:12Z</time>
      </trkpt>
      <trkpt lat="44.42548" lon="5.78808">
        <ele>865</ele>
        <time>2022-06-09T22:49:14Z</time>
      </trkpt>
      <trkpt lat="44.42542" lon="5.78802">
        <ele>862</ele>
        <time>2022-06-09T22:49:16Z</time>
      </trkpt>
      <trkpt lat="44.42541" lon="5.78807">
        <ele>861</ele>
        <time>2022-06-09T22:49:17Z</time>
      </trkpt>
      <trkpt lat="44.4254" lon="5.78803">
        <ele>861</ele>
        <time>2022-06-09T22:49:18Z</time>
      </trkpt>
      <trkpt lat="44.42538" lon="5.78805">
        <ele>859</ele>
        <time>2022-06-09T22:49:18Z</time>
      </trkpt>
      <trkpt lat="44.42538" lon="5.78811">
        <ele>859</ele>
        <time>2022-06-09T22:49:19Z</time>
      </trkpt>
      <trkpt lat="44.42535" lon="5.78816">
        <ele>857</ele>
        <time>2022-06-09T22:49:20Z</time>
      </trkpt>
      <trkpt lat="44.42529" lon="5.78809">
        <ele>854</ele>
        <time>2022-06-09T22:49:22Z</time>
      </trkpt>
      <trkpt lat="44.4253" lon="5.78811">
        <ele>855</ele>
        <time>2022-06-09T22:49:23Z</time>
      </trkpt>
      <trkpt lat="44.42526" lon="5.78817">
        <ele>852</ele>
        <time>2022-06-09T22:49:24Z</time>
      </trkpt>
      <trkpt lat="44.42524" lon="5.78814">
        <ele>851</ele>
        <time>2022-06-09T22:49:25Z</time>
      </trkpt>
      <trkpt lat="44.4252" lon="5.78817">
        <ele>849</ele>
        <time>2022-06-09T22:49:26Z</time>
      </trkpt>
      <trkpt lat="44.42515" lon="5.78814">
        <ele>846</ele>
        <time>2022-06-09T22:49:27Z</time>
      </trkpt>
      <trkpt lat="44.42516" lon="5.78818">
        <ele>846</ele>
        <time>2022-06-09T22:49:28Z</time>
      </trkpt>
      <trkpt lat="44.42514" lon="5.7882">
        <ele>845</ele>
        <time>2022-06-09T22:49:28Z</time>
      </trkpt>
      <trkpt lat="44.42512" lon="5.78817">
        <ele>844</ele>
        <time>2022-06-09T22:49:29Z</time>
      </trkpt>
      <trkpt lat="44.42512" lon="5.78822">
        <ele>844</ele>
        <time>2022-06-09T22:49:30Z</time>
      </trkpt>
      <trkpt lat="44.42507" lon="5.78814">
        <ele>841</ele>
        <time>2022-06-09T22:49:32Z</time>
      </trkpt>
      <trkpt lat="44.4251" lon="5.78794">
        <ele>844</ele>
        <time>2022-06-09T22:49:35Z</time>
      </trkpt>
      <trkpt lat="44.42506" lon="5.78781">
        <ele>843</ele>
        <time>2022-06-09T22:49:37Z</time>
      </trkpt>
      <trkpt lat="44.42507" lon="5.78773">
        <ele>844</ele>
        <time>2022-06-09T22:49:39Z</time>
      </trkpt>
      <trkpt lat="44.42503" lon="5.78767">
        <ele>842</ele>
        <time>2022-06-09T22:49:40Z</time>
      </trkpt>
      <trkpt lat="44.42501" lon="5.78735">
        <ele>841</ele>
        <time>2022-06-09T22:49:45Z</time>
      </trkpt>
      <trkpt lat="44.42486" lon="5.78728">
        <ele>836</ele>
        <time>2022-06-09T22:49:49Z</time>
      </trkpt>
      <trkpt lat="44.42464" lon="5.78739">
        <ele>831</ele>
        <time>2022-06-09T22:49:55Z</time>
      </trkpt>
      <trkpt lat="44.42459" lon="5.78738">
        <ele>829</ele>
        <time>2022-06-09T22:49:56Z</time>
      </trkpt>
      <trkpt lat="44.42456" lon="5.78728">
        <ele>827</ele>
        <time>2022-06-09T22:49:58Z</time>
      </trkpt>
      <trkpt lat="44.42455" lon="5.78732">
        <ele>827</ele>
        <time>2022-06-09T22:49:58Z</time>
      </trkpt>
      <trkpt lat="44.42447" lon="5.7872">
        <ele>824</ele>
        <time>2022-06-09T22:50:01Z</time>
      </trkpt>
      <trkpt lat="44.42432" lon="5.78725">
        <ele>820</ele>
        <time>2022-06-09T22:50:05Z</time>
      </trkpt>
      <trkpt lat="44.42421" lon="5.78723">
        <ele>816</ele>
        <time>2022-06-09T22:50:07Z</time>
      </trkpt>
      <trkpt lat="44.42409" lon="5.78725">
        <ele>815</ele>
        <time>2022-06-09T22:50:10Z</time>
      </trkpt>
      <trkpt lat="44.42401" lon="5.78735">
        <ele>815</ele>
        <time>2022-06-09T22:50:12Z</time>
      </trkpt>
      <trkpt lat="44.42384" lon="5.78748">
        <ele>816</ele>
        <time>2022-06-09T22:50:17Z</time>
      </trkpt>
      <trkpt lat="44.42367" lon="5.78748">
        <ele>814</ele>
        <time>2022-06-09T22:50:21Z</time>
      </trkpt>
      <trkpt lat="44.42351" lon="5.78733">
        <ele>811</ele>
        <time>2022-06-09T22:50:25Z</time>
      </trkpt>
      <trkpt lat="44.42349" lon="5.78724">
        <ele>810</ele>
        <time>2022-06-09T22:50:27Z</time>
      </trkpt>
      <trkpt lat="44.42322" lon="5.78702">
        <ele>803</ele>
        <time>2022-06-09T22:50:34Z</time>
      </trkpt>
      <trkpt lat="44.42307" lon="5.78684">
        <ele>798</ele>
        <time>2022-06-09T22:50:39Z</time>
      </trkpt>
      <trkpt lat="44.42304" lon="5.78673">
        <ele>796</ele>
        <time>2022-06-09T22:50:41Z</time>
      </trkpt>
      <trkpt lat="44.42305" lon="5.78661">
        <ele>795</ele>
        <time>2022-06-09T22:50:43Z</time>
      </trkpt>
      <trkpt lat="44.42298" lon="5.78658">
        <ele>792</ele>
        <time>2022-06-09T22:50:45Z</time>
      </trkpt>
      <trkpt lat="44.42306" lon="5.78652">
        <ele>793</ele>
        <time>2022-06-09T22:50:47Z</time>
      </trkpt>
      <trkpt lat="44.42304" lon="5.78656">
        <ele>793</ele>
        <time>2022-06-09T22:50:48Z</time>
      </trkpt>
      <trkpt lat="44.42288" lon="5.78646">
        <ele>788</ele>
        <time>2022-06-09T22:50:52Z</time>
      </trkpt>
      <trkpt lat="44.42279" lon="5.78625">
        <ele>782</ele>
        <time>2022-06-09T22:50:56Z</time>
      </trkpt>
      <trkpt lat="44.42269" lon="5.78629">
        <ele>781</ele>
        <time>2022-06-09T22:50:58Z</time>
      </trkpt>
      <trkpt lat="44.4227" lon="5.78631">
        <ele>782</ele>
        <time>2022-06-09T22:50:59Z</time>
      </trkpt>
      <trkpt lat="44.42272" lon="5.78629">
        <ele>782</ele>
        <time>2022-06-09T22:50:59Z</time>
      </trkpt>
      <trkpt lat="44.42274" lon="5.78633">
        <ele>783</ele>
        <time>2022-06-09T22:51:00Z</time>
      </trkpt>
      <trkpt lat="44.42264" lon="5.78626">
        <ele>780</ele>
        <time>2022-06-09T22:51:03Z</time>
      </trkpt>
      <trkpt lat="44.42252" lon="5.7863">
        <ele>779</ele>
        <time>2022-06-09T22:51:05Z</time>
      </trkpt>
      <trkpt lat="44.42247" lon="5.78628">
        <ele>777</ele>
        <time>2022-06-09T22:51:07Z</time>
      </trkpt>
      <trkpt lat="44.42231" lon="5.78605">
        <ele>769</ele>
        <time>2022-06-09T22:51:12Z</time>
      </trkpt>
      <trkpt lat="44.42209" lon="5.78589">
        <ele>762</ele>
        <time>2022-06-09T22:51:18Z</time>
      </trkpt>
      <trkpt lat="44.42187" lon="5.78586">
        <ele>756</ele>
        <time>2022-06-09T22:51:23Z</time>
      </trkpt>
      <trkpt lat="44.42181" lon="5.78589">
        <ele>755</ele>
        <time>2022-06-09T22:51:24Z</time>
      </trkpt>
      <trkpt lat="44.42179" lon="5.78594">
        <ele>755</ele>
        <time>2022-06-09T22:51:25Z</time>
      </trkpt>
      <trkpt lat="44.42177" lon="5.78593">
        <ele>754</ele>
        <time>2022-06-09T22:51:26Z</time>
      </trkpt>
      <trkpt lat="44.42178" lon="5.78587">
        <ele>754</ele>
        <time>2022-06-09T22:51:27Z</time>
      </trkpt>
      <trkpt lat="44.42182" lon="5.78591">
        <ele>755</ele>
        <time>2022-06-09T22:51:28Z</time>
      </trkpt>
      <trkpt lat="44.42168" lon="5.78597">
        <ele>752</ele>
        <time>2022-06-09T22:51:32Z</time>
      </trkpt>
      <trkpt lat="44.42161" lon="5.7859">
        <ele>751</ele>
        <time>2022-06-09T22:51:34Z</time>
      </trkpt>
      <trkpt lat="44.42149" lon="5.78594">
        <ele>750</ele>
        <time>2022-06-09T22:51:36Z</time>
      </trkpt>
      <trkpt lat="44.42149" lon="5.78591">
        <ele>749</ele>
        <time>2022-06-09T22:51:37Z</time>
      </trkpt>
      <trkpt lat="44.42132" lon="5.78594">
        <ele>748</ele>
        <time>2022-06-09T22:51:41Z</time>
      </trkpt>
      <trkpt lat="44.42114" lon="5.78589">
        <ele>746</ele>
        <time>2022-06-09T22:51:45Z</time>
      </trkpt>
      <trkpt lat="44.42109" lon="5.78592">
        <ele>745</ele>
        <time>2022-06-09T22:51:46Z</time>
      </trkpt>
      <trkpt lat="44.4211" lon="5.7859">
        <ele>745</ele>
        <time>2022-06-09T22:51:47Z</time>
      </trkpt>
      <trkpt lat="44.42106" lon="5.78588">
        <ele>745</ele>
        <time>2022-06-09T22:51:48Z</time>
      </trkpt>
      <trkpt lat="44.42102" lon="5.78574">
        <ele>743</ele>
        <time>2022-06-09T22:51:50Z</time>
      </trkpt>
      <trkpt lat="44.42097" lon="5.78515">
        <ele>739</ele>
        <time>2022-06-09T22:52:00Z</time>
      </trkpt>
      <trkpt lat="44.42091" lon="5.78502">
        <ele>738</ele>
        <time>2022-06-09T22:52:03Z</time>
      </trkpt>
      <trkpt lat="44.42076" lon="5.7849">
        <ele>736</ele>
        <time>2022-06-09T22:52:07Z</time>
      </trkpt>
      <trkpt lat="44.42057" lon="5.78499">
        <ele>735</ele>
        <time>2022-06-09T22:52:12Z</time>
      </trkpt>
      <trkpt lat="44.42047" lon="5.78508">
        <ele>735</ele>
        <time>2022-06-09T22:52:14Z</time>
      </trkpt>
      <trkpt lat="44.42041" lon="5.78507">
        <ele>734</ele>
        <time>2022-06-09T22:52:16Z</time>
      </trkpt>
      <trkpt lat="44.42034" lon="5.78474">
        <ele>733</ele>
        <time>2022-06-09T22:52:22Z</time>
      </trkpt>
      <trkpt lat="44.42006" lon="5.78194">
        <ele>719</ele>
        <time>2022-06-09T22:53:09Z</time>
      </trkpt>
      <trkpt lat="44.42013" lon="5.78093">
        <ele>717</ele>
        <time>2022-06-09T22:53:26Z</time>
      </trkpt>
      <trkpt lat="44.42019" lon="5.78041">
        <ele>717</ele>
        <time>2022-06-09T22:53:34Z</time>
      </trkpt>
      <trkpt lat="44.42021" lon="5.77984">
        <ele>715</ele>
        <time>2022-06-09T22:53:44Z</time>
      </trkpt>
      <trkpt lat="44.42024" lon="5.77978">
        <ele>715</ele>
        <time>2022-06-09T22:53:45Z</time>
      </trkpt>
      <trkpt lat="44.4203" lon="5.77973">
        <ele>715</ele>
        <time>2022-06-09T22:53:47Z</time>
      </trkpt>
      <trkpt lat="44.42064" lon="5.77962">
        <ele>717</ele>
        <time>2022-06-09T22:53:55Z</time>
      </trkpt>
      <trkpt lat="44.42078" lon="5.77952">
        <ele>718</ele>
        <time>2022-06-09T22:53:59Z</time>
      </trkpt>
      <trkpt lat="44.42085" lon="5.77944">
        <ele>718</ele>
        <time>2022-06-09T22:54:01Z</time>
      </trkpt>
      <trkpt lat="44.42117" lon="5.77891">
        <ele>717</ele>
        <time>2022-06-09T22:54:12Z</time>
      </trkpt>
      <trkpt lat="44.42146" lon="5.77818">
        <ele>716</ele>
        <time>2022-06-09T22:54:26Z</time>
      </trkpt>
      <trkpt lat="44.42154" lon="5.77806">
        <ele>716</ele>
        <time>2022-06-09T22:54:29Z</time>
      </trkpt>
      <trkpt lat="44.42173" lon="5.77793">
        <ele>717</ele>
        <time>2022-06-09T22:54:34Z</time>
      </trkpt>
      <trkpt lat="44.42178" lon="5.77783">
        <ele>717</ele>
        <time>2022-06-09T22:54:36Z</time>
      </trkpt>
      <trkpt lat="44.42191" lon="5.77768">
        <ele>717</ele>
        <time>2022-06-09T22:54:40Z</time>
      </trkpt>
      <trkpt lat="44.42196" lon="5.77756">
        <ele>717</ele>
        <time>2022-06-09T22:54:42Z</time>
      </trkpt>
      <trkpt lat="44.42212" lon="5.77731">
        <ele>716</ele>
        <time>2022-06-09T22:54:48Z</time>
      </trkpt>
      <trkpt lat="44.42225" lon="5.777">
        <ele>715</ele>
        <time>2022-06-09T22:54:54Z</time>
      </trkpt>
      <trkpt lat="44.42229" lon="5.77696">
        <ele>715</ele>
        <time>2022-06-09T22:54:55Z</time>
      </trkpt>
      <trkpt lat="44.42234" lon="5.77693">
        <ele>715</ele>
        <time>2022-06-09T22:54:56Z</time>
      </trkpt>
      <trkpt lat="44.42245" lon="5.77694">
        <ele>716</ele>
        <time>2022-06-09T22:54:59Z</time>
      </trkpt>
      <trkpt lat="44.42269" lon="5.7772">
        <ele>717</ele>
        <time>2022-06-09T22:55:06Z</time>
      </trkpt>
      <trkpt lat="44.42275" lon="5.77722">
        <ele>717</ele>
        <time>2022-06-09T22:55:07Z</time>
      </trkpt>
      <trkpt lat="44.42286" lon="5.77731">
        <ele>717</ele>
        <time>2022-06-09T22:55:10Z</time>
      </trkpt>
      <trkpt lat="44.42299" lon="5.77736">
        <ele>718</ele>
        <time>2022-06-09T22:55:13Z</time>
      </trkpt>
      <trkpt lat="44.42312" lon="5.77733">
        <ele>718</ele>
        <time>2022-06-09T22:55:16Z</time>
      </trkpt>
      <trkpt lat="44.42336" lon="5.77702">
        <ele>719</ele>
        <time>2022-06-09T22:55:24Z</time>
      </trkpt>
      <trkpt lat="44.4236" lon="5.77679">
        <ele>721</ele>
        <time>2022-06-09T22:55:31Z</time>
      </trkpt>
      <trkpt lat="44.42376" lon="5.77668">
        <ele>722</ele>
        <time>2022-06-09T22:55:35Z</time>
      </trkpt>
      <trkpt lat="44.42389" lon="5.77654">
        <ele>723</ele>
        <time>2022-06-09T22:55:39Z</time>
      </trkpt>
      <trkpt lat="44.42407" lon="5.77643">
        <ele>724</ele>
        <time>2022-06-09T22:55:43Z</time>
      </trkpt>
      <trkpt lat="44.42438" lon="5.77616">
        <ele>726</ele>
        <time>2022-06-09T22:55:52Z</time>
      </trkpt>
      <trkpt lat="44.42468" lon="5.77601">
        <ele>729</ele>
        <time>2022-06-09T22:55:59Z</time>
      </trkpt>
      <trkpt lat="44.42493" lon="5.77576">
        <ele>730</ele>
        <time>2022-06-09T22:56:07Z</time>
      </trkpt>
      <trkpt lat="44.42509" lon="5.77554">
        <ele>730</ele>
        <time>2022-06-09T22:56:12Z</time>
      </trkpt>
      <trkpt lat="44.42516" lon="5.77548">
        <ele>730</ele>
        <time>2022-06-09T22:56:14Z</time>
      </trkpt>
      <trkpt lat="44.42529" lon="5.77543">
        <ele>730</ele>
        <time>2022-06-09T22:56:17Z</time>
      </trkpt>
      <trkpt lat="44.42547" lon="5.77529">
        <ele>731</ele>
        <time>2022-06-09T22:56:22Z</time>
      </trkpt>
      <trkpt lat="44.4257" lon="5.77498">
        <ele>730</ele>
        <time>2022-06-09T22:56:29Z</time>
      </trkpt>
      <trkpt lat="44.42574" lon="5.77489">
        <ele>730</ele>
        <time>2022-06-09T22:56:31Z</time>
      </trkpt>
      <trkpt lat="44.4259" lon="5.77435">
        <ele>730</ele>
        <time>2022-06-09T22:56:41Z</time>
      </trkpt>
      <trkpt lat="44.42605" lon="5.77394">
        <ele>730</ele>
        <time>2022-06-09T22:56:48Z</time>
      </trkpt>
      <trkpt lat="44.42622" lon="5.77374">
        <ele>731</ele>
        <time>2022-06-09T22:56:54Z</time>
      </trkpt>
      <trkpt lat="44.42648" lon="5.7733">
        <ele>734</ele>
        <time>2022-06-09T22:57:03Z</time>
      </trkpt>
      <trkpt lat="44.42651" lon="5.77329">
        <ele>735</ele>
        <time>2022-06-09T22:57:04Z</time>
      </trkpt>
      <trkpt lat="44.42653" lon="5.77317">
        <ele>735</ele>
        <time>2022-06-09T22:57:06Z</time>
      </trkpt>
      <trkpt lat="44.42652" lon="5.77312">
        <ele>735</ele>
        <time>2022-06-09T22:57:07Z</time>
      </trkpt>
      <trkpt lat="44.42647" lon="5.77307">
        <ele>734</ele>
        <time>2022-06-09T22:57:08Z</time>
      </trkpt>
      <trkpt lat="44.42642" lon="5.77306">
        <ele>734</ele>
        <time>2022-06-09T22:57:09Z</time>
      </trkpt>
      <trkpt lat="44.42637" lon="5.77309">
        <ele>733</ele>
        <time>2022-06-09T22:57:11Z</time>
      </trkpt>
      <trkpt lat="44.42646" lon="5.77315">
        <ele>734</ele>
        <time>2022-06-09T22:57:13Z</time>
      </trkpt>
      <trkpt lat="44.42647" lon="5.77324">
        <ele>734</ele>
        <time>2022-06-09T22:57:14Z</time>
      </trkpt>
      <trkpt lat="44.42645" lon="5.77332">
        <ele>734</ele>
        <time>2022-06-09T22:57:16Z</time>
      </trkpt>
      <trkpt lat="44.42628" lon="5.77353">
        <ele>732</ele>
        <time>2022-06-09T22:57:21Z</time>
      </trkpt>
      <trkpt lat="44.4262" lon="5.77375">
        <ele>731</ele>
        <time>2022-06-09T22:57:25Z</time>
      </trkpt>
      <trkpt lat="44.42599" lon="5.77401">
        <ele>730</ele>
        <time>2022-06-09T22:57:32Z</time>
      </trkpt>
      <trkpt lat="44.42587" lon="5.77434">
        <ele>730</ele>
        <time>2022-06-09T22:57:38Z</time>
      </trkpt>
      <trkpt lat="44.42574" lon="5.77483">
        <ele>730</ele>
        <time>2022-06-09T22:57:47Z</time>
      </trkpt>
      <trkpt lat="44.42563" lon="5.77503">
        <ele>730</ele>
        <time>2022-06-09T22:57:51Z</time>
      </trkpt>
      <trkpt lat="44.42536" lon="5.77533">
        <ele>730</ele>
        <time>2022-06-09T22:57:59Z</time>
      </trkpt>
      <trkpt lat="44.42528" lon="5.77539">
        <ele>730</ele>
        <time>2022-06-09T22:58:01Z</time>
      </trkpt>
      <trkpt lat="44.42513" lon="5.77545">
        <ele>730</ele>
        <time>2022-06-09T22:58:05Z</time>
      </trkpt>
      <trkpt lat="44.42478" lon="5.77587">
        <ele>729</ele>
        <time>2022-06-09T22:58:16Z</time>
      </trkpt>
      <trkpt lat="44.42434" lon="5.77616">
        <ele>725</ele>
        <time>2022-06-09T22:58:27Z</time>
      </trkpt>
      <trkpt lat="44.42419" lon="5.77681">
        <ele>725</ele>
        <time>2022-06-09T22:58:38Z</time>
      </trkpt>
      <trkpt lat="44.42409" lon="5.77695">
        <ele>724</ele>
        <time>2022-06-09T22:58:42Z</time>
      </trkpt>
      <trkpt lat="44.42399" lon="5.77694">
        <ele>724</ele>
        <time>2022-06-09T22:58:44Z</time>
      </trkpt>
      <trkpt lat="44.42397" lon="5.7769">
        <ele>724</ele>
        <time>2022-06-09T22:58:45Z</time>
      </trkpt>
      <trkpt lat="44.42405" lon="5.77695">
        <ele>724</ele>
        <time>2022-06-09T22:58:47Z</time>
      </trkpt>
      <trkpt lat="44.42406" lon="5.77702">
        <ele>724</ele>
        <time>2022-06-09T22:58:48Z</time>
      </trkpt>
      <trkpt lat="44.42403" lon="5.77711">
        <ele>724</ele>
        <time>2022-06-09T22:58:50Z</time>
      </trkpt>
      <trkpt lat="44.42408" lon="5.77698">
        <ele>724</ele>
        <time>2022-06-09T22:58:52Z</time>
      </trkpt>
      <trkpt lat="44.42413" lon="5.77696">
        <ele>725</ele>
        <time>2022-06-09T22:58:53Z</time>
      </trkpt>
      <trkpt lat="44.42429" lon="5.77675">
        <ele>727</ele>
        <time>2022-06-09T22:58:58Z</time>
      </trkpt>
      <trkpt lat="44.42439" lon="5.77639">
        <ele>727</ele>
        <time>2022-06-09T22:59:05Z</time>
      </trkpt>
      <trkpt lat="44.42437" lon="5.77628">
        <ele>726</ele>
        <time>2022-06-09T22:59:07Z</time>
      </trkpt>
      <trkpt lat="44.42434" lon="5.77625">
        <ele>726</ele>
        <time>2022-06-09T22:59:08Z</time>
      </trkpt>
      <trkpt lat="44.42425" lon="5.77625">
        <ele>725</ele>
        <time>2022-06-09T22:59:10Z</time>
      </trkpt>
      <trkpt lat="44.42405" lon="5.77643">
        <ele>723</ele>
        <time>2022-06-09T22:59:15Z</time>
      </trkpt>
      <trkpt lat="44.42394" lon="5.77649">
        <ele>723</ele>
        <time>2022-06-09T22:59:18Z</time>
      </trkpt>
      <trkpt lat="44.42393" lon="5.77662">
        <ele>723</ele>
        <time>2022-06-09T22:59:20Z</time>
      </trkpt>
      <trkpt lat="44.42387" lon="5.77673">
        <ele>723</ele>
        <time>2022-06-09T22:59:22Z</time>
      </trkpt>
      <trkpt lat="44.42387" lon="5.77671">
        <ele>723</ele>
        <time>2022-06-09T22:59:23Z</time>
      </trkpt>
      <trkpt lat="44.42388" lon="5.77679">
        <ele>723</ele>
        <time>2022-06-09T22:59:24Z</time>
      </trkpt>
    </trkseg>
  </trk>
</gpx>